[[{"header":{"parameterUnit":"m.s-1","parameterCategory":1,"la1":30.6,"la2":29.2853,"lo1":-89.7004,"lo2":-87.6739,"dy":0.0162,"dx":0.0183,"nx":112,"ny":82,"refTime":"2024-08-13T06:00:00:Z","depth":0,"parameterNumber":2,"parameterNumberName":"U-component_of_WINDS"},"data":[0.0,0.0,0.0,0.0,0.0,0.0,0.0,0.0,0.0,0.0,0.0,0.0,0.0,0.0,0.0,0.0,0.0,0.0,0.0,0.0,0.0,0.0,0.0,0.0,0.0,0.0,0.0,0.0,0.0,0.0,0.0,0.0,0.0,0.0,0.0,0.0,0.0,0.0,0.0,0.0,0.0,0.0,0.0,0.0,0.0,0.0,0.0,0.0,0.0,0.0,0.0,0.0,0.0,0.0,0.0,0.0,0.0,0.0,0.0,0.0,0.0,0.0,0.0,0.0,0.0,0.0,0.0,0.0,0.0,0.0,0.0,0.0,0.0,0.0,0.0,0.0,0.0,0.0,0.0,0.0,0.0,0.0,0.0,0.0,0.0,0.0,0.0,0.0,0.0,0.0,1.3128,1.4333,1.6951,1.8727,1.8893,1.9332,1.8484,1.5963,0.0,0.0,0.0,0.0,0.0,0.0,0.0,0.0,0.0,0.0,0.0,0.0,0.0,0.0,0.0,0.0,0.0,0.0,0.0,0.0,0.0,0.0,0.0,0.0,0.0,0.0,0.0,0.0,0.0,0.0,0.0,0.0,0.0,0.0,0.0,0.0,0.0,0.0,0.0,0.0,0.0,0.0,0.0,0.0,0.0,0.0,0.0,0.0,0.0,0.0,0.0,0.0,0.0,0.0,0.0,0.0,0.0,0.0,0.0,0.0,0.0,0.0,0.0,0.0,0.0,0.0,0.0,0.0,0.0,0.0,0.0,0.0,0.0,0.0,0.0,0.0,0.0,0.0,0.0,0.0,0.0,0.0,0.0,0.0,0.0,0.0,0.0,0.0,0.0,0.0,0.0,0.0,0.0,0.0,0.0,0.0,0.0,0.0,0.0,0.0,0.0,0.0,0.0,0.0,1.246,1.5699,1.6963,1.7907,1.8817,1.8968,1.8109,1.5934,0.0,0.0,0.0,0.0,0.0,0.0,0.0,0.0,0.0,0.0,0.0,0.0,0.0,0.0,0.0,0.0,0.0,0.0,0.0,0.0,0.0,0.0,0.0,0.0,0.0,0.0,0.0,0.0,0.0,0.0,0.0,0.0,0.0,0.0,0.0,0.0,0.0,0.0,0.0,0.0,0.0,0.0,0.0,0.0,0.0,0.0,0.0,0.0,0.0,0.0,0.0,0.0,0.0,0.0,0.0,0.0,0.0,0.0,0.0,0.0,0.0,0.0,0.0,0.0,0.0,0.0,0.0,0.0,0.0,0.0,0.0,0.0,0.0,0.0,0.0,0.0,0.0,0.0,0.0,0.0,0.0,0.0,0.0,0.0,0.0,0.0,0.0,0.0,0.0,0.0,0.0,0.0,0.0,0.0,0.0,0.0,0.0,0.0,0.0,0.0,0.0,0.0,0.0,1.1607,1.3088,1.6118,1.698,1.7626,1.8419,1.8727,1.8004,1.5934,1.4528,0.0,0.0,0.0,0.0,0.0,0.0,0.0,0.0,0.0,0.0,0.0,0.0,0.0,0.0,0.0,0.0,0.0,0.0,0.0,0.0,0.0,0.0,0.0,0.0,0.0,0.0,0.0,0.0,0.0,0.0,0.0,0.0,0.0,0.0,0.0,0.0,0.0,0.0,0.0,0.0,0.0,0.0,0.0,0.0,0.0,0.0,0.0,0.0,0.0,0.0,0.0,0.0,0.0,0.0,0.0,0.0,0.0,0.0,0.0,0.0,0.0,0.0,0.0,0.0,0.0,0.0,0.0,0.0,0.0,0.0,0.0,0.0,0.0,0.0,0.0,0.0,0.0,0.0,0.0,0.0,0.0,0.0,0.0,0.0,0.0,0.0,0.0,0.0,0.0,0.0,0.0,0.0,0.0,0.0,0.0,0.0,0.0,0.0,0.0,0.0,0.0,0.0,1.2977,1.3854,1.5874,1.6697,1.7394,1.8027,1.819,1.7531,1.5919,1.4229,0.0,0.0,0.0,0.0,0.0,0.0,0.0,0.0,0.0,0.0,0.0,0.0,0.0,0.0,0.0,0.0,0.0,0.0,0.0,0.0,0.0,0.0,0.0,0.0,0.0,0.0,0.0,0.0,0.0,0.0,0.0,0.0,0.0,0.0,0.0,0.0,0.0,0.0,0.0,0.0,0.0,0.0,0.0,0.0,0.0,0.0,0.0,0.0,0.0,0.0,0.0,0.0,0.0,0.0,0.0,0.0,0.0,0.0,0.0,0.0,0.0,0.0,0.0,0.0,0.0,0.0,0.0,0.0,0.0,0.0,0.0,0.0,0.0,0.0,0.0,0.0,0.0,0.0,0.0,0.0,0.0,0.0,0.0,0.0,0.0,0.0,0.0,0.0,0.0,0.0,0.0,0.0,0.0,0.0,0.0,0.0,0.0,0.0,0.0,0.0,0.0,0.0,1.2568,1.4224,1.4778,1.5876,1.6993,1.8027,1.6995,1.6157,1.583,1.3361,0.0,0.0,0.0,0.0,0.0,0.0,0.0,0.0,0.0,0.0,0.0,0.0,0.0,0.0,0.0,0.0,0.0,0.0,0.0,0.0,0.0,0.0,0.0,0.0,0.0,0.0,0.0,0.0,0.0,0.0,0.0,0.0,0.0,0.0,0.0,0.0,0.0,0.0,0.0,0.0,0.0,0.0,0.0,0.0,0.0,0.0,0.0,0.0,0.0,0.0,0.0,0.0,0.0,0.0,0.0,0.0,0.0,0.0,0.0,0.0,0.0,0.0,0.0,0.0,0.0,0.0,0.0,0.0,0.0,0.0,0.0,0.0,0.0,0.0,0.0,0.0,0.0,0.0,0.0,0.0,0.0,0.0,0.0,0.0,0.0,0.0,0.0,0.0,0.0,0.0,0.0,0.0,0.0,0.0,0.0,0.0,0.0,0.0,0.0,0.0,0.0,0.0,1.2513,1.4081,1.5149,1.6008,1.6909,1.8027,1.7653,1.6909,1.5875,0.0,0.0,0.0,0.0,0.0,0.0,0.0,0.0,0.0,0.0,0.0,0.0,0.0,0.0,0.0,0.0,0.0,0.0,0.0,0.0,0.0,0.0,0.0,0.0,0.0,0.0,0.0,0.0,0.0,0.0,0.0,0.0,0.0,0.0,0.0,0.0,0.0,0.0,0.0,0.0,0.0,0.0,0.0,0.0,0.0,0.0,0.0,0.0,0.0,0.0,0.0,0.0,0.0,0.0,0.0,0.0,0.0,0.0,0.0,0.0,0.0,0.0,0.0,0.0,0.0,0.0,0.0,0.0,0.0,0.0,0.0,0.0,0.0,0.0,0.0,0.0,0.0,0.0,0.0,0.0,0.0,0.0,0.0,0.0,0.0,0.0,0.0,0.0,0.0,0.0,0.0,0.0,0.0,0.0,0.0,0.0,0.0,0.0,0.0,0.0,0.0,0.0,1.0941,1.2744,1.425,1.546,1.6139,1.6909,1.8027,1.7708,1.6994,1.5875,0.0,0.0,0.0,0.0,0.0,0.0,0.0,0.0,0.0,0.0,0.0,0.0,0.0,0.0,0.0,0.0,0.0,0.0,0.0,0.0,0.0,0.0,0.0,0.0,0.0,0.0,0.0,0.0,0.0,0.0,0.0,0.0,0.0,0.0,0.0,0.0,0.0,0.0,0.0,0.0,0.0,0.0,0.0,0.0,0.0,0.0,0.0,0.0,0.0,0.0,0.0,0.0,0.0,0.0,0.0,0.0,0.0,0.0,0.0,0.0,0.0,0.0,0.0,0.0,0.0,0.0,0.0,0.0,0.0,0.0,0.0,0.0,0.0,0.0,0.0,0.0,0.0,0.0,0.0,0.0,0.0,0.0,0.0,0.0,0.0,0.0,0.0,0.0,0.0,0.0,0.0,0.0,0.0,0.0,0.0,0.0,0.0,0.0,0.0,0.0,0.0,0.0,1.1026,1.3235,1.4926,1.5543,1.6139,1.6909,1.7987,1.6889,1.6039,0.0,0.0,0.0,0.0,0.0,0.0,0.0,0.0,0.0,0.0,0.0,0.0,0.0,0.0,0.0,0.0,0.0,0.0,0.0,0.0,0.0,0.0,0.0,0.0,0.0,0.0,0.0,0.0,0.0,0.0,0.0,0.0,0.0,0.0,0.0,0.0,0.0,0.0,0.0,0.0,0.0,0.0,0.0,0.0,0.0,0.0,0.0,0.0,0.0,0.0,0.0,0.0,0.0,0.0,0.0,0.0,0.0,0.0,0.0,0.0,0.0,0.0,0.0,0.0,0.0,0.0,0.0,0.0,0.0,0.0,0.0,0.0,0.0,0.0,0.0,0.0,0.0,0.0,0.0,0.0,0.0,0.0,0.0,0.0,0.0,0.0,0.0,0.0,0.0,0.0,0.0,0.0,0.0,0.0,0.0,0.0,0.0,0.0,0.0,0.0,0.0,0.0,0.0,1.1026,1.3235,1.4926,1.5543,1.6139,1.6795,1.7463,1.7501,1.6878,1.5339,0.0,0.0,0.0,0.0,0.0,0.0,0.0,0.0,0.0,0.0,0.0,0.0,0.0,0.0,0.0,0.0,0.0,0.0,0.0,0.0,0.0,0.0,0.0,0.0,0.0,0.0,0.0,0.0,0.0,0.0,0.0,0.0,0.0,0.0,0.0,0.0,0.0,0.0,0.0,0.0,0.0,0.0,0.0,0.0,0.0,0.0,0.0,0.0,0.0,0.0,0.0,0.0,0.0,0.0,0.0,0.0,0.0,0.0,0.0,0.0,0.0,0.0,0.0,0.0,0.0,0.0,0.0,0.0,0.0,0.0,0.0,0.0,0.0,0.0,0.0,0.0,0.0,0.0,0.0,0.0,0.0,0.0,0.0,0.0,0.0,0.0,0.0,0.0,0.0,0.0,0.0,0.0,0.0,0.0,0.0,0.0,0.0,0.0,0.0,0.0,0.0,0.0,1.1373,1.3591,1.5276,1.5908,1.6281,1.671,1.7229,1.7787,1.733,1.5513,0.0,0.0,0.0,0.0,0.0,0.0,0.0,0.0,0.0,0.0,0.0,0.0,0.0,0.0,0.0,0.0,0.0,0.0,0.0,0.0,0.0,0.0,0.0,0.0,0.0,0.0,0.0,0.0,0.0,0.0,0.0,0.0,0.0,0.0,0.0,0.0,0.0,0.0,0.0,0.0,0.0,0.0,0.0,0.0,0.0,0.0,0.0,0.0,0.0,0.0,0.0,0.0,0.0,0.0,0.0,0.0,0.0,0.0,0.0,0.0,0.0,0.0,0.0,0.0,0.0,0.0,0.0,0.0,0.0,0.0,0.0,0.0,0.0,0.0,0.0,0.0,0.0,0.0,0.0,0.0,0.0,0.0,0.0,0.0,0.0,0.0,0.0,0.0,0.0,0.0,0.0,0.0,0.0,0.0,0.0,0.0,0.0,0.0,0.0,0.0,0.0,0.0,1.2046,1.4193,1.582,1.6423,1.6522,1.671,1.7188,1.7747,1.7497,1.6108,0.0,0.0,0.0,0.0,0.0,0.0,0.0,0.0,0.0,0.0,0.0,0.0,0.0,0.0,0.0,0.0,0.0,0.0,0.0,0.0,0.0,0.0,0.0,0.0,0.0,0.0,0.0,0.0,0.0,0.0,0.0,0.0,0.0,0.0,0.0,0.0,0.0,0.0,0.0,0.0,0.0,0.0,0.0,0.0,0.0,0.0,0.0,0.0,0.0,0.0,0.0,0.0,0.0,0.0,0.0,0.0,0.0,0.0,0.0,0.0,1.149,1.0755,0.0,0.0,0.0,0.0,0.0,0.0,0.0,0.0,0.0,0.0,0.0,0.0,0.0,0.0,0.0,0.0,0.0,0.0,0.0,0.0,0.0,0.0,0.0,0.0,0.0,0.0,0.0,0.0,0.0,0.0,0.0,0.0,0.0,0.0,0.0,0.0,0.0,0.0,0.0,0.0,1.2997,1.4595,1.582,1.6423,1.6522,1.6552,1.668,1.7544,1.7526,1.6151,1.5763,0.0,0.0,0.0,0.0,0.0,0.0,0.0,0.0,0.0,0.0,0.0,0.0,0.0,0.0,0.0,0.0,0.0,0.0,0.0,0.0,0.0,0.0,0.0,0.0,0.0,0.0,0.0,0.0,0.0,0.0,0.0,0.0,0.0,0.0,0.0,0.0,0.0,0.0,0.0,0.0,0.0,0.0,0.0,0.0,0.0,0.0,0.0,0.0,0.0,0.0,0.0,0.0,0.0,0.0,0.0,0.0,0.0,0.0,0.0,1.302,1.253,0.0,0.0,0.0,0.0,0.0,0.0,0.0,0.0,0.0,0.0,0.0,0.0,0.0,0.0,0.0,0.0,0.0,0.0,0.0,0.0,0.0,0.0,0.0,0.0,0.0,0.0,0.0,0.0,0.0,0.0,0.0,0.0,0.0,0.0,0.0,0.0,0.0,0.0,0.0,0.0,1.3312,1.4967,1.6139,1.6466,1.6522,1.6522,1.6522,1.7229,1.7289,1.6273,1.6055,0.0,0.0,0.0,0.0,0.0,0.0,0.0,0.0,0.0,0.0,0.0,0.0,0.0,0.0,0.0,0.0,0.0,0.0,0.0,0.0,0.0,0.0,0.0,0.0,0.0,0.0,0.0,0.0,0.0,0.0,0.0,0.0,0.0,0.0,0.0,0.0,0.0,0.0,0.0,0.0,0.0,0.0,0.0,0.0,0.0,0.0,0.0,0.0,0.0,0.0,0.0,0.0,0.0,1.4739,1.5081,1.4612,1.5028,1.5303,1.5405,1.4468,1.4406,1.4935,1.4659,0.0,0.0,0.0,0.0,0.0,0.0,0.0,0.0,0.0,0.0,0.0,0.0,0.0,0.0,0.0,0.0,0.0,0.0,0.0,0.0,0.0,0.0,1.5994,1.5384,1.6426,1.6898,1.455,0.0,0.0,0.0,0.0,0.0,0.0,0.0,0.0,0.0,0.0,0.0,1.3752,1.5389,1.6522,1.6522,1.6522,1.6522,1.6522,1.6993,1.706,1.652,1.6348,1.5537,0.0,0.0,0.0,0.0,0.0,0.0,0.0,0.0,0.0,0.0,0.0,0.0,0.0,0.0,0.0,0.0,0.0,0.0,0.0,0.0,0.0,0.0,0.0,0.0,0.0,0.0,0.0,0.0,0.0,0.0,0.0,0.0,1.1094,1.3796,0.0,0.0,0.0,0.0,0.0,0.0,0.0,0.0,0.0,0.0,0.0,0.0,0.0,1.4826,1.517,1.6014,1.6327,1.5953,1.6297,1.6246,1.5861,1.593,1.6168,1.6515,1.6632,0.0,1.5957,1.569,0.0,0.0,0.0,0.0,0.0,0.0,0.0,0.0,0.0,0.0,0.0,0.0,0.0,0.0,0.0,0.0,0.0,0.0,0.0,0.0,0.0,0.0,1.7877,1.7725,1.7884,1.799,1.7626,1.6019,1.4513,1.3848,1.2893,1.2109,0.0,0.0,0.0,0.0,0.0,0.0,1.5352,1.604,1.6522,1.6522,1.6522,1.6522,1.6522,1.6993,1.7272,1.7165,1.7031,1.6592,1.5768,1.4746,0.0,0.0,0.0,0.0,0.0,0.0,0.0,0.0,0.0,0.0,0.0,0.0,0.0,0.0,0.0,0.0,0.0,0.0,0.0,0.0,0.0,0.0,0.0,0.0,0.0,0.0,0.0,0.0,0.0,1.0487,1.2304,1.3827,1.318,1.2577,0.0,0.0,0.0,0.0,0.0,0.0,0.0,0.0,0.0,1.5786,1.6192,1.6697,1.7375,1.7002,1.7002,1.7277,1.7166,1.6865,1.6445,1.7161,1.7491,1.7502,1.8544,1.8828,1.8491,1.8005,1.7783,1.7508,0.0,0.0,0.0,0.0,1.3934,1.3991,1.4398,1.4744,1.5034,1.5013,0.0,0.0,0.0,0.0,0.0,0.0,0.0,1.671,1.7024,1.7877,1.8559,1.813,1.8561,1.8908,1.8191,1.7597,1.6948,1.6137,1.5015,1.4161,1.3848,1.3283,0.0,0.0,0.0,1.553,1.6082,1.6923,1.735,1.7036,1.6999,1.6873,1.6547,1.671,1.6837,1.6837,1.6801,1.6479,1.5905,1.5546,1.4814,0.0,0.0,0.0,0.0,0.0,0.0,0.0,0.0,0.0,0.0,0.0,0.0,0.0,0.0,0.0,0.0,0.0,0.0,0.0,0.0,0.0,0.0,0.0,0.0,0.0,0.0,0.0,0.0,1.2283,1.3472,1.4038,1.422,1.4241,0.0,0.0,0.0,0.0,0.0,0.0,1.7843,1.7888,1.8036,1.8315,1.8137,1.8331,1.8952,1.7968,1.7961,1.8837,1.8167,1.777,1.7606,1.8298,1.8451,1.8206,1.9549,2.0296,2.0582,1.9948,1.9841,1.991,1.8462,1.7635,1.7042,1.6079,1.5776,1.5874,1.6269,1.6543,1.6689,1.6515,1.5924,1.5208,1.4784,0.0,0.0,0.0,0.0,1.8317,1.8731,1.9246,1.9494,1.8927,1.9547,1.9955,1.9,1.9263,1.9246,1.7865,1.6911,1.6208,1.5793,1.5053,0.0,1.5092,1.5819,1.6484,1.6898,1.7689,1.8053,1.7639,1.7589,1.7413,1.6986,1.6823,1.6735,1.6735,1.6597,1.6333,1.5919,1.6169,1.5866,1.4835,0.0,0.0,0.0,0.0,0.0,0.0,0.0,0.0,0.0,0.0,0.0,0.0,0.0,0.0,0.0,0.0,0.0,0.0,0.0,0.0,0.0,0.0,0.0,0.0,0.0,0.0,0.0,0.0,0.0,1.6216,1.6394,0.0,0.0,0.0,0.0,1.9355,1.906,1.9006,1.9467,1.9459,1.943,1.9222,1.9587,1.9773,1.9823,1.9745,2.0272,2.1218,1.9878,1.9444,1.9886,1.9033,1.8555,1.8586,1.9158,2.0063,2.1115,2.077,2.0652,2.0498,1.9119,1.8143,1.749,1.6687,1.6222,1.6056,1.6086,1.6477,1.7054,1.752,1.7787,1.7887,1.7864,1.8089,0.0,0.0,1.9523,2.0555,2.0592,2.0953,2.1368,2.1299,2.138,2.1393,2.1312,2.1368,2.0727,1.8581,1.8116,1.8078,1.8041,0.0,1.7965,1.799,1.8041,1.8091,1.8116,1.8166,1.8191,1.8166,1.8166,1.8154,1.8129,1.7639,1.7338,1.7338,1.6823,1.6509,1.6471,1.6471,1.6195,1.5658,1.485,0.0,0.0,0.0,0.0,0.0,0.0,0.0,0.0,0.0,0.0,0.0,0.0,0.0,0.0,0.0,0.0,0.0,0.0,0.0,0.0,0.0,0.0,0.0,0.0,0.0,0.0,0.0,0.0,1.7279,1.7673,0.0,1.8227,1.8511,1.8775,1.9065,2.0054,2.0841,2.1461,2.1471,2.1584,2.1836,2.1502,2.1515,2.205,2.161,2.1517,2.1789,2.1348,2.0941,2.0582,2.1391,2.138,2.0876,2.2212,2.2709,2.2605,2.3132,2.26,2.1414,2.0569,1.9621,1.8594,1.8015,1.7609,1.7275,1.7002,1.7105,1.7266,1.7126,1.7513,1.8023,1.7903,1.8368,1.9046,1.95,1.9981,2.0487,2.1069,2.1343,2.1493,2.1493,2.1493,2.1493,2.1493,2.1493,2.1255,2.0476,2.0024,1.9786,1.9786,1.9208,1.8731,1.8731,1.8731,1.8731,1.8731,1.9032,1.9108,1.8769,1.8731,1.8593,1.8242,1.7702,1.7388,1.7388,1.6835,1.6522,1.6522,1.6522,1.6421,1.6233,1.56,1.4496,0.0,0.0,0.0,0.0,0.0,0.0,0.0,0.0,0.0,0.0,0.0,0.0,0.0,0.0,0.0,0.0,0.0,0.0,0.0,0.0,0.0,0.0,0.0,0.0,0.0,1.5082,1.6635,1.7566,1.8432,1.8883,1.8642,1.9601,2.0006,1.9525,2.0799,2.1806,2.224,2.2298,2.246,2.2796,2.2593,2.2593,2.2808,2.2491,2.2501,2.2719,2.198,2.1625,2.1544,2.2374,2.2224,2.1441,2.3439,2.3875,2.3187,2.4337,2.3845,2.2436,2.2105,2.143,2.0665,2.0027,1.9422,1.8873,1.8252,1.8027,1.7978,1.7686,1.7975,1.8414,1.8338,1.8901,1.9687,2.0008,2.0331,2.0733,2.1421,2.1629,2.1687,2.1988,2.2046,2.2046,2.2046,2.2046,2.2046,2.2046,2.1443,2.0941,2.0941,2.0338,1.9861,1.9861,1.9861,1.9861,1.9861,1.9999,1.9962,1.961,1.9409,1.9145,1.8781,1.8078,1.7743,1.7913,1.7186,1.6837,1.7034,1.6879,1.6752,1.6752,1.5875,1.4778,1.3496,0.0,0.0,0.0,0.0,0.0,0.0,0.0,0.0,0.0,0.0,0.0,0.0,0.0,0.0,0.0,0.0,0.0,0.0,0.0,0.0,0.0,0.0,0.0,1.428,1.5658,1.6818,1.7324,1.8703,1.9386,1.8791,2.0147,2.0985,2.0996,2.1596,2.1943,2.1885,2.1907,2.1918,2.1918,2.2821,2.2889,2.1907,2.2455,2.3185,2.4117,2.1838,2.1528,2.2891,2.1959,2.102,2.0192,2.2582,2.328,2.2846,2.4256,2.439,2.3616,2.3537,2.3537,2.3392,2.2559,2.1596,2.0684,1.9703,1.936,1.9287,1.9287,1.9287,1.936,1.9287,1.9909,2.0508,2.0059,2.0525,2.1284,2.1792,2.1925,2.2173,2.2934,2.3128,2.3128,2.3128,2.3128,2.3128,2.3103,2.2297,2.1556,2.1543,2.1531,2.1506,2.1506,2.1493,0.0,2.1493,2.1071,2.0743,2.0743,2.0175,1.9823,1.9823,1.8844,1.8439,1.8943,1.7899,1.753,1.8054,1.7571,1.7297,1.7297,1.5734,1.4474,1.356,0.0,0.0,0.0,0.0,0.0,0.0,0.0,0.0,0.0,0.0,0.0,0.0,0.0,0.0,0.0,0.0,0.0,0.0,0.0,0.0,0.0,1.4738,1.4919,1.4707,1.6182,1.769,1.8627,1.9359,1.9878,2.008,2.1068,2.1231,2.0307,2.1657,2.2303,2.1997,2.2275,2.2456,2.2456,2.3004,2.3015,2.2466,2.3337,2.3375,2.2581,2.3385,2.3604,2.3397,2.4555,2.4555,2.3686,2.5054,2.516,2.4484,2.5561,2.5865,2.5531,2.4434,2.3582,2.3028,2.2818,2.1881,2.0755,2.0481,1.9919,1.9287,1.9287,1.9703,2.0114,1.9495,1.9909,2.0582,2.0446,2.0544,2.1138,2.2558,2.293,2.3125,2.4089,2.4356,2.4356,2.4356,2.4356,2.4243,2.3841,2.3514,2.3175,2.2749,2.2347,2.2083,2.2083,2.1744,2.1493,2.1493,2.1355,2.1267,2.1267,2.0765,2.0426,2.0426,1.9422,1.8679,1.8452,1.7753,1.7434,1.7596,1.7434,1.7346,1.7346,1.6519,1.5558,0.0,0.0,0.0,0.0,0.0,0.0,0.0,0.0,0.0,0.0,0.0,0.0,0.0,0.0,0.0,0.0,0.0,0.0,0.0,0.0,0.0,0.0,1.6131,1.6269,1.6387,1.7193,1.8142,1.9168,1.9666,2.0032,2.0297,2.0918,2.1081,2.0507,2.1425,2.2067,2.2002,2.2198,2.2341,2.2341,2.2956,2.2967,2.2341,2.3328,2.3412,2.2527,2.3307,2.3612,2.3438,2.511,2.5342,2.4516,2.6394,2.6621,2.5719,2.625,2.6776,2.7067,0.0,0.0,0.0,0.0,2.2992,2.1891,2.1468,2.0675,1.9824,1.9824,2.0178,2.0538,1.9964,2.0178,2.0571,2.0378,2.0327,2.0555,2.1815,2.2184,2.2389,2.3368,2.3911,2.4186,2.4186,2.4471,2.472,2.4406,2.4343,0.0,2.359,2.3025,2.2661,2.2661,2.2385,2.2184,2.2184,2.197,2.1832,2.1832,2.1343,2.1016,2.1016,1.9999,0.0,0.0,0.0,1.8067,1.8067,1.8067,0.0,0.0,0.0,0.0,0.0,0.0,0.0,0.0,1.5882,1.6182,0.0,0.0,0.0,0.0,0.0,0.0,0.0,0.0,0.0,0.0,0.0,0.0,0.0,0.0,0.0,0.0,1.7718,1.7822,1.8662,1.8457,1.8506,1.9268,1.9687,1.9951,2.0049,2.041,2.083,2.1269,2.1309,2.1475,2.1865,2.1934,0.0,0.0,0.0,2.2839,2.1963,2.2798,2.3223,2.3091,2.2421,2.2493,2.3322,2.4602,2.4681,2.3971,2.6851,2.7619,2.6752,2.6713,2.7186,2.7851,2.6954,2.6584,2.6383,2.5511,2.4564,2.3514,2.2553,0.0,0.0,2.0644,2.0566,2.0566,2.0566,2.0566,2.0478,2.0098,1.999,2.0118,2.0648,2.0759,2.0963,2.1867,2.2697,2.332,2.3455,2.4171,2.4853,2.4856,2.4908,2.4732,2.4192,2.3615,2.3153,2.3078,2.3078,2.3078,2.3078,2.2711,2.2397,2.2397,2.1907,0.0,2.1581,2.0602,2.0168,2.0563,1.9712,1.9198,1.9198,1.9198,1.8977,1.848,1.8417,1.838,1.838,1.8455,1.848,1.8442,1.7515,1.7692,0.0,0.0,0.0,0.0,0.0,0.0,0.0,0.0,0.0,0.0,0.0,0.0,0.0,0.0,0.0,1.7516,1.8016,1.8691,1.9551,1.96,1.9609,1.9775,1.9863,2.0195,2.0908,2.1055,2.1289,2.1728,2.1758,2.1797,2.1885,2.2207,2.2393,2.2393,2.2876,2.2886,2.2393,2.2542,2.2448,2.2195,2.2717,0.0,2.3402,2.5315,2.6107,2.603,2.7484,2.8024,2.7791,2.7804,2.7422,2.6815,2.7083,2.6854,2.6465,2.6314,2.5581,2.4564,2.3588,2.2553,2.1593,2.0857,2.0566,2.0566,2.0566,2.0566,0.0,2.0469,2.0439,2.0641,2.1497,2.1765,2.1988,2.2944,2.3307,2.3667,2.4484,2.4847,2.5075,2.5403,2.5448,2.5272,2.4757,2.4205,2.3665,2.314,2.3078,2.3078,2.3078,2.2977,2.2975,2.2975,2.2485,2.2159,2.2159,2.1543,2.102,2.0686,2.0511,2.0384,2.0384,2.0384,2.0332,2.024,1.9736,1.9497,1.9497,1.9962,2.024,2.0215,1.9079,1.8719,0.0,0.0,0.0,0.0,0.0,0.0,0.0,0.0,0.0,0.0,0.0,1.7912,1.7585,0.0,1.8108,1.8595,1.9004,1.9502,2.0146,2.0244,2.0244,2.0244,2.0439,2.0742,2.1191,2.1426,2.1738,2.2168,2.2197,2.2295,2.25,2.2715,2.2822,2.2822,2.3027,2.3037,2.2822,2.2822,2.2725,2.2519,2.2978,2.321,2.3294,2.4925,2.5972,2.6551,2.7645,2.8447,2.895,2.8371,2.7654,2.6919,2.7197,2.6993,2.6468,2.6468,2.6227,2.5765,2.5226,2.4393,2.3426,2.235,2.2046,2.1977,2.1371,2.123,2.1182,2.0957,2.0898,2.0997,2.1215,2.1298,2.1451,2.1897,2.2787,2.3514,2.3514,2.4696,2.5648,2.5367,2.5741,2.585,2.531,2.4983,2.4607,2.4067,2.3979,2.3879,2.3602,2.3565,2.3452,2.3103,2.2887,2.2723,2.2723,2.2221,2.1656,2.1104,2.1079,2.1079,2.1079,2.1079,2.1079,2.1079,2.079,2.0639,2.0639,2.0941,2.1079,2.1066,2.0803,2.0526,0.0,0.0,0.0,0.0,0.0,0.0,0.0,0.0,1.9817,2.0251,1.9291,1.8585,1.9552,1.8933,1.874,1.9853,2.0107,2.0322,2.0762,2.082,2.082,2.082,2.1064,2.1299,2.1465,2.1797,2.2178,2.2607,2.2637,2.2859,2.3367,2.3222,2.3222,2.3377,2.3222,2.3135,2.3135,2.3135,2.3135,2.3135,2.3135,2.3135,2.3135,2.4296,2.5378,2.6565,2.7867,2.8937,2.9702,2.8597,2.7846,2.7466,2.7231,2.6983,2.6771,2.6581,2.6637,2.6839,2.6439,2.5919,2.5237,2.3971,2.3492,2.3262,2.2195,2.1885,2.1889,2.1678,2.166,2.165,2.1517,2.1494,2.1474,2.1383,2.2552,2.349,2.2723,2.4469,2.6025,2.5441,2.5955,2.6382,2.585,2.5762,2.5548,2.4921,2.482,2.4657,2.4217,2.4155,2.3979,2.3453,2.3403,2.3366,2.3253,2.2786,2.2284,2.1832,2.1807,2.1807,2.1807,2.1707,2.1694,2.1807,2.1707,2.1707,2.1807,2.1807,2.187,2.1995,2.2435,2.2284,1.2594,1.371,1.52,1.6754,1.7655,1.8525,0.0,0.0,1.9396,1.9447,1.9446,1.9541,1.9715,1.969,1.9873,2.041,2.083,2.124,2.168,2.1738,2.1738,2.1738,2.1435,2.1533,2.2295,2.2412,2.2617,2.3037,2.3066,2.3501,2.4542,2.3627,2.3551,2.4542,2.3637,2.3135,2.3135,2.3135,2.3135,2.3135,2.3135,2.3135,2.3135,2.4296,2.5378,2.6648,2.8712,2.9702,2.9702,2.8597,2.806,2.7921,2.6955,2.7175,2.781,2.683,2.7112,2.7631,2.5842,2.5754,2.6136,2.4119,2.3492,2.3262,2.2195,2.1885,2.2113,2.2979,2.3269,2.3499,2.447,2.4692,2.4581,2.4049,2.4013,2.4276,2.4585,2.4933,2.537,2.6164,2.6383,2.6508,2.6445,2.6433,2.6013,2.4971,2.482,2.4795,2.4745,2.4732,2.4707,2.4644,2.4632,2.4443,2.3941,2.3376,2.2952,2.289,2.289,2.289,2.289,2.2472,2.2447,2.2937,2.2472,2.246,2.289,2.289,2.3213,2.3715,2.3778,2.3238,1.409,1.5614,1.7071,1.78,1.8386,1.8949,1.9706,1.9975,2.0076,2.0072,2.0144,2.0202,2.0198,2.0476,2.0742,2.0928,2.1328,2.168,2.1865,2.167,2.1602,2.1855,2.1728,2.1846,2.2451,2.2734,2.3189,2.4029,2.4125,2.4553,2.5714,2.5305,2.5305,2.5797,2.5305,2.5062,2.5062,2.5062,2.5062,2.5062,2.5062,2.5062,2.5062,2.5557,2.6378,2.7533,2.9118,2.9792,2.9702,2.8597,2.8518,2.8949,2.7867,2.7695,2.7956,2.6908,2.714,2.7854,2.6417,2.6177,2.6405,2.5532,2.5289,2.5126,2.4737,2.4573,2.4591,2.4788,2.4861,2.4875,2.5161,2.5171,2.5115,2.4901,2.5215,2.5535,2.52,2.5993,2.6637,2.6164,2.6553,2.6841,2.6584,2.6533,2.637,2.585,2.5774,2.5649,2.531,2.5272,2.5159,2.4858,2.482,2.4732,2.4494,2.4255,2.4117,2.4117,2.4117,2.4117,2.4117,2.3891,2.3879,2.4117,2.3891,2.3891,2.4117,2.4117,2.4243,2.4481,2.5011,2.4987,1.4932,1.667,1.8035,1.8307,1.8906,1.9459,1.9624,2.0032,2.0472,2.0552,2.0605,2.0599,2.0595,2.083,2.1133,2.1367,2.168,2.1963,2.2197,2.1855,2.1748,2.2178,2.2129,2.2217,2.2646,2.3209,2.3877,2.4702,2.5126,2.5797,2.6883,2.6637,2.6648,2.6964,2.6637,2.6483,2.6483,2.6483,2.6483,2.6483,2.6483,2.6483,2.6472,2.6801,2.7371,2.8176,2.9287,2.9792,2.9714,2.8937,2.9028,2.9702,2.8518,2.8096,2.7924,2.6543,2.6707,2.7522,2.6378,2.6224,2.6483,2.6483,2.6483,2.6483,2.6483,2.6483,2.6487,2.6439,2.6405,2.6417,2.6465,2.645,2.6415,2.6263,2.6764,2.7019,2.6206,2.71,2.7752,2.6651,2.7038,2.7381,2.6979,2.6791,2.6691,2.6691,2.6553,2.637,2.5887,2.5837,2.5686,2.531,2.5134,2.5034,2.5034,2.4908,2.482,2.482,2.482,2.482,2.482,2.482,2.482,2.482,2.482,2.482,2.482,2.482,2.5025,2.5409,2.6007,2.6512,1.4942,1.6654,1.8182,1.9061,1.9468,1.9819,2.0461,2.0262,2.0019,2.0536,2.0634,2.0634,2.0566,2.0576,2.0869,2.1728,2.1875,2.2168,2.2988,2.2744,2.2627,2.3057,2.2744,2.2656,2.3076,2.4125,2.4787,2.4787,2.5797,2.6964,2.8004,2.7046,2.6964,2.8004,2.7046,2.6483,2.6483,2.6483,2.6483,2.6483,2.6483,2.6483,2.6565,2.7602,2.8084,2.8176,2.9287,2.9792,2.9792,2.9792,2.9792,2.9702,2.8518,2.8096,2.7844,2.5619,2.5546,2.6389,2.521,2.5546,2.6483,2.6483,2.6483,2.6483,2.6483,2.6483,2.6719,2.7752,2.806,2.8311,2.9406,2.9651,2.9514,2.8963,2.8825,2.8675,2.8149,2.8036,2.8097,2.8011,2.8072,2.8072,2.8059,2.7607,2.7256,2.7256,2.6804,2.6521,2.6508,2.6496,2.6496,2.6483,2.59,2.5573,2.5573,2.5109,2.482,2.482,2.482,2.482,2.482,2.482,2.482,2.482,2.482,2.482,2.482,2.482,2.5512,2.6852,2.6839,2.7578,1.682,1.7765,1.9187,1.9273,1.9561,1.995,2.0513,2.0448,2.0391,2.0537,2.0332,2.0137,2.0137,2.0371,2.0762,2.1357,2.1934,2.25,2.3057,2.2783,2.2568,2.2705,2.2598,2.2568,2.2715,2.3961,2.5126,2.5891,2.6953,2.8028,2.9197,2.8882,2.887,2.9197,2.887,2.8712,2.8712,2.8712,2.8712,2.8712,2.8712,2.8712,2.8712,2.9028,2.9197,2.9275,2.9624,2.9792,2.9792,2.9792,2.9792,2.9792,2.9365,2.8767,2.8004,2.7256,2.6778,2.6318,2.521,2.5041,2.563,2.7116,2.7522,2.7695,2.8462,2.8712,2.8791,2.9118,2.9197,2.9287,2.9702,2.9792,2.9741,2.9553,2.9503,2.9453,2.9264,2.9227,2.9114,2.8725,2.8649,2.8536,2.8172,2.7946,2.7708,2.7344,2.6816,2.6533,2.6533,2.6533,2.6533,2.6533,2.6289,2.6163,2.6163,2.6013,2.5912,2.5912,2.5912,2.5912,2.5912,2.5912,2.5912,2.5912,2.5912,2.6155,2.6713,2.6713,2.7248,2.832,2.8886,2.9431,1.7546,1.8247,1.9303,1.9492,1.9834,2.0225,2.0498,2.0566,2.0518,2.0361,1.999,1.9697,1.9697,1.9795,2.0176,2.1084,2.1699,2.2314,2.3037,2.2783,2.2568,2.2715,2.2607,2.2568,2.2725,2.3961,2.5294,2.6389,2.7867,2.9028,2.9792,2.9792,2.9792,2.9792,2.9792,2.9792,2.9792,2.9792,2.9792,2.9792,2.9792,2.9792,2.9792,2.9792,2.9792,2.9792,2.9792,2.9792,2.9792,2.9792,2.9792,2.9792,2.9365,2.8767,2.8084,2.7683,2.7128,2.64,2.563,2.5378,2.5714,2.751,2.8096,2.8335,2.9443,2.9792,2.9792,2.9792,2.9792,2.9792,2.9792,2.9792,2.9792,2.9792,2.9792,2.9792,2.9792,2.9792,2.9679,2.9315,2.9239,2.9126,2.8775,2.8536,2.821,2.7657,2.7268,2.6904,2.6584,2.6533,2.6533,2.6533,2.6533,2.6533,2.6533,2.6533,2.6533,2.6533,2.6533,2.6533,2.6533,2.6782,2.6905,2.6905,2.7229,2.767,2.8182,2.8182,2.862,2.9504,3.0011,3.058,1.7278,1.8096,1.8926,1.9746,2.0254,2.0566,2.0566,2.0547,2.041,1.9971,1.9531,1.9209,1.917,1.8877,1.9189,2.0859,2.1211,2.1709,2.2959,2.2793,2.2695,2.3096,2.2783,2.2705,2.3096,2.4125,2.521,2.6307,2.8462,2.9702,2.9702,2.9792,2.9792,2.9792,2.9792,2.9792,2.9792,2.9792,2.9792,2.9792,2.9792,2.9792,2.9792,2.9792,2.9792,2.9792,2.9792,2.9792,2.9792,2.9792,2.9792,2.9702,2.8597,2.8176,2.8096,2.7046,2.6648,2.6648,2.6648,2.6648,2.6719,2.7855,2.8176,2.8426,2.9456,2.9792,2.9792,2.9792,2.9792,2.9792,2.9792,2.9792,2.9792,2.9792,2.9792,2.9792,2.9792,2.9792,2.9792,2.9792,2.9792,2.9792,2.9792,2.934,2.8787,2.8235,2.8147,2.7758,2.6747,2.6609,2.6609,2.6609,2.6609,2.6596,2.6571,2.6571,2.6615,2.6589,2.6589,2.6658,2.6658,2.7351,2.7802,2.7802,2.8556,2.9016,2.9107,2.9107,2.9574,3.0491,3.0491,3.1187,1.8793,1.9424,2.0127,2.0352,2.0478,2.0566,2.0566,2.0312,1.9961,1.9531,1.8857,1.8144,1.75,1.8076,1.8887,1.9658,2.0869,2.2051,2.3008,2.3047,2.3018,2.3125,2.3047,2.3018,2.3125,2.4125,2.4957,2.521,2.7267,2.8518,2.8518,2.9365,2.9792,2.9792,2.9792,2.9792,2.9792,2.9792,2.9792,2.9792,2.9792,2.9792,2.9792,2.9792,2.9792,2.9792,2.9792,2.9792,2.9792,2.9792,2.9792,2.9792,2.9456,2.9365,2.9365,2.904,2.8961,2.8961,2.8961,2.8371,2.7855,2.9028,2.9365,2.9456,2.9702,2.9792,2.9792,2.9792,2.9792,2.9792,2.9792,2.9792,2.9792,2.9792,2.9792,2.9792,2.9792,2.9792,2.9792,2.9792,2.9792,2.9792,2.9792,2.9666,2.9377,2.88,2.8725,2.8461,2.777,2.7682,2.7682,2.7682,2.7682,2.7519,2.7105,2.7644,2.7848,2.7443,2.7986,2.8363,2.8363,2.8556,2.8684,2.8684,2.8876,2.9526,3.0668,3.0668,3.1315,3.2657,3.2657,3.2883,1.957,2.0049,2.0566,2.0566,2.0566,2.042,1.9844,1.9678,1.9307,1.8115,1.749,1.6953,1.6279,1.6894,1.7832,1.8838,2.0303,2.167,2.2715,2.3027,2.3135,2.3135,2.3135,2.3135,2.3135,2.3714,2.4049,2.4049,2.6119,2.7371,2.7371,2.8039,2.8542,2.9028,2.9028,2.9275,2.9792,2.9792,2.9792,2.9792,2.9792,2.9792,2.9792,2.9792,2.9792,2.9792,2.9792,2.9792,2.9792,2.9792,2.9792,2.9792,2.9792,2.9792,2.9792,2.9792,2.9792,2.9792,2.9792,2.9365,2.8937,2.9611,2.9792,2.9792,2.9792,2.9792,2.9792,2.9792,2.9792,2.9792,2.9792,2.9792,2.9792,2.9792,2.9792,2.9792,2.9792,2.9792,2.9792,2.9792,2.9792,2.9792,2.9792,2.9792,2.9679,2.9365,2.9302,2.9202,2.8888,2.8411,2.8109,2.8109,2.8448,2.8582,2.8273,2.9088,2.947,2.916,2.9594,2.9854,2.9854,3.0241,3.0369,3.0369,3.0763,3.1387,3.2185,3.2185,3.2653,3.3499,3.3499,3.3649,1.9657,2.0197,2.0566,2.0566,2.0518,2.0176,1.8994,1.8887,1.8467,1.6537,1.6027,1.5742,1.5254,1.5654,1.6592,1.8213,1.96,2.0957,2.2324,2.2822,2.3076,2.3135,2.3135,2.3135,2.3135,2.3135,2.3135,2.3135,2.4893,2.6141,2.6307,2.6389,2.6964,2.7844,2.8016,2.8597,2.9534,2.9702,2.9792,2.9792,2.9792,2.9792,2.9792,2.9792,2.9792,2.9792,2.9792,2.9792,2.9792,2.9792,2.9792,2.9792,2.9792,2.9792,2.9792,2.9792,2.9792,2.9792,2.9792,2.9792,2.9792,2.9792,2.9792,2.9792,2.9792,2.9792,2.9792,2.9792,2.9792,2.9792,2.9792,2.9792,2.9792,2.9792,2.9792,2.9792,2.9792,2.9792,2.9792,2.9792,2.9792,2.9792,2.9792,2.9792,2.9792,2.9792,2.9792,2.9869,3.0011,2.9138,2.853,2.853,2.9347,2.9847,2.9781,3.0719,3.123,3.1146,3.1264,3.1331,3.1331,3.2012,3.2347,3.2347,3.3084,3.3544,3.3619,3.3619,3.3679,3.3769,3.3769,3.4068,1.9063,1.9866,2.0566,2.0566,2.0293,1.9873,1.9307,1.8418,0.0,1.6351,1.5557,1.4766,1.3984,1.5059,1.6396,1.7432,1.8965,2.0605,2.2275,2.2578,2.2754,2.3096,2.3135,2.3135,2.3135,2.3135,2.3135,2.3135,2.3474,2.4135,2.5041,2.5975,2.6565,2.6801,2.7614,2.8176,2.8426,2.9365,2.9792,2.9792,2.9792,2.9792,2.9792,2.9792,2.9792,2.9792,2.9792,2.9792,2.9792,2.9792,2.9792,2.9792,2.9792,2.9792,2.9792,2.9792,2.9792,2.9792,2.9792,2.9792,2.9792,2.9792,2.9792,2.9792,2.9792,2.9792,2.9792,2.9792,2.9792,2.9792,2.9792,2.9792,2.9792,2.9792,2.9792,2.9792,2.9792,2.9792,2.9792,2.9792,2.9792,2.9792,2.9792,2.9792,2.9792,2.9792,2.9792,3.0075,3.0833,3.0786,3.0668,3.0668,3.1505,3.1871,3.1447,3.2185,3.252,3.204,3.2679,3.3084,3.3084,3.3223,3.3285,3.3285,3.3423,3.3769,3.4307,3.4307,3.4607,3.516,3.516,3.522,1.8205,1.9353,2.0489,1.9923,1.9841,1.957,1.8262,0.0,0.0,1.4766,1.4258,1.3926,1.3301,1.4209,1.5342,1.6221,1.7617,1.9277,2.123,2.1699,2.2168,2.3037,2.3135,2.3135,2.3135,2.3135,2.3135,2.3135,2.3135,2.3299,2.3887,2.52,2.5936,2.5936,2.7009,2.7462,2.729,2.7799,2.8371,2.8937,2.8937,2.9197,2.9792,2.9792,2.9792,2.9792,2.9792,2.9792,2.9792,2.9792,2.9792,2.9792,2.9792,2.9792,2.9792,2.9792,2.9792,2.9792,2.9792,2.9792,2.9792,2.9792,2.9792,2.9792,2.9792,2.9792,2.9792,2.9792,2.9792,2.9792,2.9792,2.9792,2.9792,2.9792,3.0139,3.0419,2.9934,3.057,3.1132,3.062,3.0908,3.1132,3.0633,3.0558,3.0558,3.0558,3.0558,3.0833,3.1829,3.2321,3.2464,3.196,3.2749,3.3184,3.297,3.381,3.4265,3.3942,3.4327,3.4532,3.4532,3.4532,3.4532,3.4532,3.4532,3.4696,3.5011,3.5011,3.519,3.5504,3.5504,3.5504,1.7544,1.8885,2.0079,1.952,1.9544,1.9268,1.7314,1.665,0.0,1.3486,1.3203,1.3271,1.2939,1.3496,1.4253,0.0,1.6445,1.8018,2.0254,2.0947,2.1709,2.2988,2.3135,2.3135,2.3135,2.3135,2.3135,2.3135,2.3223,2.3281,2.3281,2.4462,2.5176,2.5073,2.6174,2.6543,2.6141,2.6389,2.7046,2.8096,2.8096,2.8597,2.9443,2.9702,2.9702,2.9456,2.9702,2.9792,2.9792,2.9792,2.9792,2.9792,2.9792,2.9792,2.9792,2.9792,2.9792,2.9792,2.9792,2.9792,2.9792,2.9792,2.9792,2.9792,2.9792,2.9792,2.9792,2.9792,2.9792,2.9792,2.9792,2.9792,2.9869,3.0075,3.062,3.1044,3.0495,3.1549,3.2393,3.1683,3.2105,3.2393,3.1609,3.1536,3.1536,3.1536,3.1536,3.1815,3.282,3.3518,3.3808,3.3255,3.3891,3.4312,3.4312,3.5052,3.5504,3.5504,3.5504,3.5504,3.5504,3.5504,3.5504,3.5504,3.5504,3.5504,3.5504,3.5504,3.5504,3.5504,3.5504,3.5504,1.7692,1.8677,1.9362,2.0235,1.9876,1.8994,1.7627,0.0,1.5137,1.374,1.3174,1.293,1.2891,1.3262,1.3965,1.5205,0.0,1.7676,2.0215,2.0947,2.1709,2.2988,2.3135,2.3135,2.3135,2.3135,2.3135,2.3135,2.3506,2.373,2.373,2.4212,2.4362,2.3978,2.4985,2.5356,2.4967,2.5964,2.7046,2.8096,2.8096,2.8164,2.8267,2.9365,2.9197,2.8335,2.9365,2.9792,2.9792,2.9792,2.9792,2.9792,2.9792,2.9792,2.9792,2.9792,2.9792,2.9792,2.9792,2.9792,2.9792,2.9792,2.9792,2.9792,2.9792,2.9792,2.9792,2.9792,2.9792,2.9792,2.9792,2.9792,2.9998,3.0833,3.1106,3.1389,3.2177,3.2464,3.2593,3.2464,3.2522,3.2593,3.2464,3.2464,3.2464,3.2464,3.2464,3.282,3.3739,3.3959,3.4327,3.5148,3.5294,3.5359,3.5359,3.5439,3.5504,3.5504,3.5504,3.5504,3.5504,3.5504,3.5504,3.5504,3.5504,3.5504,3.5504,3.5504,3.5504,3.5504,3.5504,3.5504,1.6773,1.7995,1.8761,1.9149,1.9077,1.8486,1.6943,1.5781,1.4678,1.3389,1.2998,1.2881,1.2881,1.3018,1.3467,0.0,1.4941,1.5986,1.832,1.9238,2.0244,2.1807,2.2451,2.2861,2.3115,2.3135,2.3135,2.3135,2.3779,2.417,2.417,2.457,2.5089,2.5635,2.5361,2.54,2.5714,2.519,2.539,2.6477,2.6252,2.6449,2.7128,2.7637,2.7947,2.8096,2.8597,2.9197,2.9792,2.9792,2.9792,2.9792,2.9792,2.9792,2.9792,2.9792,2.9792,2.9792,2.9792,2.9792,2.9792,2.9792,2.9792,2.9792,2.9792,2.9792,2.9792,2.9792,2.9792,2.9792,2.9792,3.0203,3.0908,3.1829,3.2464,3.282,3.2664,3.3533,3.4192,3.3533,3.3891,3.4124,3.3533,3.3449,3.3449,3.3449,3.3449,3.3822,3.4773,3.4905,3.5067,3.5439,3.5504,3.5504,3.5504,3.5504,3.5504,3.5504,3.5504,3.5504,3.5504,3.5504,3.5504,3.5504,3.5504,3.5504,3.5504,3.5504,3.5504,3.5504,3.5504,3.5504,1.6444,1.769,1.8343,1.857,1.8493,1.8027,1.6426,1.54,1.4424,1.3145,1.2881,1.2881,1.2881,1.2881,1.3115,0.0,1.416,1.5088,1.7266,1.8301,1.9473,2.1221,2.1963,2.249,2.291,2.3066,2.3193,2.332,2.3896,2.4346,2.459,2.4902,2.553,2.6341,2.5521,2.5252,2.5547,2.4496,2.4535,2.5722,2.5177,2.5687,2.6964,2.6964,2.7371,2.8096,2.8438,2.9028,2.9792,2.9792,2.9792,2.9792,2.9792,2.9792,2.9792,2.9792,2.9792,2.9792,2.9792,2.9792,2.9792,2.9792,2.9792,2.9792,2.9792,2.9792,2.9792,2.9792,2.9998,3.0216,3.0216,3.0908,3.1815,3.282,3.3518,3.3891,3.3547,3.4558,3.5279,3.461,3.4986,3.5279,3.4543,3.4461,3.4461,3.4461,3.4461,3.4691,3.5439,3.5504,3.5504,3.5504,3.5504,3.5504,3.5504,3.5504,3.5504,3.5504,3.5504,3.5504,3.5504,3.5504,3.5504,3.5504,3.5504,3.5504,3.5504,3.5504,3.5504,3.5504,3.5504,3.5504,1.7338,1.7844,1.7933,1.8995,1.8652,1.7676,1.6357,1.54,1.4424,1.3145,1.2881,1.2881,1.2881,1.2881,1.3018,1.3447,1.4228,1.5537,1.7695,1.874,1.9932,2.167,2.1885,2.206,2.248,2.2891,2.332,2.375,2.3789,2.417,2.5019,2.5068,2.5068,2.5163,2.5068,2.4658,2.3799,2.4199,2.5112,2.6494,2.5701,2.6341,2.8084,2.8084,2.8096,2.8176,2.9275,2.9792,2.9792,2.9792,2.9792,2.9792,2.9792,2.9792,2.9792,2.9792,2.9792,2.9792,2.9792,2.9792,2.9792,2.9792,2.9792,2.9792,2.9792,2.9792,2.9792,2.9792,3.0482,3.118,3.118,3.1888,3.282,3.3739,3.4027,3.4245,3.5279,3.5504,3.5504,3.5504,3.5504,3.5504,3.5504,3.5504,3.5504,3.5504,3.5504,3.5504,3.5504,3.5504,3.5504,3.5504,3.5504,3.5504,3.5504,3.5504,3.5504,3.5504,3.5504,3.5504,3.5504,3.5504,3.5504,3.5504,3.5504,3.5504,3.5504,3.5504,3.5504,3.5504,3.5504,3.5504,1.5942,1.6224,1.5887,1.6886,1.665,1.5967,1.4971,1.4316,1.3711,1.3027,1.2881,1.2881,1.2881,1.2881,1.3311,1.46,0.0,0.0,1.7744,1.8994,2.0029,2.0879,2.2021,2.2793,2.293,2.3057,2.3193,2.333,2.3623,2.3906,2.418,2.4463,2.5119,2.6331,2.6249,2.6318,2.6582,2.6399,2.6508,2.6881,2.6378,2.6451,2.7046,2.7046,2.7452,2.8096,2.8505,2.9106,2.9792,2.9792,2.9792,2.9792,2.9792,2.9792,2.9792,2.9792,2.9792,2.9792,2.9792,2.9792,2.9792,2.9792,2.9792,2.9792,2.9792,2.9792,2.9934,3.0558,3.097,3.1536,3.282,3.331,3.3822,3.4773,3.5052,3.5133,3.5424,3.5504,3.5504,3.5504,3.5504,3.5504,3.5504,3.5504,3.5504,3.5504,3.5504,3.5504,3.5504,3.5504,3.5504,3.5504,3.5504,3.5504,3.5504,3.5504,3.5504,3.5504,3.5504,3.5504,3.5504,3.5504,3.5504,3.5504,3.5504,3.5504,3.5504,3.5504,3.5504,3.5504,3.5504,3.5504,0.0,1.5267,1.5079,1.5691,1.5488,1.499,1.4233,1.3809,1.3389,1.2969,1.2881,1.2881,1.2881,1.2881,1.3281,1.4492,1.4961,1.5781,1.7529,1.8877,2.0019,2.0957,2.2148,2.29,2.29,2.3047,2.3135,2.3135,2.3389,2.3613,2.3779,2.4043,2.4836,2.6271,2.6438,2.6832,2.7573,2.7439,2.7363,2.7492,2.6975,2.7065,2.7718,2.729,2.7695,2.8767,2.8767,2.9106,0.0,2.9792,2.9792,2.9792,2.9792,2.9792,2.9792,2.9792,2.9792,2.9792,2.9792,2.9792,2.9792,2.9792,2.9792,2.9792,2.9792,2.9792,2.9934,3.0482,3.0895,3.1462,3.2664,3.3449,3.4177,3.4773,3.5213,3.5504,3.5504,3.5504,3.5504,3.5504,3.5504,3.5504,3.5504,3.5504,3.5504,3.5504,3.5504,3.5504,3.5504,3.5504,3.5504,3.5504,3.5504,3.5504,3.5504,3.5504,3.5504,3.5504,3.5504,3.5504,3.5504,3.5504,3.5504,3.5504,3.5504,3.5504,3.5504,3.5504,3.5504,3.5504,3.5504,3.5504,0.0,1.4863,1.5195,1.5225,1.4941,1.4541,1.4141,1.374,0.0,1.2959,1.2881,1.29,1.2959,1.2939,1.3105,1.3643,1.4424,1.5566,1.7275,1.8643,2.0098,2.1777,2.2324,2.2559,2.2559,2.291,2.3135,2.3135,2.3135,2.332,2.3721,2.374,2.4256,2.5284,2.5878,2.6496,2.7144,2.7581,2.7939,2.8187,2.7587,2.8163,2.9792,2.8688,2.8767,2.9792,2.9792,2.9792,2.9792,2.9792,2.9792,2.9792,2.9792,2.9792,2.9792,2.9792,2.9792,2.9792,2.9792,2.9792,2.9792,2.9792,2.9792,2.9792,2.9792,2.9792,2.9869,2.9934,3.0633,3.1315,3.1462,3.282,3.4095,3.4095,3.4839,3.5504,3.5504,3.5504,3.5504,3.5504,3.5504,3.5504,3.5504,3.5504,3.5504,3.5504,3.5504,3.5504,3.5504,3.5504,3.5504,3.5504,3.5504,3.5504,3.5504,3.5504,3.5504,3.5504,3.5504,3.5504,3.5504,3.5504,3.5504,3.5504,3.5504,3.5504,3.5504,3.5504,3.5504,3.5504,3.5504,3.5504,1.2135,0.0,1.3057,1.3389,1.3398,1.3301,0.0,1.3096,1.2998,0.0,0.0,1.3076,1.3721,1.3574,1.3936,1.5693,1.6426,1.7256,1.8643,2.0244,2.166,2.2715,2.293,2.2988,2.2988,2.3076,2.3135,2.3135,2.3135,2.3184,2.3291,2.3291,2.3797,2.4869,2.5912,2.6846,2.787,2.8831,2.9364,2.9365,2.9253,2.9411,2.9792,2.9534,2.9534,2.9792,2.9792,2.9792,2.9792,2.9792,2.9792,2.9792,2.9792,2.9792,2.9792,2.9792,2.9792,2.9792,2.9792,2.9792,2.9792,2.9792,2.9792,2.9792,2.9792,2.9792,3.0075,3.1549,3.2105,3.2607,3.4124,3.4854,3.5133,3.5133,3.5359,3.5504,3.5504,3.5504,3.5504,3.5504,3.5504,3.5504,3.5504,3.5504,3.5504,3.5504,3.5504,3.5504,3.5504,3.5504,3.5504,3.5504,3.5504,3.5504,3.5504,3.5504,3.5504,3.5504,3.5504,3.5504,3.5504,3.5504,3.5504,3.5504,3.5504,3.5504,3.5504,3.5504,3.5504,3.5504,3.5504,3.5504,1.1143,1.1885,1.2588,1.2822,1.3027,1.3164,1.3164,0.0,0.0,0.0,0.0,1.3076,1.373,1.3818,1.4375,1.6143,1.6963,1.8037,1.9912,2.1328,2.2412,2.3057,2.3135,2.3135,2.3135,2.3135,2.3135,2.3135,2.3135,2.3135,2.3135,2.3135,2.3887,2.5546,2.6141,2.7046,2.8096,2.9197,2.9792,2.9792,2.9792,2.9792,2.9792,2.9792,2.9792,2.9792,2.9792,2.9792,2.9792,2.9792,2.9792,2.9792,2.9792,2.9792,2.9792,2.9792,2.9792,2.9792,2.9792,2.9792,2.9792,2.9792,2.9792,2.9792,2.9792,2.9792,2.9998,3.1071,3.1341,3.1563,3.2648,3.3492,3.4192,3.4192,3.4854,3.5504,3.5504,3.5504,3.5504,3.5504,3.5504,3.5504,3.5504,3.5504,3.5504,3.5504,3.5504,3.5504,3.5504,3.5504,3.5504,3.5504,3.5504,3.5504,3.5504,3.5504,3.5504,3.5504,3.5504,3.5504,3.5504,3.5504,3.5504,3.5504,3.5504,3.5504,3.5504,3.5504,3.5504,3.5504,3.5504,3.5504,1.0879,1.1924,1.2861,1.2803,1.3145,1.3486,1.3428,0.0,0.0,0.0,0.0,0.0,0.0,1.4102,1.4824,1.6064,1.7109,1.8623,2.1084,2.2051,2.2666,2.3086,2.3135,2.3135,2.3135,2.3135,2.3135,2.3135,2.3135,2.3135,2.3135,2.3135,2.4059,2.6141,2.6389,2.7046,2.8096,2.9197,2.9792,2.9792,2.9792,2.9792,2.9792,2.9792,2.9792,2.9792,2.9792,2.9792,2.9792,2.9792,2.9792,2.9792,2.9792,2.9792,2.9792,2.9792,2.9792,2.9792,2.9792,2.9792,2.9792,2.9792,2.9792,2.9792,2.9792,2.9792,2.9792,2.9792,2.9934,3.0075,3.0216,3.1415,3.2593,3.2593,3.3837,3.5067,3.5067,3.5067,3.5067,3.5213,3.5279,3.5294,3.5504,3.5504,3.5504,3.5504,3.5504,3.5504,3.5504,3.5504,3.5504,3.5504,3.5504,3.5504,3.5504,3.5504,3.5504,3.5504,3.5504,3.5504,3.5504,3.5504,3.5504,3.5504,3.5504,3.5504,3.5504,3.5359,3.5279,3.5279,3.5279,3.5279,1.1292,1.2204,1.2793,1.2422,1.292,1.3418,1.3057,0.0,0.0,0.0,0.0,0.0,0.0,1.5234,1.6074,1.7031,1.8496,2.0176,2.2051,2.2432,2.2666,2.3086,2.3135,2.3135,2.3135,2.3135,2.3135,2.3135,2.3135,2.3135,2.3135,2.3135,2.3714,2.5041,2.5975,2.7046,2.8096,2.9197,2.9792,2.9792,2.9792,2.9792,2.9792,2.9792,2.9792,2.9792,2.9792,2.9792,2.9792,2.9792,2.9792,2.9792,2.9792,2.9792,2.9792,2.9792,2.9792,2.9792,2.9792,2.9792,2.9792,2.9792,2.9792,2.9792,2.9792,2.9792,2.9792,2.9792,3.0343,3.1193,3.196,3.2393,3.2593,3.2593,3.282,3.3031,3.3031,3.3031,3.3255,3.4109,3.4245,3.4476,3.5359,3.5504,3.5504,3.5504,3.5504,3.5504,3.5504,3.5504,3.5504,3.5504,3.5504,3.5504,3.5504,3.5504,3.5504,3.5504,3.5504,3.5504,3.5504,3.5504,3.5504,3.5504,3.5504,3.5504,3.5504,3.4624,3.4245,3.4245,3.4245,3.4245,1.0802,1.168,1.248,1.2229,1.3223,1.4092,1.3662,0.0,0.0,0.0,0.0,0.0,0.0,1.6182,1.7285,1.8848,2.0255,2.15,2.2393,2.2705,2.292,2.3115,2.3135,2.3135,2.3135,2.3135,2.3135,2.3135,2.3135,2.3135,2.3135,2.3714,2.4553,2.5714,2.6789,2.7867,2.9028,2.9534,2.9792,2.9792,2.9792,2.9792,2.9792,2.9792,2.9792,2.9792,2.9792,2.9792,2.9792,2.9792,2.9792,2.9792,2.9792,2.9792,2.9792,2.9792,2.9792,2.9792,2.9792,2.9792,2.9792,2.9792,2.9792,2.9792,2.9792,2.9792,2.9792,2.9792,3.0139,3.0558,3.0996,3.1476,3.1815,3.1815,3.2249,3.2593,3.2593,3.2593,3.2749,3.3171,3.3671,3.4177,3.461,3.5133,3.5504,3.5504,3.5504,3.5504,3.5504,3.5504,3.5504,3.5504,3.5504,3.5504,3.5504,3.5504,3.5504,3.5504,3.5504,3.5504,3.5504,3.5504,3.5504,3.5504,3.4986,3.4691,3.4691,3.3754,3.3241,3.3241,3.3241,3.3241,1.0567,1.1387,1.2209,1.2353,0.0,1.4453,1.4316,0.0,0.0,0.0,0.0,0.0,0.0,1.7021,1.8369,2.042,2.1496,2.2213,2.2627,2.2939,2.3135,2.3135,2.3135,2.3135,2.3135,2.3135,2.3135,2.3135,2.3135,2.3135,2.3135,2.4211,2.5294,2.6472,2.7522,2.8688,2.9792,2.9792,2.9792,2.9792,2.9792,2.9792,2.9792,2.9792,2.9792,2.9792,2.9792,2.9792,2.9792,2.9792,2.9792,2.9792,2.9792,2.9792,2.9792,2.9792,2.9792,2.9792,2.9792,2.9792,2.9792,2.9792,2.9792,2.9792,2.9792,2.9792,2.9792,2.9792,2.9792,2.9792,2.9792,3.0355,3.0908,3.0908,3.1402,3.1974,3.1974,3.1974,3.2046,3.2249,3.3031,3.3739,3.3959,3.4839,3.5504,3.5504,3.5504,3.5504,3.5504,3.5504,3.5504,3.5504,3.5504,3.5504,3.5504,3.5504,3.5504,3.5504,3.5504,3.5504,3.5504,3.5279,3.5133,3.5133,3.4177,3.3671,3.3671,3.2749,3.2249,3.2249,3.2249,3.2249,1.1292,1.1846,1.2278,1.2734,0.0,0.0,1.4561,1.4736,0.0,1.5801,0.0,0.0,0.0,1.7705,1.9156,2.1005,2.1418,2.1858,2.2892,2.3125,2.3135,2.3135,2.3135,2.3135,2.3135,2.3135,2.3135,2.3135,2.3135,2.3135,2.3135,2.4211,2.5294,2.6472,2.7522,2.8688,2.9792,2.9792,2.9792,2.9792,2.9792,2.9792,2.9792,2.9792,2.9792,2.9792,2.9792,2.9792,2.9792,2.9792,2.9792,2.9792,2.9792,2.9792,2.9792,2.9792,2.9792,2.9792,2.9792,2.9792,2.9792,2.9792,2.9792,2.9792,2.9792,2.9792,2.9792,2.9792,2.9792,2.9792,2.9792,2.9869,2.9934,2.9934,2.9934,2.9998,2.9998,2.9998,3.0292,3.1106,3.2033,3.2961,3.3876,3.4839,3.5504,3.5504,3.5504,3.5504,3.5504,3.5504,3.5504,3.5504,3.5504,3.5504,3.5504,3.5504,3.5504,3.5504,3.5504,3.5504,3.5504,3.461,3.4095,3.4095,3.3171,3.2678,3.2678,3.1742,3.1315,3.1315,3.1315,3.1315,1.0705,1.1484,1.2219,1.2432,0.0,0.0,0.0,1.541,1.624,1.71,1.7744,0.0,0.0,1.915,2.009,2.078,2.1812,2.2595,2.3066,2.3135,2.3135,2.3135,2.3135,2.3135,2.3135,2.3135,2.3135,2.3135,2.3135,2.3135,2.3135,2.4211,2.5041,2.5462,2.7186,2.8347,2.8767,2.9456,2.9792,2.9792,2.9792,2.9792,2.9792,2.9792,2.9792,2.9792,2.9792,2.9792,2.9792,2.9792,2.9792,2.9792,2.9792,2.9792,2.9792,2.9792,2.9792,2.9792,2.9792,2.9792,2.9792,2.9792,2.9792,2.9792,2.9792,2.9792,2.9792,2.9792,2.9792,2.9792,2.9792,2.9792,2.9792,2.9792,2.9792,2.9792,2.9792,2.9792,2.9934,3.0279,3.1549,3.2749,3.3101,3.4476,3.5504,3.5504,3.5504,3.5504,3.5504,3.5504,3.5504,3.5504,3.5504,3.5504,3.5504,3.5504,3.5504,3.5504,3.5504,3.5504,3.5504,3.4543,3.4027,3.4027,3.2536,3.1742,3.1742,3.0771,3.0355,3.0355,3.0355,3.0355,1.0459,1.1338,1.2219,0.0,0.0,0.0,0.0,1.6094,1.7217,1.8203,1.8643,1.9014,1.959,1.9932,2.0246,2.0889,2.1943,2.2843,2.3066,2.3135,2.3135,2.3135,2.3135,2.3135,2.3135,2.3135,2.3135,2.3135,2.3135,2.3135,2.3135,2.4211,2.4787,2.4787,2.6614,2.7602,2.7602,2.8688,2.9275,2.9275,2.9624,2.9792,2.9792,2.9792,2.9792,2.9792,2.9792,2.9792,2.9792,2.9792,2.9792,2.9792,2.9792,2.9792,2.9792,2.9792,2.9792,2.9792,2.9792,2.9792,2.9792,2.9792,2.9792,2.9792,2.9792,2.9792,2.9792,2.9792,2.9792,2.9792,2.9792,2.9792,2.9792,2.9792,2.9792,2.9792,2.9792,2.9792,2.9792,2.9792,3.1341,3.2593,3.2593,3.4192,3.5504,3.5504,3.5504,3.5504,3.5504,3.5504,3.5504,3.5504,3.5504,3.5504,3.5504,3.5504,3.5504,3.5504,3.5213,3.5133,3.5504,3.4259,3.3533,3.3533,3.1683,3.0758,3.0771,3.0139,2.9792,2.9792,2.9792,2.9792,1.0791,1.1553,1.2334,0.0,0.0,0.0,1.5929,1.6748,1.7754,1.9033,1.9297,1.9561,2.04,1.9664,1.956,2.1582,2.1885,2.2187,2.3018,2.3135,2.3135,2.3135,2.3135,2.3135,2.3135,2.3135,2.3135,2.3135,2.3135,2.3135,2.3135,2.4211,2.4787,2.4787,2.5891,2.6483,2.6483,2.7522,2.8096,2.8096,2.9275,2.9792,2.9792,2.9792,2.9792,2.9792,2.9792,2.9792,2.9792,2.9792,2.9792,2.9792,2.9792,2.9792,2.9792,2.9792,2.9792,2.9792,2.9792,2.9792,2.9792,2.9792,2.9792,2.9792,2.9792,2.9792,2.9792,2.9792,2.9792,2.9792,2.9792,2.9792,2.9792,2.9792,2.9792,2.9792,2.9792,2.9792,2.9792,2.9792,3.1341,3.2593,3.2593,3.4192,3.5504,3.5504,3.5504,3.5504,3.5504,3.5504,3.5504,3.5504,3.5504,3.5504,3.5504,3.5504,3.5504,3.5504,3.4543,3.4461,3.5424,3.3616,3.2593,3.2593,3.0784,2.9792,2.9792,2.9792,2.9792,2.9792,2.9792,2.9792,1.1034,1.1794,0.0,1.286,0.0,0.0,0.0,1.7207,0.0,0.0,2.0185,2.0156,2.0012,2.0041,2.0256,2.088,2.2004,2.2848,2.3037,2.3135,2.3135,2.3135,2.3135,2.3135,2.3135,2.3135,2.3135,2.3135,2.3135,2.3135,2.3135,2.3377,2.3627,2.3627,2.4713,2.5714,2.6483,2.7522,2.8518,2.9275,2.9624,2.9792,2.9792,2.9792,2.9792,2.9792,2.9792,2.9792,2.9792,2.9792,2.9792,2.9792,2.9792,2.9792,2.9792,2.9792,2.9792,2.9792,2.9792,2.9792,2.9792,2.9792,2.9792,2.9792,2.9792,2.9792,2.9792,2.9792,2.9792,2.9792,2.9792,2.9792,2.9792,2.9792,2.9792,2.9792,2.9792,2.9792,2.9792,2.9792,3.1341,3.2593,3.2593,3.4192,3.5504,3.5504,3.5504,3.5504,3.5504,3.5504,3.5504,3.5504,3.5504,3.5504,3.5504,3.5504,3.5213,3.4461,3.4177,3.4095,3.4394,3.2607,3.1609,3.1609,3.0419,2.9792,2.9792,2.9792,2.9792,2.9792,2.9792,2.9792,1.142,1.2278,0.0,1.3186,1.4443,1.5918,1.6865,0.0,0.0,0.0,2.042,2.0177,2.008,1.9822,1.9792,2.0499,2.2008,2.3061,2.312,2.3122,2.3085,2.3125,2.3135,2.3135,2.3135,2.3135,2.3135,2.3135,2.3135,2.3135,2.3135,2.3135,2.3135,2.3135,2.4211,2.5126,2.5797,2.736,2.8426,2.9106,2.9611,2.9792,2.9792,2.9792,2.9792,2.9792,2.9792,2.9792,2.9792,2.9792,2.9792,2.9792,2.9792,2.9792,2.9792,2.9792,2.9792,2.9792,2.9792,2.9792,2.9792,2.9792,2.9792,2.9792,2.9792,2.9792,2.9792,2.9792,2.9792,2.9792,2.9792,2.9792,2.9792,2.9792,2.9792,2.9792,2.9792,2.9792,2.9792,2.9792,3.0983,3.2177,3.2522,3.3891,3.5052,3.5439,3.5504,3.5504,3.5504,3.5504,3.5504,3.5504,3.5504,3.5504,3.5504,3.5504,3.5067,3.4095,3.3671,3.331,3.289,3.1815,3.118,3.118,3.0279,2.9792,2.9792,2.9792,2.9792,2.9792,2.9792,2.9792,1.1836,0.0,0.0,1.3644,1.4954,0.0,1.8213,1.8906,1.9517,2.0322,2.009,1.9858,2.0478,1.9325,1.8755,2.0362,2.189,2.2869,2.3008,2.3033,2.3077,2.3057,2.3096,2.3105,2.3135,2.3135,2.3135,2.3135,2.3135,2.3135,2.3135,2.3135,2.3135,2.3212,2.4296,2.4872,2.5115,2.7105,2.8176,2.8255,2.9275,2.9792,2.9792,2.9792,2.9792,2.9792,2.9792,2.9792,2.9792,2.9792,2.9792,2.9792,2.9792,2.9792,2.9792,2.9792,2.9792,2.9792,2.9792,2.9792,2.9792,2.9792,2.9792,2.9792,2.9792,2.9792,2.9792,2.9792,2.9792,2.9792,2.9792,2.9792,2.9792,2.9792,2.9792,2.9792,2.9792,2.9792,2.9792,2.9792,3.0558,3.1536,3.2464,3.338,3.4327,3.5359,3.5504,3.5504,3.5504,3.5504,3.5504,3.5504,3.5439,3.5424,3.5504,3.5359,3.4839,3.3945,3.2961,3.2033,3.1106,3.1031,3.1031,3.1031,3.0203,2.9792,2.9792,2.9792,2.9792,2.9792,2.9792,2.9792,1.1664,1.2613,0.0,0.0,1.5303,1.7125,1.791,1.8587,1.9163,1.973,1.9781,1.9858,2.0478,2.0275,2.0178,2.0528,2.0922,2.1416,2.2056,2.2689,2.3086,2.3067,2.3107,2.312,2.3115,2.3135,2.3135,2.3135,2.3135,2.3135,2.3135,2.3135,2.3551,2.4372,2.4702,2.5608,2.7348,2.7844,2.8518,2.9443,2.9702,2.9792,2.9792,2.9792,2.9792,2.9792,2.9792,2.9792,2.9792,2.9792,2.9792,2.9792,2.9792,2.9792,2.9792,2.9792,2.9792,2.9792,2.9792,2.9792,2.9792,2.9792,2.9792,2.9792,2.9792,2.9792,2.9792,2.9792,2.9792,2.9792,2.9792,2.9792,2.9792,2.9792,2.9792,2.9792,2.9792,2.9792,2.9792,2.9792,3.0558,3.1536,3.2464,3.338,3.4327,3.5359,3.5504,3.5504,3.5504,3.5504,3.5504,3.5504,3.4758,3.461,3.5424,3.4124,3.3101,3.289,3.2033,3.1119,3.0139,3.0075,3.0075,3.0075,2.9934,2.9792,2.9792,2.9792,2.9792,2.9792,2.9792,2.9792,1.1719,0.0,0.0,1.4744,0.0,1.759,1.7935,1.8875,1.9557,1.9013,1.9518,2.0256,2.0549,2.0582,2.0613,2.0634,2.0603,2.0748,2.1202,2.1673,2.1883,2.1885,2.2928,2.3805,2.4168,2.4294,2.4398,2.4713,2.4723,2.4723,2.4723,2.4723,2.4978,2.5641,2.6119,2.693,2.8096,2.8597,2.9197,2.9792,2.9792,2.9792,2.9792,2.9792,2.9792,2.9792,2.9792,2.9792,2.9792,2.9792,2.9792,2.9792,2.9792,2.9792,2.9792,2.9792,2.9792,2.9792,2.9792,2.9792,2.9792,2.9792,2.9792,2.9792,2.9792,2.9792,2.9792,2.9792,2.9792,2.9792,2.9792,2.9792,2.9792,2.9792,2.9792,2.9792,2.9792,2.9792,2.9792,2.9792,3.0216,3.0983,3.2393,3.3754,3.4905,3.5424,3.5504,3.5504,3.5504,3.5504,3.5504,3.5504,3.461,3.4245,3.4758,3.3463,3.2393,3.196,3.1462,3.0758,2.9869,2.9792,2.9792,2.9792,2.9792,2.9792,2.9792,2.9792,2.9792,2.9792,2.9792,2.9792,1.1726,0.0,1.3955,1.5696,1.7076,0.0,1.8716,1.9576,1.9931,1.9044,1.9541,2.0481,2.1417,2.1066,2.0607,2.0602,2.0564,2.0595,2.0564,2.0613,2.0632,2.0601,2.3002,2.4944,2.5529,2.5665,2.5914,2.6192,2.6293,2.6349,2.6349,2.6427,2.6554,2.6801,2.7614,2.8176,2.8426,2.9365,2.9792,2.9792,2.9792,2.9792,2.9792,2.9792,2.9792,2.9792,2.9792,2.9792,2.9792,2.9792,2.9792,2.9792,2.9792,2.9792,2.9792,2.9792,2.9792,2.9792,2.9792,2.9792,2.9792,2.9792,2.9792,2.9792,2.9792,2.9792,2.9792,2.9792,2.9792,2.9792,2.9792,2.9792,2.9792,2.9792,2.9792,2.9792,2.9792,2.9792,2.9792,2.9792,3.0075,3.0784,3.2321,3.4192,3.5504,3.5504,3.5504,3.5504,3.5504,3.5359,3.5213,3.5213,3.4192,3.3602,3.3739,3.2749,3.1815,3.1254,3.1044,3.062,2.9869,2.9792,2.9792,2.9792,2.9792,2.9792,2.9792,2.9792,2.9792,2.9792,2.9792,2.9792,0.0,0.0,1.3419,0.0,1.6791,1.8791,0.0,2.0308,1.9141,2.1859,2.0227,1.9876,2.4791,2.2905,2.0586,2.0592,2.0569,2.0579,2.0629,2.0639,2.0591,2.0569,2.393,2.6205,2.632,2.6355,2.6005,2.5127,2.5496,2.573,2.573,2.6237,2.6964,2.7844,2.8016,2.8597,2.9534,2.9702,2.9792,2.9792,2.9792,2.9792,2.9792,2.9792,2.9792,2.9792,2.9792,2.9792,2.9792,2.9792,2.9792,2.9792,2.9792,2.9792,2.9792,2.9792,2.9792,2.9792,2.9792,2.9792,2.9792,2.9792,2.9792,2.9792,2.9792,2.9792,2.9792,2.9792,2.9792,2.9792,2.9792,2.9792,2.9792,2.9792,2.9792,2.9792,2.9792,2.9792,2.9792,2.9792,3.1132,3.2321,3.2522,3.4192,3.5504,3.5504,3.5504,3.5504,3.5504,3.4758,3.4177,3.4177,3.2593,3.1888,3.2749,3.1206,3.0495,3.118,3.0419,2.9934,2.9792,2.9792,2.9792,2.9792,2.9792,2.9792,2.9792,2.9792,2.9792,2.9792,2.9792,2.9792,1.1855,1.2463,1.371,0.0,1.7197,1.7205,1.9678,2.0554,2.1308,2.28,2.1928,2.1638,2.4106,2.4229,2.3886,2.389,2.3899,2.3895,2.392,2.3869,2.3943,2.392,2.5477,2.6517,2.6502,2.6514,2.6536,2.6677,2.6904,2.6959,2.6959,2.7263,2.7637,2.8108,2.8096,2.8348,2.885,2.9151,2.9478,2.9792,2.9792,2.9792,2.9792,2.9792,2.9792,2.9792,2.9792,2.9792,2.9792,2.9792,2.9792,2.9792,2.9792,2.9792,2.9792,2.9792,2.9792,2.9792,2.9792,2.9792,2.9792,2.9792,2.9792,2.9792,2.9792,2.9792,2.9792,2.9792,2.9792,2.9792,2.9792,2.9792,2.9792,2.9792,2.9792,2.9792,2.9792,2.9792,2.9792,2.9792,3.0908,3.196,3.2536,3.3754,3.4839,3.5439,3.5504,3.5504,3.5504,3.461,3.4027,3.4027,3.2321,3.1389,3.1742,3.0558,3.0011,3.0419,2.9998,2.9792,2.9792,2.9792,2.9792,2.9792,2.9792,2.9792,2.9792,2.9792,2.9792,2.9792,2.9792,2.9792,0.0,0.0,1.4492,1.7357,1.7258,1.6667,0.0,2.0344,2.3077,2.3115,2.3072,2.3069,2.3115,2.4468,2.5665,2.564,2.6124,2.6478,2.6513,2.6467,2.6502,2.647,2.6516,2.6503,2.6478,2.6478,2.6856,2.7645,2.7821,2.7896,2.7896,2.8034,2.8109,2.8109,2.8109,2.8109,2.8109,2.8511,2.9001,2.9578,2.9578,2.9654,2.9792,2.9792,2.9792,2.9792,2.9792,2.9792,2.9792,2.9792,2.9792,2.9792,2.9792,2.9792,2.9792,2.9792,2.9792,2.9792,2.9792,2.9792,2.9792,2.9792,2.9792,2.9792,2.9792,2.9792,2.9792,2.9792,2.9792,2.9792,2.9792,2.9792,2.9792,2.9792,2.9792,2.9792,2.9792,2.9792,2.9792,2.9792,3.0558,3.1389,3.2105,3.3031,3.4041,3.5294,3.5279,3.5213,3.5439,3.461,3.3876,3.3671,3.2177,3.1106,3.0833,3.0216,2.9792,2.9792,2.9792,2.9792,2.9792,2.9792,2.9792,2.9792,2.9792,2.9792,2.9792,2.9792,2.9792,2.9792,2.9792,2.9792,0.0,1.4709,0.0,1.3762,1.6451,1.8867,1.6159,1.9455,2.3085,2.3122,2.3083,2.3081,2.309,2.3195,2.3303,2.3272,2.5062,2.6496,2.6521,2.6519,2.6515,2.649,2.649,2.649,2.649,2.649,2.6502,2.6609,2.703,2.7318,2.7318,2.7821,2.8109,2.8109,2.8109,2.8109,2.8109,2.8134,2.8423,2.8976,2.8976,2.9264,2.9792,2.9792,2.9792,2.9792,2.9792,2.9792,2.9792,2.9792,2.9792,2.9792,2.9792,2.9792,2.9792,2.9792,2.9792,2.9792,2.9792,2.9792,2.9792,2.9792,2.9792,2.9792,2.9792,2.9792,2.9792,2.9792,2.9792,2.9792,2.9792,2.9792,2.9792,2.9792,2.9792,2.9792,2.9792,2.9792,2.9792,2.9792,3.0558,3.1254,3.1241,3.2033,3.3325,3.5213,3.4691,3.4394,3.5359,3.461,3.3671,3.2749,3.1815,3.0833,2.9934,2.9869,2.9792,2.9792,2.9792,2.9792,2.9792,2.9792,2.9792,2.9792,2.9792,2.9792,2.9792,2.9792,2.9792,2.9792,2.9792,2.9792,0.0,0.0,0.0,1.5089,1.6463,1.7795,1.815,1.9641,2.1008,2.0957,2.2107,2.3119,2.3121,2.3128,2.3121,2.3067,2.3801,2.4809,2.6297,2.6517,2.6473,2.6531,2.6489,2.6498,2.6508,2.6533,2.6533,2.6533,2.671,2.6753,2.6753,2.6942,2.7055,2.7055,2.7055,2.7218,2.757,2.7582,2.7858,2.8398,2.8398,2.8511,2.8725,2.9076,2.9038,2.875,2.9478,2.9792,2.9792,2.9792,2.9792,2.9792,2.9792,2.9792,2.9792,2.9792,2.9792,2.9792,2.9792,2.9792,2.9792,2.9792,2.9792,2.9792,2.9792,2.9792,2.9792,2.9792,2.9792,2.9792,2.9792,2.9792,2.9792,2.9792,3.0444,3.0934,3.0771,3.0203,2.9792,2.9792,3.0558,3.1389,3.196,3.289,3.3959,3.5294,3.5213,3.5067,3.5424,3.461,3.3671,3.2678,3.1742,3.0833,2.9856,2.9792,2.9792,2.9792,2.9792,2.9792,2.9792,2.9792,2.9792,2.9792,2.9792,2.9792,2.9792,2.9792,2.9792,2.9792,2.9792,2.9792,1.08,0.0,0.0,0.0,1.5942,1.6891,1.8383,1.867,1.8908,1.9648,2.0952,2.1982,2.1992,2.1988,2.2266,2.2946,2.3121,2.3616,2.5154,2.5371,2.5394,2.5388,2.5684,2.5848,2.5745,2.5757,2.5857,2.6151,2.6163,2.6319,2.6521,2.6533,2.6533,2.6533,2.6533,2.6697,2.7005,2.7005,2.7281,2.7821,2.7821,2.7921,2.8122,2.8486,2.8448,2.8147,2.89,2.9227,2.9252,2.9628,2.9679,2.9528,2.9716,2.9792,2.9792,2.9792,2.9792,2.9792,2.9792,2.9792,2.9792,2.9792,2.9792,2.9792,2.9792,2.9792,2.9792,2.9792,2.9792,2.9792,2.9792,2.9998,3.0355,3.0633,3.1429,3.1915,3.1756,3.1193,3.0709,3.0709,3.1267,3.1888,3.2464,3.3101,3.3754,3.4409,3.4773,3.4986,3.4986,3.4394,3.3671,3.2678,3.1742,3.0833,2.9856,2.9792,2.9792,2.9792,2.9792,2.9792,2.9792,2.9792,2.9792,2.9792,2.9792,2.9792,2.9792,2.9792,2.9792,2.9792,2.9792,2.9792,0.0,0.0,0.0,0.0,1.4839,1.6467,1.6404,1.6471,1.7088,1.9271,1.9736,1.9805,1.9824,1.9777,2.0499,2.2661,2.303,2.3108,2.3108,2.3074,2.3087,2.3099,2.407,2.4616,2.4273,2.4196,2.4598,2.5523,2.5573,2.5824,2.6445,2.6496,2.6496,2.6496,2.6521,2.6533,2.6533,2.6533,2.6728,2.7256,2.7256,2.7544,2.8059,2.8072,2.8072,2.8059,2.8097,2.8084,2.8147,2.9277,2.9415,2.8963,2.9528,2.9741,2.9741,2.9741,2.9741,2.9741,2.9767,2.9767,2.9767,2.9779,2.9792,2.9792,2.9792,2.9792,2.9792,2.9792,2.9792,2.9792,2.9869,3.0482,3.1462,3.2393,3.2593,3.2593,3.2664,3.2664,3.2664,3.2593,3.2593,3.2664,3.2664,3.2678,3.2678,3.2678,3.3449,3.4027,3.4027,3.4027,3.3671,3.2678,3.1742,3.0833,2.9856,2.9792,2.9792,2.9792,2.9792,2.9792,2.9792,2.9792,2.9792,2.9792,2.9792,2.9792,2.9792,2.9792,2.9792,2.9792,2.9792,2.9792,1.0662,0.0,0.0,0.0,0.0,0.0,1.4477,1.5369,1.668,1.7275,1.8701,1.9808,1.9788,1.9768,1.9998,2.0623,2.2058,2.309,2.309,2.308,2.3133,2.3118,2.3828,2.4418,2.4591,2.4628,2.4768,2.5021,2.5034,2.5109,2.5272,2.5636,2.5837,2.5837,2.6239,2.6533,2.6533,2.6533,2.6596,2.6691,2.6691,2.6766,2.6929,2.7331,2.7293,2.6967,2.7758,2.7657,2.7005,2.8109,2.8473,2.8348,2.8511,2.8574,2.8574,2.8574,2.8574,2.8624,2.9026,2.9164,2.9239,2.9654,2.9792,2.9792,2.9792,2.9792,2.9792,2.9792,2.9792,2.9934,3.062,3.1044,3.1462,3.2393,3.2593,3.282,3.3449,3.4177,3.4274,3.289,3.3171,3.3602,3.3602,3.4192,3.4706,3.4706,3.492,3.5067,3.5067,3.4461,3.3671,3.2678,3.1742,3.0833,2.9856,2.9792,2.9792,2.9792,2.9792,2.9792,2.9792,2.9792,2.9792,2.9792,2.9792,2.9792,2.9792,2.9792,2.9792,2.9792,2.9792,2.9792,1.1038,1.0611,0.0,1.1056,0.0,0.0,1.3476,1.4189,1.5134,1.5109,1.6903,1.8428,1.8445,1.9181,1.9775,1.9797,2.0885,2.1724,2.1718,2.2138,2.2468,2.2627,2.3092,2.3613,2.4067,2.4117,2.4217,2.4456,2.4481,2.4569,2.4808,2.5109,2.5272,2.5272,2.5812,2.6101,2.6101,2.6339,2.6533,2.6533,2.6533,2.6533,2.6533,2.6791,2.6766,2.6559,2.7143,2.7055,2.6584,2.7155,2.7557,2.7783,2.8009,2.8109,2.8109,2.8109,2.8109,2.8147,2.8473,2.8586,2.8637,2.8976,2.9089,2.9126,2.9365,2.9428,2.9478,2.9729,2.9792,2.9998,3.097,3.1462,3.2033,3.2961,3.3533,3.3973,3.4543,3.5067,3.5133,3.4041,3.4259,3.4624,3.4624,3.5133,3.5213,3.4409,3.4624,3.4558,3.3837,3.3185,3.2593,3.2105,3.1193,3.0419,2.9869,2.9792,2.9792,2.9792,2.9792,2.9792,2.9792,2.9792,2.9792,2.9792,2.9792,2.9792,2.9792,2.9792,2.9792,2.9792,2.9792,2.9792,1.3297,1.2309,0.0,1.308,1.3582,0.0,1.326,1.3397,1.3572,1.3553,1.5133,1.6524,1.6513,1.81,1.9452,1.9441,1.9636,1.9778,1.978,2.0686,2.1469,2.1861,2.2056,2.2435,2.2987,2.2977,2.3288,2.3866,2.3904,2.4117,2.4607,2.4695,2.4732,2.4732,2.5234,2.5511,2.5511,2.6013,2.637,2.6433,2.6433,2.6471,2.6533,2.6533,2.6533,2.6533,2.6533,2.6533,2.6533,2.6533,2.6753,2.7243,2.7733,2.7921,2.7921,2.7921,2.7921,2.7934,2.7996,2.8009,2.8021,2.8084,2.8109,2.8197,2.8687,2.8837,2.8938,2.9465,2.9718,3.005,3.0878,3.1775,3.2664,3.3602,3.4543,3.5213,3.5213,3.5279,3.5294,3.5213,3.5359,3.5504,3.5504,3.5439,3.4773,3.3031,3.338,3.3241,3.1609,3.1241,3.118,3.118,3.0343,2.9792,2.9792,2.9792,2.9792,2.9792,2.9792,2.9792,2.9792,2.9792,2.9792,2.9792,2.9792,2.9792,2.9792,2.9792,2.9792,2.9792,2.9792,2.9792,1.773,1.6866,1.5325,1.5747,1.5865,0.0,1.3616,1.4587,1.5864,1.5862,1.6213,1.6507,1.6504,1.6861,1.713,1.7122,1.8659,1.9813,1.9822,1.9994,2.039,2.1057,2.1456,2.187,2.2422,2.2472,2.2698,2.3263,2.3314,2.3351,2.3464,2.3904,2.4167,2.4167,2.4695,2.4971,2.4971,2.5084,2.5347,2.5774,2.5774,2.6013,2.6533,2.6533,2.6533,2.6533,2.6533,2.6533,2.6533,2.6533,2.6596,2.6697,2.6741,2.6779,2.6779,2.6779,2.6779,2.6841,2.7293,2.7444,2.7519,2.7959,2.8109,2.8122,2.8235,2.8273,2.8285,2.8398,2.933,3.0328,3.0533,3.0983,3.1669,3.2664,3.3031,3.3185,3.3185,3.3754,3.4109,3.3325,3.4409,3.5504,3.5504,3.4839,3.4177,3.3808,3.3241,3.2749,3.2393,3.1669,3.118,3.118,3.0343,2.9792,2.9792,2.9792,2.9792,2.9792,2.9792,2.9792,2.9792,2.9792,2.9792,2.9792,2.9792,2.9792,2.9792,2.9792,2.9792,2.9792,2.9792,2.9792,1.9336,1.8916,1.8086,1.809,1.7302,0.0,0.0,1.4853,1.5184,1.6271,1.5607,1.4846,1.485,1.5761,1.6519,1.6492,1.7446,1.8261,1.8646,1.9344,2.0035,2.074,2.0974,2.1292,2.1845,2.1895,2.2133,2.2686,2.2723,2.2849,2.3065,2.3414,2.3565,2.3565,2.4117,2.4406,2.4406,2.4682,2.4946,2.5209,2.5209,2.536,2.5636,2.5636,2.5787,2.6025,2.6025,2.6189,2.6533,2.6533,2.6533,2.6533,2.6533,2.6533,2.6533,2.6533,2.6533,2.6571,2.6848,2.6866,2.6917,2.7193,2.7281,2.7331,2.7607,2.7883,2.8109,2.8109,2.8651,2.922,2.922,2.9986,3.0904,3.1397,3.2031,3.2593,3.2593,3.2961,3.3171,3.2678,3.3394,3.4056,3.4056,3.3616,3.3171,3.2664,3.2177,3.1756,3.1267,3.0771,3.0482,3.0482,3.0075,2.9792,2.9792,2.9792,2.9792,2.9792,2.9792,2.9792,2.9792,2.9792,2.9792,2.9792,2.9792,2.9792,2.9792,2.9792,2.9792,2.9792,2.9792,2.9792,1.9692,1.9683,1.9685,1.9682,1.8408,1.7098,0.0,0.0,0.0,1.6138,1.5094,1.3719,1.3276,1.4659,1.5929,1.6148,1.6386,1.6696,1.7291,1.8585,1.966,2.0137,2.024,2.0451,2.1104,2.1267,2.1556,2.2121,2.2058,2.2284,2.2937,2.2975,2.2965,2.3078,2.359,2.3841,2.3841,2.4268,2.4556,2.4669,2.4669,2.472,2.482,2.482,2.5059,2.5448,2.5548,2.5862,2.637,2.6483,2.6533,2.6533,2.6533,2.6533,2.6533,2.6533,2.6533,2.6533,2.6533,2.6533,2.6533,2.6533,2.6533,2.6609,2.6979,2.7444,2.7783,2.7783,2.7871,2.7946,2.7946,2.892,3.0013,3.0118,3.1186,3.2184,3.2092,3.2177,3.2249,3.2119,3.2046,3.2177,3.2522,3.2464,3.2105,3.1315,3.1044,3.062,2.9856,2.9792,2.9792,2.9792,2.9792,2.9792,2.9792,2.9792,2.9792,2.9792,2.9792,2.9792,2.9792,2.9792,2.9792,2.9792,2.9792,2.9792,2.9792,2.9792,2.9792,2.9792,2.9792,2.9792,1.97,1.9723,1.9713,1.9677,1.9505,1.9351,1.9328,0.0,1.62,1.6459,0.0,1.5514,1.3545,0.0,0.0,1.4935,1.5897,1.651,1.6629,1.7618,1.8405,1.848,1.848,1.8882,1.9899,2.0451,2.0991,2.1543,2.1129,2.1305,2.2347,2.2397,2.2636,2.3053,2.3201,2.3226,2.3226,2.3228,2.359,2.4092,2.4092,2.4343,2.482,2.482,2.4858,2.4933,2.5398,2.5636,2.5737,2.6319,2.6533,2.6533,2.6533,2.6533,2.6533,2.6533,2.6533,2.6533,2.6533,2.6533,2.6533,2.6533,2.6533,2.6533,2.6596,2.6603,2.6653,2.6653,2.7005,2.7369,2.7369,2.7855,2.8457,2.8949,2.9904,3.0526,3.0177,3.0771,3.1106,3.0292,3.0152,3.0633,3.2321,3.1888,3.1315,3.1254,3.0482,2.9934,2.9792,2.9792,2.9792,2.9792,2.9792,2.9792,2.9792,2.9792,2.9792,2.9792,2.9792,2.9792,2.9792,2.9792,2.9792,2.9792,2.9792,2.9792,2.9792,2.9792,2.9792,2.9792,2.9792,2.9792,1.9377,1.9708,1.9679,1.9723,1.9708,1.9701,1.9723,1.902,1.8375,1.8351,0.0,0.0,0.0,0.0,0.0,0.0,1.4286,1.4799,1.5464,1.5969,1.6748,1.8053,1.8204,1.838,1.8832,1.9095,1.9472,2.0024,2.0125,2.0514,2.1317,2.1656,2.2083,2.2636,2.2661,2.2811,2.3078,2.3078,2.3263,2.3502,2.3502,2.3627,2.3779,2.3779,2.4029,2.4356,2.4569,2.4858,2.5172,2.541,2.5511,2.5536,2.5837,2.6163,2.6533,2.6533,2.6533,2.6533,2.6533,2.6533,2.6533,2.6533,2.6533,2.6533,2.6533,2.6533,2.6533,2.6533,2.6697,2.6804,2.6804,2.7218,2.7682,2.7921,2.8743,2.95,2.9303,2.9821,3.0279,2.9869,2.9792,3.0075,3.0846,3.0633,3.0419,3.0419,3.0075,2.9792,2.9792,2.9792,2.9792,2.9792,2.9792,2.9792,2.9792,2.9792,2.9792,2.9792,2.9792,2.9792,2.9792,2.9792,2.9792,2.9792,2.9792,2.9792,2.9792,2.9792,2.9792,2.9792,2.9792,2.9792,1.8411,1.9272,1.9685,1.9713,1.969,1.972,1.9693,1.9708,1.97,1.9701,1.9713,0.0,0.0,0.0,1.6637,0.0,0.0,1.4473,1.4927,1.5031,1.5678,1.73,1.779,1.7978,1.7978,1.7978,1.8204,1.8769,1.9007,1.9522,2.0388,2.0815,2.1355,2.2071,2.2234,2.2498,2.2912,2.3002,2.3078,2.3078,2.3078,2.3078,2.3078,2.3078,2.3364,2.3766,2.3929,2.423,2.4607,2.4757,2.482,2.4858,2.5234,2.5724,2.6239,2.6471,2.6533,2.6533,2.6533,2.6533,2.6533,2.6533,2.6533,2.6533,2.6533,2.6533,2.6533,2.6533,2.6533,2.6533,2.6533,2.6753,2.7092,2.7256,2.7896,2.8511,2.8674,2.9038,2.9377,2.9528,2.9553,2.9603,2.9767,2.9792,2.9792,2.9792,2.9792,2.9792,2.9792,2.9792,2.9792,2.9792,2.9792,2.9792,2.9792,2.9792,2.9792,2.9792,2.9792,2.9792,2.9792,2.9792,2.9792,2.9792,2.9792,2.9792,2.9792,2.9792,2.9792,2.9792,2.9792,2.9792,1.6602,1.8106,1.9685,1.9713,1.969,1.9687,1.9691,1.9688,1.9705,1.9705,1.9694,1.9692,1.9625,1.9589,0.0,0.0,0.0,0.0,0.0,1.5407,1.5568,1.5746,1.6735,1.7413,1.7413,1.7413,1.7639,1.8191,1.7752,1.8154,1.9748,1.9849,2.0363,2.1481,2.2033,2.2322,2.2334,2.2874,2.3078,2.3078,2.3078,2.3078,2.3078,2.3078,2.3078,2.3128,2.3753,2.4004,2.4067,2.4607,2.482,2.482,2.4845,2.5159,2.5686,2.6251,2.6533,2.6533,2.6533,2.6533,2.6533,2.6533,2.6533,2.6533,2.6533,2.6533,2.6533,2.6533,2.6533,2.6533,2.6533,2.6546,2.6697,2.7155,2.7306,2.7482,2.8009,2.8147,2.8323,2.885,2.895,2.9139,2.9691,2.9792,2.9792,2.9792,2.9792,2.9792,2.9792,2.9792,2.9792,2.9792,2.9792,2.9792,2.9792,2.9792,2.9792,2.9792,2.9792,2.9792,2.9792,2.9792,2.9792,2.9792,2.9792,2.9792,2.9792,2.9792,2.9792,2.9792,2.9792,2.9792,1.6504,1.7021,1.792,1.9363,1.8394,1.7576,1.931,1.9713,1.969,1.969,1.9713,1.9715,1.9715,1.9696,0.0,0.0,0.0,0.0,0.0,1.5408,1.5367,1.5425,1.5929,1.612,1.5797,1.6384,1.6735,1.6559,1.7061,1.7626,1.8166,1.8894,1.9623,2.0351,2.0928,2.1393,2.1757,2.2309,2.2585,2.2585,2.2902,2.3078,2.3078,2.3078,2.3078,2.3078,2.3339,2.3427,2.3439,2.3627,2.3641,2.3679,2.4117,2.4381,2.4644,2.5548,2.6138,2.6533,2.6533,2.6533,2.6533,2.6533,2.6533,2.6533,2.6533,2.6533,2.6533,2.6533,2.6533,2.6533,2.6533,2.6533,2.6584,2.676,2.7017,2.7331,2.7519,2.7846,2.816,2.8348,2.8386,2.8448,2.8649,2.9154,2.9632,2.9743,2.9792,2.9792,2.9792,2.9792,2.9792,2.9792,2.9792,2.9792,2.9792,2.9792,2.9792,2.9792,2.9792,2.9792,2.9792,2.9792,2.9792,2.9792,2.9792,2.9792,2.9792,2.9792,2.9792,2.9792,2.9792,2.9792,1.6477,1.6488,1.6831,1.823,1.7297,1.6669,1.9147,1.9701,1.9685,1.9705,1.969,1.969,1.969,1.9697,0.0,0.0,0.0,0.0,0.0,1.5277,1.518,1.5015,1.5365,1.5554,1.5401,1.5642,1.5922,1.6232,1.6548,1.6964,1.7638,1.8324,1.8982,1.951,2.0275,2.0894,2.1192,2.1744,2.202,2.202,2.2573,2.2836,2.2849,2.2977,2.3078,2.3078,2.3078,2.3078,2.3078,2.3078,2.3078,2.3115,2.3552,2.3816,2.4104,2.4996,2.5674,2.6151,2.6151,2.6289,2.6533,2.6533,2.6533,2.6533,2.6533,2.6533,2.6533,2.6533,2.6533,2.6533,2.6533,2.6533,2.6533,2.6533,2.6728,2.7119,2.7385,2.7736,2.8113,2.8575,2.8685,2.875,2.8944,2.9451,2.9852,2.9995,3.0274,3.055,3.0758,3.0784,3.0784,3.0784,3.0784,3.0784,3.0784,3.0495,3.0279,3.0279,2.9998,2.9792,2.9792,2.9792,2.9792,2.9792,2.9792,2.9792,2.9792,2.9792,2.9792,2.9792,2.9792,2.9792]},{"header":{"parameterUnit":"m.s-1","parameterCategory":1,"la1":30.6,"la2":29.2853,"lo1":-89.7004,"lo2":-87.6739,"dy":0.0162,"dx":0.0183,"nx":112,"ny":82,"refTime":"2024-08-13T06:00:00:Z","depth":0,"parameterNumber":3,"parameterNumberName":"V-component_of_WINDS"},"data":[0.0,0.0,0.0,0.0,0.0,0.0,0.0,0.0,0.0,0.0,0.0,0.0,0.0,0.0,0.0,0.0,0.0,0.0,0.0,0.0,0.0,0.0,0.0,0.0,0.0,0.0,0.0,0.0,0.0,0.0,0.0,0.0,0.0,0.0,0.0,0.0,0.0,0.0,0.0,0.0,0.0,0.0,0.0,0.0,0.0,0.0,0.0,0.0,0.0,0.0,0.0,0.0,0.0,0.0,0.0,0.0,0.0,0.0,0.0,0.0,0.0,0.0,0.0,0.0,0.0,0.0,0.0,0.0,0.0,0.0,0.0,0.0,0.0,0.0,0.0,0.0,0.0,0.0,0.0,0.0,0.0,0.0,0.0,0.0,0.0,0.0,0.0,0.0,0.0,0.0,-1.5036,-1.6782,-1.7325,-1.7463,-1.7312,-1.6879,-1.5648,-1.3336,0.0,0.0,0.0,0.0,0.0,0.0,0.0,0.0,0.0,0.0,0.0,0.0,0.0,0.0,0.0,0.0,0.0,0.0,0.0,0.0,0.0,0.0,0.0,0.0,0.0,0.0,0.0,0.0,0.0,0.0,0.0,0.0,0.0,0.0,0.0,0.0,0.0,0.0,0.0,0.0,0.0,0.0,0.0,0.0,0.0,0.0,0.0,0.0,0.0,0.0,0.0,0.0,0.0,0.0,0.0,0.0,0.0,0.0,0.0,0.0,0.0,0.0,0.0,0.0,0.0,0.0,0.0,0.0,0.0,0.0,0.0,0.0,0.0,0.0,0.0,0.0,0.0,0.0,0.0,0.0,0.0,0.0,0.0,0.0,0.0,0.0,0.0,0.0,0.0,0.0,0.0,0.0,0.0,0.0,0.0,0.0,0.0,0.0,0.0,0.0,0.0,0.0,0.0,0.0,-1.646,-1.8876,-1.884,-1.8302,-1.7394,-1.7229,-1.6022,-1.337,0.0,0.0,0.0,0.0,0.0,0.0,0.0,0.0,0.0,0.0,0.0,0.0,0.0,0.0,0.0,0.0,0.0,0.0,0.0,0.0,0.0,0.0,0.0,0.0,0.0,0.0,0.0,0.0,0.0,0.0,0.0,0.0,0.0,0.0,0.0,0.0,0.0,0.0,0.0,0.0,0.0,0.0,0.0,0.0,0.0,0.0,0.0,0.0,0.0,0.0,0.0,0.0,0.0,0.0,0.0,0.0,0.0,0.0,0.0,0.0,0.0,0.0,0.0,0.0,0.0,0.0,0.0,0.0,0.0,0.0,0.0,0.0,0.0,0.0,0.0,0.0,0.0,0.0,0.0,0.0,0.0,0.0,0.0,0.0,0.0,0.0,0.0,0.0,0.0,0.0,0.0,0.0,0.0,0.0,0.0,0.0,0.0,0.0,0.0,0.0,0.0,0.0,0.0,-1.583,-1.7527,-1.9466,-1.9192,-1.8574,-1.7787,-1.7463,-1.614,-1.337,-1.219,0.0,0.0,0.0,0.0,0.0,0.0,0.0,0.0,0.0,0.0,0.0,0.0,0.0,0.0,0.0,0.0,0.0,0.0,0.0,0.0,0.0,0.0,0.0,0.0,0.0,0.0,0.0,0.0,0.0,0.0,0.0,0.0,0.0,0.0,0.0,0.0,0.0,0.0,0.0,0.0,0.0,0.0,0.0,0.0,0.0,0.0,0.0,0.0,0.0,0.0,0.0,0.0,0.0,0.0,0.0,0.0,0.0,0.0,0.0,0.0,0.0,0.0,0.0,0.0,0.0,0.0,0.0,0.0,0.0,0.0,0.0,0.0,0.0,0.0,0.0,0.0,0.0,0.0,0.0,0.0,0.0,0.0,0.0,0.0,0.0,0.0,0.0,0.0,0.0,0.0,0.0,0.0,0.0,0.0,0.0,0.0,0.0,0.0,0.0,0.0,0.0,0.0,-1.778,-1.8637,-1.9867,-1.9464,-1.8817,-1.8185,-1.749,-1.5994,-1.3358,-1.1939,0.0,0.0,0.0,0.0,0.0,0.0,0.0,0.0,0.0,0.0,0.0,0.0,0.0,0.0,0.0,0.0,0.0,0.0,0.0,0.0,0.0,0.0,0.0,0.0,0.0,0.0,0.0,0.0,0.0,0.0,0.0,0.0,0.0,0.0,0.0,0.0,0.0,0.0,0.0,0.0,0.0,0.0,0.0,0.0,0.0,0.0,0.0,0.0,0.0,0.0,0.0,0.0,0.0,0.0,0.0,0.0,0.0,0.0,0.0,0.0,0.0,0.0,0.0,0.0,0.0,0.0,0.0,0.0,0.0,0.0,0.0,0.0,0.0,0.0,0.0,0.0,0.0,0.0,0.0,0.0,0.0,0.0,0.0,0.0,0.0,0.0,0.0,0.0,0.0,0.0,0.0,0.0,0.0,0.0,0.0,0.0,0.0,0.0,0.0,0.0,0.0,0.0,-1.8898,-2.0034,-2.0814,-2.0139,-1.9207,-1.8185,-1.7144,-1.5603,-1.3342,-1.1211,0.0,0.0,0.0,0.0,0.0,0.0,0.0,0.0,0.0,0.0,0.0,0.0,0.0,0.0,0.0,0.0,0.0,0.0,0.0,0.0,0.0,0.0,0.0,0.0,0.0,0.0,0.0,0.0,0.0,0.0,0.0,0.0,0.0,0.0,0.0,0.0,0.0,0.0,0.0,0.0,0.0,0.0,0.0,0.0,0.0,0.0,0.0,0.0,0.0,0.0,0.0,0.0,0.0,0.0,0.0,0.0,0.0,0.0,0.0,0.0,0.0,0.0,0.0,0.0,0.0,0.0,0.0,0.0,0.0,0.0,0.0,0.0,0.0,0.0,0.0,0.0,0.0,0.0,0.0,0.0,0.0,0.0,0.0,0.0,0.0,0.0,0.0,0.0,0.0,0.0,0.0,0.0,0.0,0.0,0.0,0.0,0.0,0.0,0.0,0.0,0.0,0.0,-1.8464,-1.956,-2.0473,-2.0035,-1.9281,-1.8185,-1.773,-1.6258,-1.338,0.0,0.0,0.0,0.0,0.0,0.0,0.0,0.0,0.0,0.0,0.0,0.0,0.0,0.0,0.0,0.0,0.0,0.0,0.0,0.0,0.0,0.0,0.0,0.0,0.0,0.0,0.0,0.0,0.0,0.0,0.0,0.0,0.0,0.0,0.0,0.0,0.0,0.0,0.0,0.0,0.0,0.0,0.0,0.0,0.0,0.0,0.0,0.0,0.0,0.0,0.0,0.0,0.0,0.0,0.0,0.0,0.0,0.0,0.0,0.0,0.0,0.0,0.0,0.0,0.0,0.0,0.0,0.0,0.0,0.0,0.0,0.0,0.0,0.0,0.0,0.0,0.0,0.0,0.0,0.0,0.0,0.0,0.0,0.0,0.0,0.0,0.0,0.0,0.0,0.0,0.0,0.0,0.0,0.0,0.0,0.0,0.0,0.0,0.0,0.0,0.0,0.0,-1.6928,-1.8543,-1.9703,-2.0239,-1.9929,-1.9281,-1.8185,-1.7785,-1.6339,-1.338,0.0,0.0,0.0,0.0,0.0,0.0,0.0,0.0,0.0,0.0,0.0,0.0,0.0,0.0,0.0,0.0,0.0,0.0,0.0,0.0,0.0,0.0,0.0,0.0,0.0,0.0,0.0,0.0,0.0,0.0,0.0,0.0,0.0,0.0,0.0,0.0,0.0,0.0,0.0,0.0,0.0,0.0,0.0,0.0,0.0,0.0,0.0,0.0,0.0,0.0,0.0,0.0,0.0,0.0,0.0,0.0,0.0,0.0,0.0,0.0,0.0,0.0,0.0,0.0,0.0,0.0,0.0,0.0,0.0,0.0,0.0,0.0,0.0,0.0,0.0,0.0,0.0,0.0,0.0,0.0,0.0,0.0,0.0,0.0,0.0,0.0,0.0,0.0,0.0,0.0,0.0,0.0,0.0,0.0,0.0,0.0,0.0,0.0,0.0,0.0,0.0,0.0,-1.706,-1.9438,-2.0829,-2.0348,-1.9929,-1.9281,-1.8224,-1.7112,-1.5556,0.0,0.0,0.0,0.0,0.0,0.0,0.0,0.0,0.0,0.0,0.0,0.0,0.0,0.0,0.0,0.0,0.0,0.0,0.0,0.0,0.0,0.0,0.0,0.0,0.0,0.0,0.0,0.0,0.0,0.0,0.0,0.0,0.0,0.0,0.0,0.0,0.0,0.0,0.0,0.0,0.0,0.0,0.0,0.0,0.0,0.0,0.0,0.0,0.0,0.0,0.0,0.0,0.0,0.0,0.0,0.0,0.0,0.0,0.0,0.0,0.0,0.0,0.0,0.0,0.0,0.0,0.0,0.0,0.0,0.0,0.0,0.0,0.0,0.0,0.0,0.0,0.0,0.0,0.0,0.0,0.0,0.0,0.0,0.0,0.0,0.0,0.0,0.0,0.0,0.0,0.0,0.0,0.0,0.0,0.0,0.0,0.0,0.0,0.0,0.0,0.0,0.0,0.0,-1.706,-1.9438,-2.0829,-2.0348,-1.9929,-1.9406,-1.8727,-1.8044,-1.6514,-1.3933,0.0,0.0,0.0,0.0,0.0,0.0,0.0,0.0,0.0,0.0,0.0,0.0,0.0,0.0,0.0,0.0,0.0,0.0,0.0,0.0,0.0,0.0,0.0,0.0,0.0,0.0,0.0,0.0,0.0,0.0,0.0,0.0,0.0,0.0,0.0,0.0,0.0,0.0,0.0,0.0,0.0,0.0,0.0,0.0,0.0,0.0,0.0,0.0,0.0,0.0,0.0,0.0,0.0,0.0,0.0,0.0,0.0,0.0,0.0,0.0,0.0,0.0,0.0,0.0,0.0,0.0,0.0,0.0,0.0,0.0,0.0,0.0,0.0,0.0,0.0,0.0,0.0,0.0,0.0,0.0,0.0,0.0,0.0,0.0,0.0,0.0,0.0,0.0,0.0,0.0,0.0,0.0,0.0,0.0,0.0,0.0,0.0,0.0,0.0,0.0,0.0,0.0,-1.6783,-1.9142,-2.055,-2.0089,-1.9839,-1.9479,-1.8968,-1.8419,-1.703,-1.4466,0.0,0.0,0.0,0.0,0.0,0.0,0.0,0.0,0.0,0.0,0.0,0.0,0.0,0.0,0.0,0.0,0.0,0.0,0.0,0.0,0.0,0.0,0.0,0.0,0.0,0.0,0.0,0.0,0.0,0.0,0.0,0.0,0.0,0.0,0.0,0.0,0.0,0.0,0.0,0.0,0.0,0.0,0.0,0.0,0.0,0.0,0.0,0.0,0.0,0.0,0.0,0.0,0.0,0.0,0.0,0.0,0.0,0.0,0.0,0.0,0.0,0.0,0.0,0.0,0.0,0.0,0.0,0.0,0.0,0.0,0.0,0.0,0.0,0.0,0.0,0.0,0.0,0.0,0.0,0.0,0.0,0.0,0.0,0.0,0.0,0.0,0.0,0.0,0.0,0.0,0.0,0.0,0.0,0.0,0.0,0.0,0.0,0.0,0.0,0.0,0.0,0.0,-1.6428,-1.8749,-2.0158,-1.9747,-1.969,-1.9479,-1.9006,-1.8458,-1.7194,-1.5087,0.0,0.0,0.0,0.0,0.0,0.0,0.0,0.0,0.0,0.0,0.0,0.0,0.0,0.0,0.0,0.0,0.0,0.0,0.0,0.0,0.0,0.0,0.0,0.0,0.0,0.0,0.0,0.0,0.0,0.0,0.0,0.0,0.0,0.0,0.0,0.0,0.0,0.0,0.0,0.0,0.0,0.0,0.0,0.0,0.0,0.0,0.0,0.0,0.0,0.0,0.0,0.0,0.0,0.0,0.0,0.0,0.0,0.0,0.0,0.0,-1.6035,-1.5359,0.0,0.0,0.0,0.0,0.0,0.0,0.0,0.0,0.0,0.0,0.0,0.0,0.0,0.0,0.0,0.0,0.0,0.0,0.0,0.0,0.0,0.0,0.0,0.0,0.0,0.0,0.0,0.0,0.0,0.0,0.0,0.0,0.0,0.0,0.0,0.0,0.0,0.0,0.0,0.0,-1.6861,-1.8934,-2.0158,-1.9747,-1.969,-1.9639,-1.953,-1.865,-1.7526,-1.6221,-1.4193,0.0,0.0,0.0,0.0,0.0,0.0,0.0,0.0,0.0,0.0,0.0,0.0,0.0,0.0,0.0,0.0,0.0,0.0,0.0,0.0,0.0,0.0,0.0,0.0,0.0,0.0,0.0,0.0,0.0,0.0,0.0,0.0,0.0,0.0,0.0,0.0,0.0,0.0,0.0,0.0,0.0,0.0,0.0,0.0,0.0,0.0,0.0,0.0,0.0,0.0,0.0,0.0,0.0,0.0,0.0,0.0,0.0,0.0,0.0,-1.8422,-1.7812,0.0,0.0,0.0,0.0,0.0,0.0,0.0,0.0,0.0,0.0,0.0,0.0,0.0,0.0,0.0,0.0,0.0,0.0,0.0,0.0,0.0,0.0,0.0,0.0,0.0,0.0,0.0,0.0,0.0,0.0,0.0,0.0,0.0,0.0,0.0,0.0,0.0,0.0,0.0,0.0,-1.6962,-1.8816,-1.9929,-1.9711,-1.969,-1.969,-1.969,-1.8968,-1.8139,-1.7299,-1.5708,0.0,0.0,0.0,0.0,0.0,0.0,0.0,0.0,0.0,0.0,0.0,0.0,0.0,0.0,0.0,0.0,0.0,0.0,0.0,0.0,0.0,0.0,0.0,0.0,0.0,0.0,0.0,0.0,0.0,0.0,0.0,0.0,0.0,0.0,0.0,0.0,0.0,0.0,0.0,0.0,0.0,0.0,0.0,0.0,0.0,0.0,0.0,0.0,0.0,0.0,0.0,0.0,0.0,-2.2915,-2.3112,-2.2393,-2.3031,-2.3341,-2.3274,-2.115,-2.067,-2.123,-1.9278,0.0,0.0,0.0,0.0,0.0,0.0,0.0,0.0,0.0,0.0,0.0,0.0,0.0,0.0,0.0,0.0,0.0,0.0,0.0,0.0,0.0,0.0,-1.9316,-1.978,-2.0375,-2.0139,-1.7417,0.0,0.0,0.0,0.0,0.0,0.0,0.0,0.0,0.0,0.0,0.0,-1.7212,-1.8751,-1.969,-1.969,-1.969,-1.969,-1.969,-1.9207,-1.87,-1.8267,-1.7228,-1.5949,0.0,0.0,0.0,0.0,0.0,0.0,0.0,0.0,0.0,0.0,0.0,0.0,0.0,0.0,0.0,0.0,0.0,0.0,0.0,0.0,0.0,0.0,0.0,0.0,0.0,0.0,0.0,0.0,0.0,0.0,0.0,0.0,-1.3761,-1.5801,0.0,0.0,0.0,0.0,0.0,0.0,0.0,0.0,0.0,0.0,0.0,0.0,0.0,-2.3161,-2.2703,-2.5137,-2.6002,-2.5407,-2.7257,-2.7719,-2.6926,-2.7044,-2.7448,-2.8037,-2.6617,0.0,-2.2684,-2.0727,0.0,0.0,0.0,0.0,0.0,0.0,0.0,0.0,0.0,0.0,0.0,0.0,0.0,0.0,0.0,0.0,0.0,0.0,0.0,0.0,0.0,0.0,-2.1306,-2.1407,-2.1503,-2.144,-2.1006,-1.9091,-1.7219,-1.6503,-1.5366,-1.4494,0.0,0.0,0.0,0.0,0.0,0.0,-1.8377,-1.9201,-1.969,-1.969,-1.969,-1.969,-1.969,-1.9207,-1.8849,-1.8815,-1.7791,-1.6884,-1.6187,-1.5137,0.0,0.0,0.0,0.0,0.0,0.0,0.0,0.0,0.0,0.0,0.0,0.0,0.0,0.0,0.0,0.0,0.0,0.0,0.0,0.0,0.0,0.0,0.0,0.0,0.0,0.0,0.0,0.0,0.0,-1.3544,-1.5469,-1.6774,-1.6793,-1.669,0.0,0.0,0.0,0.0,0.0,0.0,0.0,0.0,0.0,-2.2969,-2.4697,-2.5346,-2.4814,-2.7077,-2.7881,-2.725,-2.8854,-2.9211,-2.8484,-2.8561,-2.8543,-2.8422,-2.7235,-2.6034,-2.4876,-2.3678,-2.2863,-2.2309,0.0,0.0,0.0,0.0,-2.2408,-2.2831,-2.3154,-2.2703,-2.1875,-2.1342,0.0,0.0,0.0,0.0,0.0,0.0,0.0,-1.9914,-2.0288,-2.1306,-2.2314,-2.2589,-2.2717,-2.2735,-2.2665,-2.1538,-2.0198,-1.9146,-1.7894,-1.6877,-1.6503,-1.583,0.0,0.0,0.0,-1.8508,-1.9166,-2.0168,-2.0677,-2.0303,-2.0258,-2.0109,-1.972,-1.9479,-1.9369,-1.9369,-1.8907,-1.8382,-1.7742,-1.704,-1.6096,0.0,0.0,0.0,0.0,0.0,0.0,0.0,0.0,0.0,0.0,0.0,0.0,0.0,0.0,0.0,0.0,0.0,0.0,0.0,0.0,0.0,0.0,0.0,0.0,0.0,0.0,0.0,0.0,-1.5236,-1.6861,-1.7808,-1.8038,-1.8146,0.0,0.0,0.0,0.0,0.0,0.0,-2.294,-2.3103,-2.3826,-2.5441,-2.6638,-2.7049,-2.657,-2.8616,-2.9309,-2.8731,-3.0235,-3.047,-2.9592,-2.9859,-2.9672,-2.9135,-2.7918,-2.7428,-2.7313,-2.588,-2.4722,-2.3833,-2.3844,-2.4052,-2.4452,-2.5118,-2.5494,-2.5778,-2.6291,-2.5842,-2.4977,-2.46,-2.3608,-2.2442,-2.2021,0.0,0.0,0.0,0.0,-2.1829,-2.2323,-2.2936,-2.3543,-2.3902,-2.4031,-2.41,-2.3994,-2.3682,-2.2936,-2.1291,-2.0154,-1.9316,-1.8822,-1.7939,0.0,-1.7906,-1.8852,-1.9645,-2.0139,-2.1081,-2.1515,-2.1021,-2.0961,-2.0752,-2.0243,-2.0049,-1.9944,-1.9944,-1.9779,-1.9465,-1.8972,-1.8682,-1.8012,-1.6916,0.0,0.0,0.0,0.0,0.0,0.0,0.0,0.0,0.0,0.0,0.0,0.0,0.0,0.0,0.0,0.0,0.0,0.0,0.0,0.0,0.0,0.0,0.0,0.0,0.0,0.0,0.0,0.0,0.0,-1.9411,-2.0426,0.0,0.0,0.0,0.0,-2.1496,-2.212,-2.3262,-2.5141,-2.5246,-2.5784,-2.7073,-2.7844,-2.8238,-2.8179,-3.026,-3.092,-3.0302,-3.228,-3.2521,-3.1215,-3.1834,-3.2138,-3.2029,-3.0659,-3.0168,-3.0016,-2.6229,-2.4612,-2.4537,-2.4471,-2.4745,-2.5211,-2.5819,-2.6733,-2.7671,-2.7722,-2.7423,-2.716,-2.7767,-2.713,-2.6147,-2.6115,-2.5243,0.0,0.0,-2.4326,-2.4388,-2.4433,-2.4971,-2.5465,-2.5497,-2.548,-2.5495,-2.5511,-2.5465,-2.4702,-2.2143,-2.159,-2.1545,-2.15,0.0,-2.141,-2.144,-2.15,-2.156,-2.159,-2.165,-2.168,-2.165,-2.165,-2.1635,-2.1605,-2.1021,-2.0662,-2.0662,-2.0049,-1.9675,-1.963,-1.963,-1.9301,-1.8578,-1.7008,0.0,0.0,0.0,0.0,0.0,0.0,0.0,0.0,0.0,0.0,0.0,0.0,0.0,0.0,0.0,0.0,0.0,0.0,0.0,0.0,0.0,0.0,0.0,0.0,0.0,0.0,0.0,0.0,-2.1918,-2.2825,0.0,-2.2812,-2.2758,-2.3498,-2.53,-2.4876,-2.5622,-2.7969,-2.8109,-2.8513,-2.9375,-3.0005,-3.0164,-2.9799,-3.0862,-3.1307,-3.1118,-3.1799,-3.2092,-3.1999,-3.1417,-3.1401,-3.1691,-3.0432,-3.0136,-3.0409,-2.8566,-2.7538,-2.7164,-2.8052,-2.8415,-2.8633,-2.9688,-3.0044,-2.9922,-2.9448,-2.9185,-2.9022,-2.8787,-2.8163,-2.749,-2.7568,-2.6977,-2.6214,-2.5878,-2.5805,-2.5756,-2.5333,-2.5435,-2.5615,-2.5615,-2.5615,-2.5615,-2.5615,-2.5615,-2.533,-2.4403,-2.3864,-2.358,-2.358,-2.2892,-2.2323,-2.2323,-2.2323,-2.2323,-2.2323,-2.2682,-2.2772,-2.2368,-2.2323,-2.2158,-2.1739,-2.1096,-2.0722,-2.0722,-2.0064,-1.969,-1.969,-1.969,-1.957,-1.9346,-1.8346,-1.6823,0.0,0.0,0.0,0.0,0.0,0.0,0.0,0.0,0.0,0.0,0.0,0.0,0.0,0.0,0.0,0.0,0.0,0.0,0.0,0.0,0.0,0.0,0.0,0.0,0.0,-2.1341,-2.2896,-2.3957,-2.5138,-2.5753,-2.5541,-2.5777,-2.667,-2.841,-2.798,-2.8418,-3.0193,-3.0272,-3.0492,-3.0948,-3.1097,-3.1097,-3.0964,-3.1531,-3.1691,-3.1559,-3.2433,-3.2671,-3.2396,-3.1805,-3.1887,-3.2394,-3.0685,-3.0422,-3.1193,-3.0054,-2.9446,-2.9239,-3.0147,-3.0463,-3.0493,-3.1589,-3.185,-3.1566,-3.1297,-3.1224,-3.114,-3.0632,-3.0213,-2.9902,-2.9926,-2.9527,-2.8914,-2.8311,-2.7984,-2.7639,-2.681,-2.6591,-2.6544,-2.6321,-2.6273,-2.6273,-2.6273,-2.6273,-2.6273,-2.6273,-2.5555,-2.4956,-2.4956,-2.4238,-2.367,-2.367,-2.367,-2.367,-2.367,-2.3834,-2.3789,-2.337,-2.3131,-2.2817,-2.2383,-2.1545,-2.0959,-2.0789,-1.9945,-1.9369,-1.9169,-1.9332,-1.9442,-1.9442,-1.8753,-1.7379,-1.5389,0.0,0.0,0.0,0.0,0.0,0.0,0.0,0.0,0.0,0.0,0.0,0.0,0.0,0.0,0.0,0.0,0.0,0.0,0.0,0.0,0.0,0.0,0.0,-2.1371,-2.3104,-2.4701,-2.5443,-2.734,-2.8339,-2.7729,-2.9452,-3.0677,-3.0693,-3.1276,-3.163,-3.1694,-3.1726,-3.1742,-3.1742,-3.1124,-3.1074,-3.1726,-3.2368,-3.2355,-3.1716,-3.4279,-3.4452,-3.254,-3.3176,-3.3802,-3.428,-3.1658,-3.1318,-3.2476,-3.0494,-2.9985,-3.05,-3.0536,-3.0536,-3.0623,-3.1193,-3.1868,-3.2467,-3.3117,-3.3364,-3.3406,-3.3406,-3.3406,-3.3364,-3.3406,-3.2971,-3.2347,-3.1638,-3.101,-3.0256,-2.8919,-2.8573,-2.8381,-2.7821,-2.7685,-2.7685,-2.7685,-2.7685,-2.7685,-2.7655,-2.6572,-2.5689,-2.5674,-2.5659,-2.563,-2.563,-2.5615,0.0,-2.5615,-2.5,-2.4612,-2.4612,-2.4044,-2.3625,-2.3625,-2.2458,-2.1495,-2.0947,-1.9705,-1.8717,-1.8212,-1.8679,-1.8959,-1.8959,-1.818,-1.7022,-1.5463,0.0,0.0,0.0,0.0,0.0,0.0,0.0,0.0,0.0,0.0,0.0,0.0,0.0,0.0,0.0,0.0,0.0,0.0,0.0,0.0,0.0,-2.3586,-2.5077,-2.4476,-2.6023,-2.7635,-2.8821,-2.9953,-3.0756,-3.1068,-3.1235,-3.1925,-3.3301,-3.272,-3.2757,-3.3712,-3.43,-3.4579,-3.4579,-3.492,-3.4937,-3.4595,-3.4274,-3.4011,-3.3795,-3.3553,-3.3399,-3.3259,-3.2438,-3.2438,-3.3054,-3.1781,-3.1772,-3.2491,-3.1425,-3.1099,-3.1248,-3.1274,-3.1581,-3.1987,-3.2137,-3.2288,-3.2422,-3.2618,-3.2988,-3.3406,-3.3406,-3.3117,-3.2823,-3.3262,-3.2971,-3.2463,-3.2248,-3.2093,-3.1635,-3.0347,-3.0018,-2.9867,-2.9222,-2.9026,-2.9026,-2.9026,-2.9026,-2.8891,-2.8412,-2.8023,-2.7619,-2.7111,-2.6632,-2.6318,-2.6318,-2.5914,-2.5615,-2.5615,-2.545,-2.5345,-2.5345,-2.4747,-2.4343,-2.4343,-2.3146,-2.2163,-2.151,-2.0694,-2.0144,-1.9976,-2.0144,-2.022,-2.022,-1.9513,-1.8459,0.0,0.0,0.0,0.0,0.0,0.0,0.0,0.0,0.0,0.0,0.0,0.0,0.0,0.0,0.0,0.0,0.0,0.0,0.0,0.0,0.0,0.0,-2.6582,-2.818,-2.8383,-2.9042,-3.0045,-3.1433,-3.225,-3.285,-3.3284,-3.3313,-3.3902,-3.5341,-3.4792,-3.4805,-3.5904,-3.6402,-3.6636,-3.6636,-3.6738,-3.6754,-3.6636,-3.5922,-3.554,-3.5531,-3.5047,-3.4843,-3.4913,-3.3779,-3.363,-3.4213,-3.2886,-3.2728,-3.3367,-3.3001,-3.2626,-3.2258,0.0,0.0,0.0,0.0,-3.2684,-3.2917,-3.3217,-3.3739,-3.4336,-3.4336,-3.4085,-3.3846,-3.4233,-3.4085,-3.3734,-3.3417,-3.3334,-3.3056,-3.1742,-3.139,-3.1244,-3.0592,-3.0195,-3.0,-3.0,-2.9818,-2.946,-2.9086,-2.9011,0.0,-2.8113,-2.744,-2.7006,-2.7006,-2.6677,-2.6437,-2.6437,-2.6183,-2.6019,-2.6019,-2.5435,-2.5046,-2.5046,-2.3834,0.0,0.0,0.0,-2.0784,-2.0784,-2.0784,0.0,0.0,0.0,0.0,0.0,0.0,0.0,0.0,-1.6809,-1.6684,0.0,0.0,0.0,0.0,0.0,0.0,0.0,0.0,0.0,0.0,0.0,0.0,0.0,0.0,0.0,0.0,-2.9343,-3.0869,-3.2324,-3.1968,-3.2053,-3.3372,-3.41,-3.4556,-3.4726,-3.5351,-3.6079,-3.684,-3.6907,-3.7195,-3.7872,-3.799,0.0,0.0,0.0,-3.7453,-3.8041,-3.7386,-3.6985,-3.6953,-3.75,-3.7434,-3.6785,-3.5964,-3.5911,-3.6388,-3.4368,-3.3804,-3.4395,-3.45,-3.4178,-3.3487,-3.2123,-3.1541,-3.1582,-3.2216,-3.2895,-3.3582,-3.4235,0.0,0.0,-3.5577,-3.5622,-3.5622,-3.5622,-3.5622,-3.547,-3.481,-3.4624,-3.4324,-3.3044,-3.2743,-3.259,-3.1967,-3.1383,-3.0947,-3.0845,-3.0387,-2.9883,-2.9753,-2.9684,-2.9475,-2.8831,-2.8143,-2.7715,-2.7625,-2.7625,-2.7625,-2.7625,-2.7066,-2.6692,-2.6692,-2.6108,0.0,-2.5719,-2.4552,-2.3614,-2.3141,-2.1989,-2.1322,-2.1322,-2.1322,-2.1545,-2.2024,-2.1949,-2.1904,-2.1904,-2.1994,-2.2024,-2.1979,-1.9368,-1.8725,0.0,0.0,0.0,0.0,0.0,0.0,0.0,0.0,0.0,0.0,0.0,0.0,0.0,0.0,0.0,-2.9441,-3.0892,-3.2374,-3.3863,-3.3947,-3.3964,-3.4252,-3.4404,-3.4979,-3.6214,-3.6468,-3.6874,-3.7635,-3.7686,-3.7753,-3.7905,-3.8464,-3.8785,-3.8785,-3.9227,-3.9244,-3.8785,-3.8653,-3.8301,-3.7679,-3.7253,0.0,-3.6734,-3.549,-3.4961,-3.5018,-3.3939,-3.3546,-3.3713,-3.3728,-3.4014,-3.4321,-3.2854,-3.2003,-3.1539,-3.164,-3.216,-3.2895,-3.3531,-3.4235,-3.4894,-3.5407,-3.5622,-3.5622,-3.5622,-3.5622,0.0,-3.5453,-3.5402,-3.5217,-3.4402,-3.4164,-3.4021,-3.3383,-3.3131,-3.2875,-3.2344,-3.2091,-3.1665,-3.0543,-3.0328,-3.0118,-2.9505,-2.8846,-2.8203,-2.77,-2.7625,-2.7625,-2.7625,-2.7505,-2.738,-2.738,-2.6797,-2.6408,-2.6408,-2.5674,-2.494,-2.4328,-2.4015,-2.3867,-2.3867,-2.3867,-2.3911,-2.4014,-2.352,-2.3236,-2.3236,-2.3789,-2.4014,-2.3985,-2.2438,-2.1821,0.0,0.0,0.0,0.0,0.0,0.0,0.0,0.0,0.0,0.0,0.0,-2.5345,-2.7471,0.0,-3.0589,-3.2046,-3.2916,-3.3778,-3.4895,-3.5064,-3.5064,-3.5064,-3.5402,-3.5926,-3.6705,-3.711,-3.7652,-3.8396,-3.8447,-3.8616,-3.8971,-3.9343,-3.9529,-3.9529,-3.9884,-3.9901,-3.9529,-3.9529,-3.936,-3.9005,-3.8623,-3.8438,-3.8387,-3.7302,-3.6581,-3.6211,-3.5383,-3.4817,-3.4502,-3.4879,-3.5078,-3.5081,-3.4344,-3.3632,-3.3127,-3.3127,-3.3269,-3.3578,-3.3936,-3.4516,-3.5226,-3.5942,-3.6152,-3.6217,-3.6645,-3.6772,-3.6688,-3.6299,-3.6197,-3.6004,-3.5308,-3.5098,-3.5005,-3.4704,-3.4103,-3.3582,-3.3582,-3.2772,-3.1957,-3.1607,-3.1227,-3.0806,-3.0163,-2.9774,-2.9325,-2.8682,-2.8577,-2.8457,-2.8128,-2.8083,-2.7949,-2.7655,-2.7275,-2.7081,-2.7081,-2.6482,-2.5809,-2.5151,-2.5121,-2.5121,-2.5121,-2.5121,-2.5121,-2.5121,-2.4777,-2.4597,-2.4597,-2.4956,-2.5121,-2.5106,-2.4792,-2.4462,0.0,0.0,0.0,0.0,0.0,0.0,0.0,0.0,-2.4691,-2.6632,-2.755,-2.8755,-3.0988,-3.1666,-3.2459,-3.4387,-3.4827,-3.5199,-3.596,-3.6062,-3.6062,-3.6062,-3.6485,-3.6891,-3.7178,-3.7753,-3.8413,-3.9157,-3.9208,-3.9395,-3.9868,-4.002,-4.002,-3.9885,-4.002,-4.007,-4.007,-4.007,-4.007,-4.007,-4.007,-4.007,-4.007,-3.9262,-3.8525,-3.7764,-3.6814,-3.6054,-3.5554,-3.6275,-3.629,-3.5794,-3.5973,-3.5646,-3.5047,-3.4798,-3.4558,-3.4352,-3.4612,-3.5027,-3.5545,-3.6388,-3.6699,-3.6868,-3.7679,-3.7905,-3.7722,-3.6986,-3.6771,-3.6572,-3.581,-3.5596,-3.5562,-3.5412,-3.4562,-3.3861,-3.4169,-3.2917,-3.1853,-3.2272,-3.191,-3.1302,-3.0806,-3.0702,-3.0447,-2.9699,-2.9579,-2.9385,-2.8861,-2.8786,-2.8577,-2.8075,-2.8015,-2.797,-2.7835,-2.7156,-2.6557,-2.6019,-2.5989,-2.5989,-2.5989,-2.5869,-2.5854,-2.5989,-2.5869,-2.5869,-2.5989,-2.5989,-2.6063,-2.6213,-2.6737,-2.6557,-2.096,-2.1417,-2.2116,-2.2954,-2.3429,-2.4362,0.0,0.0,-2.7572,-2.9522,-3.0523,-3.1272,-3.2014,-3.3261,-3.4421,-3.5351,-3.6079,-3.6789,-3.755,-3.7652,-3.7652,-3.7652,-3.7127,-3.7297,-3.8616,-3.8819,-3.9174,-3.9901,-3.9952,-3.9698,-3.9086,-3.9714,-3.9782,-3.9086,-3.9731,-4.007,-4.007,-4.007,-4.007,-4.007,-4.007,-4.007,-4.007,-3.9262,-3.8525,-3.7706,-3.6258,-3.5554,-3.5554,-3.6275,-3.6569,-3.6552,-3.727,-3.7062,-3.6243,-3.5124,-3.4237,-3.3819,-3.5084,-3.5124,-3.4841,-3.6267,-3.6699,-3.6868,-3.7679,-3.7905,-3.7728,-3.6953,-3.6702,-3.6533,-3.5771,-3.5594,-3.5433,-3.4828,-3.4615,-3.4192,-3.3074,-3.2641,-3.2327,-3.1739,-3.1582,-3.1452,-3.1377,-3.1362,-3.1001,-2.9759,-2.9579,-2.9549,-2.949,-2.9475,-2.9445,-2.937,-2.9355,-2.9131,-2.8532,-2.7859,-2.7475,-2.74,-2.74,-2.74,-2.74,-2.6782,-2.6752,-2.7335,-2.6782,-2.6767,-2.74,-2.74,-2.7664,-2.8263,-2.8338,-2.7694,-2.416,-2.4627,-2.5072,-2.5899,-2.713,-2.8493,-2.9772,-3.0179,-3.0768,-3.2436,-3.3034,-3.3456,-3.4118,-3.511,-3.5926,-3.6248,-3.6941,-3.755,-3.7872,-3.7533,-3.7415,-3.7855,-3.7635,-3.7838,-3.8886,-3.9377,-3.9564,-3.9404,-3.9368,-3.9102,-3.8302,-3.8596,-3.8596,-3.8246,-3.8596,-3.8778,-3.8778,-3.8778,-3.8778,-3.8778,-3.8778,-3.8778,-3.8778,-3.843,-3.7847,-3.704,-3.5958,-3.5504,-3.5554,-3.6275,-3.6337,-3.607,-3.6814,-3.6919,-3.6599,-3.6531,-3.6017,-3.5492,-3.6527,-3.6699,-3.6511,-3.715,-3.7316,-3.7426,-3.7731,-3.7838,-3.7687,-3.6924,-3.6686,-3.6535,-3.5767,-3.5616,-3.5537,-3.5234,-3.4865,-3.4509,-3.4368,-3.3723,-3.3041,-3.2745,-3.2355,-3.1988,-3.1541,-3.1482,-3.1287,-3.0806,-3.0717,-3.0567,-3.0163,-3.0118,-2.9983,-2.9624,-2.9579,-2.9475,-2.919,-2.8906,-2.8742,-2.8742,-2.8742,-2.8742,-2.8742,-2.8472,-2.8457,-2.8742,-2.8472,-2.8472,-2.8742,-2.8742,-2.8891,-2.9175,-2.8645,-2.8119,-2.5862,-2.6548,-2.7248,-2.819,-2.9964,-3.1598,-3.2024,-3.253,-3.3245,-3.4544,-3.4807,-3.497,-3.5493,-3.6079,-3.6603,-3.7009,-3.755,-3.8041,-3.8447,-3.7855,-3.7669,-3.8413,-3.8328,-3.8481,-3.9225,-3.9598,-3.9542,-3.8962,-3.869,-3.8246,-3.7515,-3.769,-3.7706,-3.7456,-3.769,-3.7822,-3.7822,-3.7822,-3.7822,-3.7822,-3.7822,-3.7822,-3.7806,-3.7573,-3.716,-3.6554,-3.5846,-3.5504,-3.5569,-3.6054,-3.6006,-3.5554,-3.6337,-3.6615,-3.6722,-3.7732,-3.7616,-3.7024,-3.7847,-3.7978,-3.7822,-3.7822,-3.7822,-3.7822,-3.7822,-3.7822,-3.7652,-3.6896,-3.6679,-3.6527,-3.5765,-3.5582,-3.5535,-3.5331,-3.488,-3.4583,-3.4935,-3.4222,-3.3517,-3.3505,-3.3093,-3.2632,-3.2153,-3.1928,-3.1809,-3.1809,-3.1644,-3.1287,-3.0851,-3.0791,-3.0612,-3.0163,-2.9953,-2.9834,-2.9834,-2.9684,-2.9579,-2.9579,-2.9579,-2.9579,-2.9579,-2.9579,-2.9579,-2.9579,-2.9579,-2.9579,-2.9579,-2.9579,-2.956,-2.9489,-2.8884,-2.8555,-2.4745,-2.6142,-2.8132,-2.9633,-3.1156,-3.266,-3.4052,-3.4398,-3.4675,-3.5391,-3.556,-3.556,-3.5622,-3.5639,-3.6146,-3.7635,-3.7889,-3.8396,-3.9817,-3.9394,-3.9191,-3.9935,-3.9394,-3.9242,-3.9969,-3.9368,-3.8908,-3.8908,-3.8246,-3.7456,-3.6661,-3.7397,-3.7456,-3.6661,-3.7397,-3.7822,-3.7822,-3.7822,-3.7822,-3.7822,-3.7822,-3.7822,-3.7764,-3.6964,-3.66,-3.6554,-3.5846,-3.5504,-3.5504,-3.5504,-3.5504,-3.5554,-3.6337,-3.6615,-3.6783,-3.8342,-3.8414,-3.7863,-3.8635,-3.8414,-3.7822,-3.7822,-3.7822,-3.7822,-3.7822,-3.7822,-3.7632,-3.6828,-3.6569,-3.64,-3.5672,-3.5494,-3.5329,-3.467,-3.4505,-3.4325,-3.3696,-3.3561,-3.3484,-3.3531,-3.3455,-3.3455,-3.344,-3.2901,-3.2482,-3.2482,-3.1943,-3.1467,-3.1452,-3.1437,-3.1437,-3.1422,-3.0866,-3.0477,-3.0477,-2.9924,-2.9579,-2.9579,-2.9579,-2.9579,-2.9579,-2.9579,-2.9579,-2.9579,-2.9579,-2.9579,-2.9579,-2.9579,-2.9478,-2.9304,-2.9289,-2.9188,-2.7718,-2.9132,-3.041,-3.1918,-3.3043,-3.4037,-3.4998,-3.5239,-3.5318,-3.5571,-3.5216,-3.4878,-3.4878,-3.5284,-3.596,-3.6992,-3.799,-3.8971,-3.9935,-3.9462,-3.9089,-3.9326,-3.914,-3.9089,-3.9343,-3.9101,-3.869,-3.8206,-3.744,-3.6692,-3.5894,-3.6148,-3.6133,-3.5894,-3.6133,-3.6258,-3.6258,-3.6258,-3.6258,-3.6258,-3.6258,-3.6258,-3.6258,-3.6006,-3.5894,-3.5831,-3.5619,-3.5504,-3.5504,-3.5504,-3.5504,-3.5504,-3.5782,-3.6165,-3.6661,-3.7172,-3.7541,-3.7937,-3.8635,-3.8745,-3.8358,-3.7322,-3.7024,-3.6919,-3.643,-3.6258,-3.6196,-3.5958,-3.5894,-3.5846,-3.5554,-3.5504,-3.5444,-3.522,-3.516,-3.51,-3.4876,-3.4831,-3.4696,-3.4233,-3.4143,-3.4008,-3.3574,-3.3305,-3.3021,-3.2587,-3.1958,-3.1482,-3.1482,-3.1482,-3.1482,-3.1482,-3.133,-3.118,-3.118,-3.1001,-3.0881,-3.0881,-3.0881,-3.0881,-3.0881,-3.0881,-3.0881,-3.0881,-3.0881,-3.0624,-3.0061,-3.0061,-2.9736,-2.9072,-2.851,-2.8174,-2.9492,-3.0824,-3.1968,-3.3423,-3.4353,-3.503,-3.5504,-3.5622,-3.5537,-3.5267,-3.4624,-3.4117,-3.4117,-3.4286,-3.4945,-3.6518,-3.7584,-3.865,-3.9901,-3.9462,-3.9089,-3.9343,-3.9157,-3.9089,-3.936,-3.9101,-3.858,-3.7863,-3.6814,-3.6006,-3.5504,-3.5504,-3.5504,-3.5504,-3.5504,-3.5504,-3.5504,-3.5504,-3.5504,-3.5504,-3.5504,-3.5504,-3.5504,-3.5504,-3.5504,-3.5504,-3.5504,-3.5504,-3.5504,-3.5504,-3.5504,-3.5504,-3.5782,-3.6165,-3.66,-3.6904,-3.7338,-3.7879,-3.8358,-3.8525,-3.8302,-3.7008,-3.6615,-3.643,-3.5718,-3.5504,-3.5504,-3.5504,-3.5504,-3.5504,-3.5504,-3.5504,-3.5504,-3.5504,-3.5504,-3.5504,-3.5504,-3.5504,-3.537,-3.4936,-3.4846,-3.4711,-3.4292,-3.4008,-3.3619,-3.2961,-3.2497,-3.2063,-3.1541,-3.1482,-3.1482,-3.1482,-3.1482,-3.1482,-3.1482,-3.1482,-3.1482,-3.1482,-3.1482,-3.1482,-3.1482,-3.1219,-3.1087,-3.1087,-3.0777,-3.0329,-2.9827,-2.9827,-2.938,-2.8492,-2.7986,-2.7655,-3.0078,-3.1343,-3.278,-3.4201,-3.5081,-3.5622,-3.5622,-3.5588,-3.5351,-3.459,-3.3829,-3.3271,-3.3203,-3.2696,-3.3237,-3.6129,-3.6738,-3.7601,-3.9766,-3.9478,-3.9309,-4.0003,-3.9462,-3.9326,-4.0003,-3.9368,-3.8635,-3.7921,-3.643,-3.5554,-3.5554,-3.5504,-3.5504,-3.5504,-3.5504,-3.5504,-3.5504,-3.5504,-3.5504,-3.5504,-3.5504,-3.5504,-3.5504,-3.5504,-3.5504,-3.5504,-3.5504,-3.5504,-3.5504,-3.5504,-3.5504,-3.5554,-3.6275,-3.6554,-3.6615,-3.7397,-3.7706,-3.7706,-3.7706,-3.7706,-3.7632,-3.6798,-3.6554,-3.6384,-3.5733,-3.5504,-3.5504,-3.5504,-3.5504,-3.5504,-3.5504,-3.5504,-3.5504,-3.5504,-3.5504,-3.5504,-3.5504,-3.5504,-3.5504,-3.5504,-3.5504,-3.5504,-3.5504,-3.4966,-3.4307,-3.3649,-3.3544,-3.308,-3.1735,-3.1571,-3.1571,-3.1571,-3.1571,-3.1556,-3.1526,-3.1526,-3.1439,-3.1409,-3.1409,-3.1351,-3.1351,-3.0644,-3.0208,-3.0208,-2.9442,-2.9016,-2.898,-2.898,-2.856,-2.7696,-2.7696,-2.7592,-3.2225,-3.3643,-3.4861,-3.525,-3.547,-3.5622,-3.5622,-3.5182,-3.4573,-3.3829,-3.2662,-3.1427,-3.0311,-3.1309,-3.2713,-3.4049,-3.6146,-3.8193,-3.9851,-3.9918,-3.9868,-4.0054,-3.9918,-3.9868,-4.0054,-3.9368,-3.8799,-3.8635,-3.7188,-3.6337,-3.6337,-3.5782,-3.5504,-3.5504,-3.5504,-3.5504,-3.5504,-3.5504,-3.5504,-3.5504,-3.5504,-3.5504,-3.5504,-3.5504,-3.5504,-3.5504,-3.5504,-3.5504,-3.5504,-3.5504,-3.5504,-3.5504,-3.5733,-3.5782,-3.5782,-3.6022,-3.6085,-3.6085,-3.6085,-3.6477,-3.6798,-3.6006,-3.5782,-3.5733,-3.5554,-3.5504,-3.5504,-3.5504,-3.5504,-3.5504,-3.5504,-3.5504,-3.5504,-3.5504,-3.5504,-3.5504,-3.5504,-3.5504,-3.5504,-3.5504,-3.5504,-3.5504,-3.5504,-3.5355,-3.5011,-3.4322,-3.4233,-3.3918,-3.3095,-3.2991,-3.2991,-3.2991,-3.2991,-3.2796,-3.2302,-3.1661,-3.1064,-3.0613,-3.0011,-2.9628,-2.9628,-2.9442,-2.9317,-2.9317,-2.9129,-2.8889,-2.8599,-2.8599,-2.8444,-2.8015,-2.8015,-2.7961,-3.3558,-3.4726,-3.5622,-3.5622,-3.5622,-3.5368,-3.437,-3.4083,-3.344,-3.1376,-3.0294,-2.9364,-2.8197,-2.9262,-3.0886,-3.2628,-3.5165,-3.7533,-3.9343,-3.9884,-4.007,-4.007,-4.007,-4.007,-4.007,-3.9662,-3.9437,-3.9437,-3.8003,-3.716,-3.716,-3.6707,-3.6368,-3.6006,-3.6006,-3.5831,-3.5504,-3.5504,-3.5504,-3.5504,-3.5504,-3.5504,-3.5504,-3.5504,-3.5504,-3.5504,-3.5504,-3.5504,-3.5504,-3.5504,-3.5504,-3.5504,-3.5504,-3.5504,-3.5504,-3.5504,-3.5504,-3.5504,-3.5504,-3.5782,-3.6054,-3.5604,-3.5504,-3.5504,-3.5504,-3.5504,-3.5504,-3.5504,-3.5504,-3.5504,-3.5504,-3.5504,-3.5504,-3.5504,-3.5504,-3.5504,-3.5504,-3.5504,-3.5504,-3.5504,-3.5504,-3.5504,-3.5504,-3.5504,-3.537,-3.4996,-3.4921,-3.4801,-3.4427,-3.3858,-3.3499,-3.3499,-3.3161,-3.2735,-3.2382,-3.1467,-3.0785,-3.0461,-2.9984,-2.9725,-2.9725,-2.9331,-2.9199,-2.9199,-2.8812,-2.851,-2.835,-2.835,-2.826,-2.8109,-2.8109,-2.8235,-3.4567,-3.5159,-3.5622,-3.5622,-3.5537,-3.4945,-3.2899,-3.2713,-3.1985,-2.8499,-2.762,-2.7266,-2.642,-2.7114,-2.8738,-3.1546,-3.3947,-3.6299,-3.8667,-3.9529,-3.9969,-4.007,-4.007,-4.007,-4.007,-4.007,-4.007,-4.007,-3.8887,-3.8035,-3.7921,-3.7863,-3.7456,-3.6783,-3.6676,-3.6275,-3.5668,-3.5554,-3.5504,-3.5504,-3.5504,-3.5504,-3.5504,-3.5504,-3.5504,-3.5504,-3.5504,-3.5504,-3.5504,-3.5504,-3.5504,-3.5504,-3.5504,-3.5504,-3.5504,-3.5504,-3.5504,-3.5504,-3.5504,-3.5504,-3.5504,-3.5504,-3.5504,-3.5504,-3.5504,-3.5504,-3.5504,-3.5504,-3.5504,-3.5504,-3.5504,-3.5504,-3.5504,-3.5504,-3.5504,-3.5504,-3.5504,-3.5504,-3.5504,-3.5504,-3.5504,-3.5504,-3.5504,-3.5504,-3.5504,-3.5504,-3.5504,-3.5439,-3.5294,-3.4267,-3.3553,-3.3553,-3.2736,-3.2148,-3.2076,-3.1124,-3.0556,-3.0474,-3.0324,-3.0256,-3.0256,-2.9591,-2.9254,-2.9254,-2.8507,-2.8147,-2.821,-2.821,-2.826,-2.8335,-2.8335,-2.8586,-3.5852,-3.5839,-3.5622,-3.5622,-3.5148,-3.4421,-3.344,-3.1901,0.0,-2.8178,-2.6809,-2.5575,-2.4222,-2.6082,-2.8399,-3.0192,-3.2848,-3.569,-3.8582,-3.9106,-3.9411,-4.0003,-4.007,-4.007,-4.007,-4.007,-4.007,-4.007,-3.985,-3.9385,-3.8745,-3.8149,-3.7764,-3.7573,-3.698,-3.6554,-3.6384,-3.5782,-3.5504,-3.5504,-3.5504,-3.5504,-3.5504,-3.5504,-3.5504,-3.5504,-3.5504,-3.5504,-3.5504,-3.5504,-3.5504,-3.5504,-3.5504,-3.5504,-3.5504,-3.5504,-3.5504,-3.5504,-3.5504,-3.5504,-3.5504,-3.5504,-3.5504,-3.5504,-3.5504,-3.5504,-3.5504,-3.5504,-3.5504,-3.5504,-3.5504,-3.5504,-3.5504,-3.5504,-3.5504,-3.5504,-3.5504,-3.5504,-3.5504,-3.5504,-3.5504,-3.5504,-3.5504,-3.5504,-3.5504,-3.5504,-3.5504,-3.5213,-3.4394,-3.4042,-3.3912,-3.3912,-3.3055,-3.2291,-3.1722,-3.0945,-3.0193,-2.9618,-2.8912,-2.8507,-2.8507,-2.8375,-2.8303,-2.8303,-2.817,-2.8335,-2.8787,-2.8787,-2.9038,-2.9503,-2.9503,-2.9553,-3.6514,-3.6207,-3.5667,-3.5941,-3.5248,-3.3897,-3.163,0.0,0.0,-2.5575,-2.4695,-2.412,-2.3038,-2.4611,-2.6573,-2.8095,-3.0514,-3.3389,-3.6772,-3.7584,-3.8396,-3.9901,-4.007,-4.007,-4.007,-4.007,-4.007,-4.007,-4.007,-3.9952,-3.9558,-3.9177,-3.8999,-3.8999,-3.8216,-3.7626,-3.7219,-3.689,-3.6477,-3.6054,-3.6054,-3.5894,-3.5504,-3.5504,-3.5504,-3.5504,-3.5504,-3.5504,-3.5504,-3.5504,-3.5504,-3.5504,-3.5504,-3.5504,-3.5504,-3.5504,-3.5504,-3.5504,-3.5504,-3.5504,-3.5504,-3.5504,-3.5504,-3.5504,-3.5504,-3.5504,-3.5504,-3.5504,-3.5504,-3.5504,-3.5504,-3.5504,-3.5504,-3.5504,-3.5133,-3.4839,-3.5359,-3.4706,-3.4124,-3.461,-3.4327,-3.4124,-3.4624,-3.4691,-3.4691,-3.4691,-3.4691,-3.4394,-3.3394,-3.289,-3.2749,-3.3241,-3.2464,-3.1766,-3.1424,-3.0577,-2.9918,-2.9635,-2.9188,-2.8976,-2.8976,-2.8976,-2.8976,-2.8976,-2.8976,-2.9114,-2.9377,-2.9377,-2.9528,-2.9792,-2.9792,-2.9792,-3.6576,-3.6277,-3.5854,-3.6139,-3.5258,-3.3372,-2.9989,-2.8839,0.0,-2.3359,-2.2868,-2.2987,-2.2412,-2.3376,-2.4811,0.0,-2.8484,-3.1207,-3.5081,-3.6282,-3.7601,-3.9817,-4.007,-4.007,-4.007,-4.007,-4.007,-4.007,-4.0223,-4.0324,-4.0324,-4.0511,-4.0486,-4.032,-3.9544,-3.8801,-3.8035,-3.7863,-3.7397,-3.6615,-3.6615,-3.6275,-3.5718,-3.5554,-3.5554,-3.5733,-3.5554,-3.5504,-3.5504,-3.5504,-3.5504,-3.5504,-3.5504,-3.5504,-3.5504,-3.5504,-3.5504,-3.5504,-3.5504,-3.5504,-3.5504,-3.5504,-3.5504,-3.5504,-3.5504,-3.5504,-3.5504,-3.5504,-3.5504,-3.5504,-3.5504,-3.5504,-3.5439,-3.5213,-3.461,-3.4177,-3.4773,-3.3685,-3.282,-3.3533,-3.3101,-3.282,-3.3602,-3.3671,-3.3671,-3.3671,-3.3671,-3.338,-3.2393,-3.1669,-3.1389,-3.1974,-3.1328,-3.0895,-3.0895,-3.0203,-2.9792,-2.9792,-2.9792,-2.9792,-2.9792,-2.9792,-2.9792,-2.9792,-2.9792,-2.9792,-2.9792,-2.9792,-2.9792,-2.9792,-2.9792,-2.9792,-3.5679,-3.5879,-3.6224,-3.5766,-3.46,-3.2899,-3.0531,0.0,-2.6218,-2.3799,-2.2818,-2.2395,-2.2327,-2.297,-2.4188,-2.6336,0.0,-3.0615,-3.5013,-3.6282,-3.7601,-3.9817,-4.007,-4.007,-4.007,-4.007,-4.007,-4.007,-4.0713,-4.1102,-4.1102,-4.1726,-4.1774,-4.1116,-4.0375,-3.961,-3.8816,-3.8133,-3.7397,-3.6615,-3.6615,-3.6538,-3.6508,-3.5782,-3.5894,-3.643,-3.5782,-3.5504,-3.5504,-3.5504,-3.5504,-3.5504,-3.5504,-3.5504,-3.5504,-3.5504,-3.5504,-3.5504,-3.5504,-3.5504,-3.5504,-3.5504,-3.5504,-3.5504,-3.5504,-3.5504,-3.5504,-3.5504,-3.5504,-3.5504,-3.5504,-3.5504,-3.5279,-3.4394,-3.4095,-3.3808,-3.3031,-3.2749,-3.2593,-3.2749,-3.2664,-3.2593,-3.2749,-3.2749,-3.2749,-3.2749,-3.2749,-3.2393,-3.1462,-3.1254,-3.0908,-3.0152,-3.0011,-2.9934,-2.9934,-2.9869,-2.9792,-2.9792,-2.9792,-2.9792,-2.9792,-2.9792,-2.9792,-2.9792,-2.9792,-2.9792,-2.9792,-2.9792,-2.9792,-2.9792,-2.9792,-2.9792,-3.5364,-3.5702,-3.5659,-3.5452,-3.4065,-3.2019,-2.9347,-2.7334,-2.5423,-2.319,-2.2513,-2.231,-2.231,-2.2547,-2.3325,0.0,-2.5879,-2.7689,-3.1732,-3.3322,-3.5064,-3.777,-3.8886,-3.9597,-4.0037,-4.007,-4.007,-4.007,-4.1187,-4.1863,-4.1863,-4.2557,-4.2593,-4.1833,-4.1999,-4.145,-4.017,-3.9924,-3.9473,-3.8705,-3.8196,-3.7774,-3.7338,-3.7011,-3.6753,-3.6615,-3.6275,-3.5894,-3.5504,-3.5504,-3.5504,-3.5504,-3.5504,-3.5504,-3.5504,-3.5504,-3.5504,-3.5504,-3.5504,-3.5504,-3.5504,-3.5504,-3.5504,-3.5504,-3.5504,-3.5504,-3.5504,-3.5504,-3.5504,-3.5504,-3.5504,-3.5052,-3.4327,-3.3394,-3.2749,-3.2393,-3.2522,-3.1683,-3.1057,-3.1683,-3.1328,-3.1132,-3.1683,-3.1742,-3.1742,-3.1742,-3.1742,-3.1402,-3.0495,-3.0343,-3.0216,-2.9869,-2.9792,-2.9792,-2.9792,-2.9792,-2.9792,-2.9792,-2.9792,-2.9792,-2.9792,-2.9792,-2.9792,-2.9792,-2.9792,-2.9792,-2.9792,-2.9792,-2.9792,-2.9792,-2.9792,-2.9792,-3.4093,-3.4718,-3.4864,-3.4743,-3.3362,-3.1224,-2.845,-2.6674,-2.4983,-2.2767,-2.231,-2.231,-2.231,-2.231,-2.2716,0.0,-2.4526,-2.6133,-2.9905,-3.1698,-3.3728,-3.6755,-3.8041,-3.8954,-3.9681,-3.9952,-4.0172,-4.0392,-4.139,-4.2168,-4.2591,-4.3132,-4.3127,-4.2567,-4.311,-4.2656,-4.1083,-4.1379,-4.0833,-3.942,-3.9331,-3.8625,-3.7456,-3.7456,-3.716,-3.6615,-3.6399,-3.6006,-3.5504,-3.5504,-3.5504,-3.5504,-3.5504,-3.5504,-3.5504,-3.5504,-3.5504,-3.5504,-3.5504,-3.5504,-3.5504,-3.5504,-3.5504,-3.5504,-3.5504,-3.5504,-3.5504,-3.5504,-3.5279,-3.5067,-3.5067,-3.4327,-3.338,-3.2393,-3.1669,-3.1328,-3.1696,-3.0709,-2.9998,-3.062,-3.0279,-2.9998,-3.0696,-3.0758,-3.0758,-3.0758,-3.0758,-3.0558,-2.9869,-2.9792,-2.9792,-2.9792,-2.9792,-2.9792,-2.9792,-2.9792,-2.9792,-2.9792,-2.9792,-2.9792,-2.9792,-2.9792,-2.9792,-2.9792,-2.9792,-2.9792,-2.9792,-2.9792,-2.9792,-2.9792,-2.9792,-2.9792,-3.1278,-3.2694,-3.4086,-3.3573,-3.2307,-3.0615,-2.8332,-2.6674,-2.4983,-2.2767,-2.231,-2.231,-2.231,-2.231,-2.2547,-2.3291,-2.4644,-2.6911,-3.0649,-3.2459,-3.4523,-3.7533,-3.7905,-3.821,-3.8937,-3.9648,-4.0392,-4.1136,-4.1204,-4.1863,-4.3335,-4.342,-4.342,-4.3365,-4.342,-4.2709,-4.1221,-4.1914,-4.0779,-3.7838,-3.9388,-3.8868,-3.66,-3.66,-3.6615,-3.6554,-3.5831,-3.5504,-3.5504,-3.5504,-3.5504,-3.5504,-3.5504,-3.5504,-3.5504,-3.5504,-3.5504,-3.5504,-3.5504,-3.5504,-3.5504,-3.5504,-3.5504,-3.5504,-3.5504,-3.5504,-3.5504,-3.5504,-3.4758,-3.4027,-3.4027,-3.331,-3.2393,-3.1462,-3.118,-3.097,-2.9998,-2.9792,-2.9792,-2.9792,-2.9792,-2.9792,-2.9792,-2.9792,-2.9792,-2.9792,-2.9792,-2.9792,-2.9792,-2.9792,-2.9792,-2.9792,-2.9792,-2.9792,-2.9792,-2.9792,-2.9792,-2.9792,-2.9792,-2.9792,-2.9792,-2.9792,-2.9792,-2.9792,-2.9792,-2.9792,-2.9792,-2.9792,-2.9792,-2.9792,-2.9792,-2.9792,-2.8612,-2.9572,-3.0197,-2.9695,-2.8839,-2.7655,-2.593,-2.4797,-2.3748,-2.2564,-2.231,-2.231,-2.231,-2.231,-2.3054,-2.5287,0.0,0.0,-3.0734,-3.2899,-3.4692,-3.6163,-3.8142,-3.9478,-3.9715,-3.9935,-4.0172,-4.0409,-4.0916,-4.1407,-4.188,-4.2371,-4.2644,-4.2551,-4.2625,-4.1914,-4.0352,-4.0074,-3.9486,-3.8568,-3.856,-3.8129,-3.7397,-3.7397,-3.71,-3.6615,-3.6322,-3.5943,-3.5504,-3.5504,-3.5504,-3.5504,-3.5504,-3.5504,-3.5504,-3.5504,-3.5504,-3.5504,-3.5504,-3.5504,-3.5504,-3.5504,-3.5504,-3.5504,-3.5504,-3.5504,-3.5359,-3.4691,-3.4245,-3.3671,-3.2393,-3.1888,-3.1402,-3.0495,-3.0203,-3.0139,-2.9856,-2.9792,-2.9792,-2.9792,-2.9792,-2.9792,-2.9792,-2.9792,-2.9792,-2.9792,-2.9792,-2.9792,-2.9792,-2.9792,-2.9792,-2.9792,-2.9792,-2.9792,-2.9792,-2.9792,-2.9792,-2.9792,-2.9792,-2.9792,-2.9792,-2.9792,-2.9792,-2.9792,-2.9792,-2.9792,-2.9792,-2.9792,-2.9792,-2.9792,-2.9792,-2.9792,0.0,-2.7401,-2.7772,-2.7453,-2.6826,-2.5964,-2.4777,-2.3917,-2.319,-2.2462,-2.231,-2.231,-2.231,-2.231,-2.3004,-2.5101,-2.5913,-2.7334,-3.0362,-3.2696,-3.4675,-3.6299,-3.8362,-3.9665,-3.9665,-3.9918,-4.007,-4.007,-4.051,-4.0899,-4.1187,-4.1644,-4.1745,-4.1436,-4.17,-4.1122,-3.9562,-3.937,-3.8898,-3.8014,-3.8168,-3.7769,-3.6951,-3.7219,-3.6919,-3.6165,-3.6165,-3.5943,0.0,-3.5504,-3.5504,-3.5504,-3.5504,-3.5504,-3.5504,-3.5504,-3.5504,-3.5504,-3.5504,-3.5504,-3.5504,-3.5504,-3.5504,-3.5504,-3.5504,-3.5504,-3.5359,-3.4758,-3.4312,-3.3739,-3.2522,-3.1742,-3.1044,-3.0495,-3.0075,-2.9792,-2.9792,-2.9792,-2.9792,-2.9792,-2.9792,-2.9792,-2.9792,-2.9792,-2.9792,-2.9792,-2.9792,-2.9792,-2.9792,-2.9792,-2.9792,-2.9792,-2.9792,-2.9792,-2.9792,-2.9792,-2.9792,-2.9792,-2.9792,-2.9792,-2.9792,-2.9792,-2.9792,-2.9792,-2.9792,-2.9792,-2.9792,-2.9792,-2.9792,-2.9792,-2.9792,-2.9792,0.0,-2.5744,-2.6319,-2.637,-2.5879,-2.5186,-2.4492,-2.3799,0.0,-2.2446,-2.231,-2.2344,-2.2446,-2.2412,-2.2699,-2.363,-2.4983,-2.6962,-2.9922,-3.229,-3.481,-3.7719,-3.8667,-3.9073,-3.9073,-3.9681,-4.007,-4.007,-4.007,-4.0392,-4.1085,-4.1119,-4.0771,-4.0073,-4.0621,-4.0221,-3.8766,-3.939,-3.8631,-3.6569,-3.797,-3.7544,-3.5504,-3.6228,-3.6165,-3.5504,-3.5504,-3.5504,-3.5504,-3.5504,-3.5504,-3.5504,-3.5504,-3.5504,-3.5504,-3.5504,-3.5504,-3.5504,-3.5504,-3.5504,-3.5504,-3.5504,-3.5504,-3.5504,-3.5504,-3.5504,-3.5439,-3.5359,-3.4624,-3.3876,-3.3739,-3.2393,-3.1106,-3.1106,-3.0419,-2.9792,-2.9792,-2.9792,-2.9792,-2.9792,-2.9792,-2.9792,-2.9792,-2.9792,-2.9792,-2.9792,-2.9792,-2.9792,-2.9792,-2.9792,-2.9792,-2.9792,-2.9792,-2.9792,-2.9792,-2.9792,-2.9792,-2.9792,-2.9792,-2.9792,-2.9792,-2.9792,-2.9792,-2.9792,-2.9792,-2.9792,-2.9792,-2.9792,-2.9792,-2.9792,-2.9792,-2.9792,-2.0914,0.0,-2.2615,-2.319,-2.3207,-2.3038,0.0,-2.2682,-2.2513,0.0,0.0,-2.2649,-2.3765,-2.3511,-2.4137,-2.7182,-2.845,-2.9888,-3.229,-3.5064,-3.7516,-3.9343,-3.9715,-3.9817,-3.9817,-3.9969,-4.007,-4.007,-4.007,-4.0155,-4.0341,-4.0341,-3.9999,-3.9226,-3.878,-3.8163,-3.7154,-3.6737,-3.6262,-3.5782,-3.6125,-3.5997,-3.5504,-3.5668,-3.5668,-3.5504,-3.5504,-3.5504,-3.5504,-3.5504,-3.5504,-3.5504,-3.5504,-3.5504,-3.5504,-3.5504,-3.5504,-3.5504,-3.5504,-3.5504,-3.5504,-3.5504,-3.5504,-3.5504,-3.5504,-3.5504,-3.5213,-3.3685,-3.3101,-3.2607,-3.1132,-3.0432,-3.0139,-3.0139,-2.9934,-2.9792,-2.9792,-2.9792,-2.9792,-2.9792,-2.9792,-2.9792,-2.9792,-2.9792,-2.9792,-2.9792,-2.9792,-2.9792,-2.9792,-2.9792,-2.9792,-2.9792,-2.9792,-2.9792,-2.9792,-2.9792,-2.9792,-2.9792,-2.9792,-2.9792,-2.9792,-2.9792,-2.9792,-2.9792,-2.9792,-2.9792,-2.9792,-2.9792,-2.9792,-2.9792,-2.9792,-2.9792,-1.9299,-2.0585,-2.1803,-2.2209,-2.2564,-2.2801,-2.2801,0.0,0.0,0.0,0.0,-2.2649,-2.3782,-2.3934,-2.4898,-2.796,-2.9381,-3.1241,-3.4489,-3.6941,-3.8819,-3.9935,-4.007,-4.007,-4.007,-4.007,-4.007,-4.007,-4.007,-4.007,-4.007,-4.007,-3.9558,-3.8414,-3.8035,-3.7397,-3.6615,-3.5894,-3.5504,-3.5504,-3.5504,-3.5504,-3.5504,-3.5504,-3.5504,-3.5504,-3.5504,-3.5504,-3.5504,-3.5504,-3.5504,-3.5504,-3.5504,-3.5504,-3.5504,-3.5504,-3.5504,-3.5504,-3.5504,-3.5504,-3.5504,-3.5504,-3.5504,-3.5504,-3.5504,-3.5504,-3.5279,-3.4206,-3.3905,-3.3699,-3.2648,-3.1783,-3.1057,-3.1057,-3.0432,-2.9792,-2.9792,-2.9792,-2.9792,-2.9792,-2.9792,-2.9792,-2.9792,-2.9792,-2.9792,-2.9792,-2.9792,-2.9792,-2.9792,-2.9792,-2.9792,-2.9792,-2.9792,-2.9792,-2.9792,-2.9792,-2.9792,-2.9792,-2.9792,-2.9792,-2.9792,-2.9792,-2.9792,-2.9792,-2.9792,-2.9792,-2.9792,-2.9792,-2.9792,-2.9792,-2.9792,-2.9792,-1.8843,-2.0653,-2.2276,-2.2175,-2.2767,-2.3359,-2.3257,0.0,0.0,0.0,0.0,0.0,0.0,-2.4425,-2.5676,-2.7824,-2.9634,-3.2256,-3.6518,-3.8193,-3.9259,-3.9986,-4.007,-4.007,-4.007,-4.007,-4.007,-4.007,-4.007,-4.007,-4.007,-4.007,-3.9454,-3.8035,-3.7863,-3.7397,-3.6615,-3.5894,-3.5504,-3.5504,-3.5504,-3.5504,-3.5504,-3.5504,-3.5504,-3.5504,-3.5504,-3.5504,-3.5504,-3.5504,-3.5504,-3.5504,-3.5504,-3.5504,-3.5504,-3.5504,-3.5504,-3.5504,-3.5504,-3.5504,-3.5504,-3.5504,-3.5504,-3.5504,-3.5504,-3.5504,-3.5504,-3.5504,-3.5359,-3.5213,-3.5067,-3.3837,-3.2593,-3.2593,-3.1415,-3.0216,-3.0216,-3.0216,-3.0216,-3.0075,-2.9998,-3.0011,-2.9792,-2.9792,-2.9792,-2.9792,-2.9792,-2.9792,-2.9792,-2.9792,-2.9792,-2.9792,-2.9792,-2.9792,-2.9792,-2.9792,-2.9792,-2.9792,-2.9792,-2.9792,-2.9792,-2.9792,-2.9792,-2.9792,-2.9792,-2.9792,-2.9792,-2.9934,-2.9998,-2.9998,-2.9998,-2.9998,-1.9461,-2.1032,-2.2158,-2.1515,-2.2378,-2.3241,-2.2615,0.0,0.0,0.0,0.0,0.0,0.0,-2.6387,-2.7841,-2.9499,-3.2036,-3.4945,-3.8193,-3.8853,-3.9259,-3.9986,-4.007,-4.007,-4.007,-4.007,-4.007,-4.007,-4.007,-4.007,-4.007,-4.007,-3.9662,-3.8745,-3.8149,-3.7397,-3.6615,-3.5894,-3.5504,-3.5504,-3.5504,-3.5504,-3.5504,-3.5504,-3.5504,-3.5504,-3.5504,-3.5504,-3.5504,-3.5504,-3.5504,-3.5504,-3.5504,-3.5504,-3.5504,-3.5504,-3.5504,-3.5504,-3.5504,-3.5504,-3.5504,-3.5504,-3.5504,-3.5504,-3.5504,-3.5504,-3.5504,-3.5504,-3.4905,-3.4041,-3.3241,-3.282,-3.2593,-3.2593,-3.2393,-3.2177,-3.2177,-3.2177,-3.1974,-3.1119,-3.097,-3.0771,-2.9934,-2.9792,-2.9792,-2.9792,-2.9792,-2.9792,-2.9792,-2.9792,-2.9792,-2.9792,-2.9792,-2.9792,-2.9792,-2.9792,-2.9792,-2.9792,-2.9792,-2.9792,-2.9792,-2.9792,-2.9792,-2.9792,-2.9792,-2.9792,-2.9792,-3.0633,-3.097,-3.097,-3.097,-3.097,-1.8616,-2.023,-2.1617,-2.1288,-2.2902,-2.4408,-2.3663,0.0,0.0,0.0,0.0,0.0,0.0,-2.8027,-2.9939,-3.2645,-3.526,-3.7428,-3.8785,-3.9326,-3.9698,-4.0037,-4.007,-4.007,-4.007,-4.007,-4.007,-4.007,-4.007,-4.007,-4.007,-3.9662,-3.9102,-3.8302,-3.7557,-3.6814,-3.6006,-3.5668,-3.5504,-3.5504,-3.5504,-3.5504,-3.5504,-3.5504,-3.5504,-3.5504,-3.5504,-3.5504,-3.5504,-3.5504,-3.5504,-3.5504,-3.5504,-3.5504,-3.5504,-3.5504,-3.5504,-3.5504,-3.5504,-3.5504,-3.5504,-3.5504,-3.5504,-3.5504,-3.5504,-3.5504,-3.5504,-3.5504,-3.5133,-3.4691,-3.4274,-3.3754,-3.338,-3.338,-3.2961,-3.2593,-3.2593,-3.2593,-3.2464,-3.2033,-3.1536,-3.1044,-3.062,-3.0139,-2.9792,-2.9792,-2.9792,-2.9792,-2.9792,-2.9792,-2.9792,-2.9792,-2.9792,-2.9792,-2.9792,-2.9792,-2.9792,-2.9792,-2.9792,-2.9792,-2.9792,-2.9792,-2.9792,-2.9792,-3.0279,-3.0558,-3.0558,-3.1476,-3.196,-3.196,-3.196,-3.196,-1.8211,-1.9722,-2.1254,-2.1397,0.0,-2.5033,-2.4797,0.0,0.0,0.0,0.0,0.0,0.0,-2.9482,-3.1816,-3.5548,-3.7611,-3.8865,-3.9191,-3.9732,-4.007,-4.007,-4.007,-4.007,-4.007,-4.007,-4.007,-4.007,-4.007,-4.007,-4.007,-3.9315,-3.858,-3.7806,-3.7024,-3.6228,-3.5504,-3.5504,-3.5504,-3.5504,-3.5504,-3.5504,-3.5504,-3.5504,-3.5504,-3.5504,-3.5504,-3.5504,-3.5504,-3.5504,-3.5504,-3.5504,-3.5504,-3.5504,-3.5504,-3.5504,-3.5504,-3.5504,-3.5504,-3.5504,-3.5504,-3.5504,-3.5504,-3.5504,-3.5504,-3.5504,-3.5504,-3.5504,-3.5504,-3.5504,-3.5504,-3.492,-3.4327,-3.4327,-3.3822,-3.3255,-3.3255,-3.3255,-3.3185,-3.2961,-3.2177,-3.1462,-3.1254,-3.0419,-2.9792,-2.9792,-2.9792,-2.9792,-2.9792,-2.9792,-2.9792,-2.9792,-2.9792,-2.9792,-2.9792,-2.9792,-2.9792,-2.9792,-2.9792,-2.9792,-2.9792,-2.9998,-3.0139,-3.0139,-3.1044,-3.1536,-3.1536,-3.2464,-3.2961,-3.2961,-3.2961,-3.2961,-1.9461,-2.0517,-2.1373,-2.2057,0.0,0.0,-2.522,-2.5524,0.0,-2.7368,0.0,0.0,0.0,-3.0666,-3.3347,-3.7126,-3.7857,-3.8438,-3.985,-4.0054,-4.007,-4.007,-4.007,-4.007,-4.007,-4.007,-4.007,-4.007,-4.007,-4.007,-4.007,-3.9315,-3.858,-3.7806,-3.7024,-3.6228,-3.5504,-3.5504,-3.5504,-3.5504,-3.5504,-3.5504,-3.5504,-3.5504,-3.5504,-3.5504,-3.5504,-3.5504,-3.5504,-3.5504,-3.5504,-3.5504,-3.5504,-3.5504,-3.5504,-3.5504,-3.5504,-3.5504,-3.5504,-3.5504,-3.5504,-3.5504,-3.5504,-3.5504,-3.5504,-3.5504,-3.5504,-3.5504,-3.5504,-3.5504,-3.5504,-3.5439,-3.5359,-3.5359,-3.5359,-3.5279,-3.5279,-3.5279,-3.5001,-3.4095,-3.3171,-3.2249,-3.1315,-3.0419,-2.9792,-2.9792,-2.9792,-2.9792,-2.9792,-2.9792,-2.9792,-2.9792,-2.9792,-2.9792,-2.9792,-2.9792,-2.9792,-2.9792,-2.9792,-2.9792,-2.9792,-3.062,-3.1106,-3.1106,-3.2033,-3.2536,-3.2536,-3.3449,-3.3876,-3.3876,-3.3876,-3.3876,-1.8356,-1.9891,-2.1271,-2.1532,0.0,0.0,0.0,-2.6691,-2.8129,-2.9617,-3.0734,0.0,0.0,-3.3169,-3.4972,-3.6916,-3.797,-3.8939,-3.9952,-4.007,-4.007,-4.007,-4.007,-4.007,-4.007,-4.007,-4.007,-4.007,-4.007,-4.007,-4.007,-3.9315,-3.8745,-3.8469,-3.7247,-3.6446,-3.6165,-3.5733,-3.5504,-3.5504,-3.5504,-3.5504,-3.5504,-3.5504,-3.5504,-3.5504,-3.5504,-3.5504,-3.5504,-3.5504,-3.5504,-3.5504,-3.5504,-3.5504,-3.5504,-3.5504,-3.5504,-3.5504,-3.5504,-3.5504,-3.5504,-3.5504,-3.5504,-3.5504,-3.5504,-3.5504,-3.5504,-3.5504,-3.5504,-3.5504,-3.5504,-3.5504,-3.5504,-3.5504,-3.5504,-3.5504,-3.5504,-3.5504,-3.5359,-3.4986,-3.3685,-3.2464,-3.2105,-3.0771,-2.9792,-2.9792,-2.9792,-2.9792,-2.9792,-2.9792,-2.9792,-2.9792,-2.9792,-2.9792,-2.9792,-2.9792,-2.9792,-2.9792,-2.9792,-2.9792,-2.9792,-3.0696,-3.118,-3.118,-3.2678,-3.3449,-3.3449,-3.4476,-3.492,-3.492,-3.492,-3.492,-1.7935,-1.9638,-2.1271,0.0,0.0,0.0,0.0,-2.7875,-2.982,-3.1529,-3.229,-3.2933,-3.3931,-3.4523,-3.5423,-3.6922,-3.8007,-3.8975,-3.9952,-4.007,-4.007,-4.007,-4.007,-4.007,-4.007,-4.007,-4.007,-4.007,-4.007,-4.007,-4.007,-3.9315,-3.8908,-3.8908,-3.7658,-3.6964,-3.6964,-3.6228,-3.5831,-3.5831,-3.5619,-3.5504,-3.5504,-3.5504,-3.5504,-3.5504,-3.5504,-3.5504,-3.5504,-3.5504,-3.5504,-3.5504,-3.5504,-3.5504,-3.5504,-3.5504,-3.5504,-3.5504,-3.5504,-3.5504,-3.5504,-3.5504,-3.5504,-3.5504,-3.5504,-3.5504,-3.5504,-3.5504,-3.5504,-3.5504,-3.5504,-3.5504,-3.5504,-3.5504,-3.5504,-3.5504,-3.5504,-3.5504,-3.5504,-3.5504,-3.3905,-3.2593,-3.2593,-3.1057,-2.9792,-2.9792,-2.9792,-2.9792,-2.9792,-2.9792,-2.9792,-2.9792,-2.9792,-2.9792,-2.9792,-2.9792,-2.9792,-2.9792,-3.0075,-3.0139,-2.9792,-3.0983,-3.1683,-3.1683,-3.3533,-3.4461,-3.4476,-3.5133,-3.5504,-3.5504,-3.5504,-3.5504,-1.8691,-2.001,-2.1363,0.0,0.0,0.0,-2.7451,-2.9008,-3.0751,-3.2966,-3.3423,-3.388,-3.5334,-3.4406,-3.4398,-3.7381,-3.7905,-3.843,-3.9868,-4.007,-4.007,-4.007,-4.007,-4.007,-4.007,-4.007,-4.007,-4.007,-4.007,-4.007,-4.007,-3.9315,-3.8908,-3.8908,-3.8206,-3.7822,-3.7822,-3.7024,-3.6615,-3.6615,-3.5831,-3.5504,-3.5504,-3.5504,-3.5504,-3.5504,-3.5504,-3.5504,-3.5504,-3.5504,-3.5504,-3.5504,-3.5504,-3.5504,-3.5504,-3.5504,-3.5504,-3.5504,-3.5504,-3.5504,-3.5504,-3.5504,-3.5504,-3.5504,-3.5504,-3.5504,-3.5504,-3.5504,-3.5504,-3.5504,-3.5504,-3.5504,-3.5504,-3.5504,-3.5504,-3.5504,-3.5504,-3.5504,-3.5504,-3.5504,-3.3905,-3.2593,-3.2593,-3.1057,-2.9792,-2.9792,-2.9792,-2.9792,-2.9792,-2.9792,-2.9792,-2.9792,-2.9792,-2.9792,-2.9792,-2.9792,-2.9792,-2.9792,-3.0696,-3.0758,-2.9856,-3.1623,-3.2593,-3.2593,-3.4491,-3.5504,-3.5504,-3.5504,-3.5504,-3.5504,-3.5504,-3.5504,-1.8639,-1.9823,0.0,-2.2051,0.0,0.0,0.0,-2.9803,0.0,0.0,-3.4962,-3.4912,-3.4837,-3.4888,-3.544,-3.6905,-3.7542,-3.8405,-3.9901,-4.007,-4.007,-4.007,-4.007,-4.007,-4.007,-4.007,-4.007,-4.007,-4.007,-4.007,-4.007,-3.9885,-3.9714,-3.9714,-3.8978,-3.8302,-3.7822,-3.7024,-3.6337,-3.5831,-3.5619,-3.5504,-3.5504,-3.5504,-3.5504,-3.5504,-3.5504,-3.5504,-3.5504,-3.5504,-3.5504,-3.5504,-3.5504,-3.5504,-3.5504,-3.5504,-3.5504,-3.5504,-3.5504,-3.5504,-3.5504,-3.5504,-3.5504,-3.5504,-3.5504,-3.5504,-3.5504,-3.5504,-3.5504,-3.5504,-3.5504,-3.5504,-3.5504,-3.5504,-3.5504,-3.5504,-3.5504,-3.5504,-3.5504,-3.5504,-3.3905,-3.2593,-3.2593,-3.1057,-2.9792,-2.9792,-2.9792,-2.9792,-2.9792,-2.9792,-2.9792,-2.9792,-2.9792,-2.9792,-2.9792,-2.9792,-3.0075,-3.0758,-3.1044,-3.1106,-3.0833,-3.2607,-3.3602,-3.3602,-3.4839,-3.5504,-3.5504,-3.5504,-3.5504,-3.5504,-3.5504,-3.5504,-1.9387,-2.074,0.0,-2.3306,-2.5399,-2.7571,-2.9211,0.0,0.0,0.0,-3.5368,-3.5125,-3.4955,-3.5035,-3.5522,-3.6604,-3.7177,-3.8003,-3.9446,-3.9649,-3.9783,-4.0054,-4.007,-4.007,-4.007,-4.007,-4.007,-4.007,-4.007,-4.007,-4.007,-4.007,-4.007,-4.007,-3.9315,-3.869,-3.8246,-3.7144,-3.6384,-3.5943,-3.5604,-3.5504,-3.5504,-3.5504,-3.5504,-3.5504,-3.5504,-3.5504,-3.5504,-3.5504,-3.5504,-3.5504,-3.5504,-3.5504,-3.5504,-3.5504,-3.5504,-3.5504,-3.5504,-3.5504,-3.5504,-3.5504,-3.5504,-3.5504,-3.5504,-3.5504,-3.5504,-3.5504,-3.5504,-3.5504,-3.5504,-3.5504,-3.5504,-3.5504,-3.5504,-3.5504,-3.5504,-3.5504,-3.5504,-3.5504,-3.4259,-3.3031,-3.2664,-3.1328,-3.0203,-2.9869,-2.9792,-2.9792,-2.9792,-2.9792,-2.9792,-2.9792,-2.9792,-2.9792,-2.9792,-2.9792,-3.0216,-3.1106,-3.1536,-3.1888,-3.2321,-3.338,-3.4027,-3.4027,-3.4986,-3.5504,-3.5504,-3.5504,-3.5504,-3.5504,-3.5504,-3.5504,-2.05,0.0,0.0,-2.5129,-2.6703,0.0,-3.1546,-3.2747,-3.3634,-3.5199,-3.4972,-3.4745,-3.547,-3.5044,-3.5087,-3.6546,-3.6793,-3.732,-3.8673,-3.8908,-3.9177,-3.9935,-4.0003,-4.002,-4.007,-4.007,-4.007,-4.007,-4.007,-4.007,-4.007,-4.007,-4.007,-4.0003,-3.9262,-3.8854,-3.8674,-3.7306,-3.6554,-3.6492,-3.5831,-3.5504,-3.5504,-3.5504,-3.5504,-3.5504,-3.5504,-3.5504,-3.5504,-3.5504,-3.5504,-3.5504,-3.5504,-3.5504,-3.5504,-3.5504,-3.5504,-3.5504,-3.5504,-3.5504,-3.5504,-3.5504,-3.5504,-3.5504,-3.5504,-3.5504,-3.5504,-3.5504,-3.5504,-3.5504,-3.5504,-3.5504,-3.5504,-3.5504,-3.5504,-3.5504,-3.5504,-3.5504,-3.5504,-3.5504,-3.4691,-3.3671,-3.2749,-3.1815,-3.0908,-2.9934,-2.9792,-2.9792,-2.9792,-2.9792,-2.9792,-2.9792,-2.9869,-2.9856,-2.9792,-2.9934,-3.0419,-3.1241,-3.2249,-3.3171,-3.4095,-3.4163,-3.4163,-3.4163,-3.5052,-3.5504,-3.5504,-3.5504,-3.5504,-3.5504,-3.5504,-3.5504,-1.99,-2.12,0.0,0.0,-2.6775,-2.9218,-3.1179,-3.1712,-3.237,-3.4346,-3.4609,-3.4745,-3.547,-3.5474,-3.5664,-3.6655,-3.6791,-3.7094,-3.801,-3.8136,-3.8422,-3.916,-3.9228,-3.9446,-4.0037,-4.007,-4.007,-4.007,-4.007,-4.007,-4.007,-4.007,-3.9782,-3.9193,-3.8962,-3.8325,-3.7128,-3.6783,-3.6337,-3.5718,-3.5554,-3.5504,-3.5504,-3.5504,-3.5504,-3.5504,-3.5504,-3.5504,-3.5504,-3.5504,-3.5504,-3.5504,-3.5504,-3.5504,-3.5504,-3.5504,-3.5504,-3.5504,-3.5504,-3.5504,-3.5504,-3.5504,-3.5504,-3.5504,-3.5504,-3.5504,-3.5504,-3.5504,-3.5504,-3.5504,-3.5504,-3.5504,-3.5504,-3.5504,-3.5504,-3.5504,-3.5504,-3.5504,-3.5504,-3.5504,-3.4691,-3.3671,-3.2749,-3.1815,-3.0908,-2.9934,-2.9792,-2.9792,-2.9792,-2.9792,-2.9792,-2.9792,-3.0482,-3.062,-2.9856,-3.1132,-3.2105,-3.2321,-3.3171,-3.4109,-3.5133,-3.5213,-3.5213,-3.5213,-3.5359,-3.5504,-3.5504,-3.5504,-3.5504,-3.5504,-3.5504,-3.5504,-1.9504,0.0,0.0,-2.606,0.0,-2.942,-3.06,-3.0651,-3.0846,-3.2277,-3.3136,-3.3879,-3.4886,-3.5116,-3.5346,-3.6101,-3.6231,-3.6486,-3.7284,-3.7351,-3.7523,-3.7905,-3.797,-3.8096,-3.849,-3.8504,-3.8669,-3.8978,-3.8995,-3.8995,-3.8995,-3.8995,-3.8832,-3.8374,-3.8003,-3.7408,-3.6615,-3.6275,-3.5894,-3.5504,-3.5504,-3.5504,-3.5504,-3.5504,-3.5504,-3.5504,-3.5504,-3.5504,-3.5504,-3.5504,-3.5504,-3.5504,-3.5504,-3.5504,-3.5504,-3.5504,-3.5504,-3.5504,-3.5504,-3.5504,-3.5504,-3.5504,-3.5504,-3.5504,-3.5504,-3.5504,-3.5504,-3.5504,-3.5504,-3.5504,-3.5504,-3.5504,-3.5504,-3.5504,-3.5504,-3.5504,-3.5504,-3.5504,-3.5504,-3.5504,-3.5067,-3.4259,-3.282,-3.1476,-3.0343,-2.9856,-2.9792,-2.9792,-2.9792,-2.9792,-2.9792,-2.9792,-3.062,-3.097,-3.0482,-3.1756,-3.282,-3.3241,-3.3739,-3.4461,-3.5439,-3.5504,-3.5504,-3.5504,-3.5504,-3.5504,-3.5504,-3.5504,-3.5504,-3.5504,-3.5504,-3.5504,-1.8675,0.0,-2.4666,-2.7743,-2.8703,0.0,-2.9806,-2.9577,-2.941,-3.0038,-3.1272,-3.2618,-3.3945,-3.421,-3.4466,-3.515,-3.5262,-3.5493,-3.6163,-3.6248,-3.6282,-3.6412,-3.6455,-3.6464,-3.663,-3.6654,-3.6837,-3.7406,-3.755,-3.763,-3.763,-3.7742,-3.7748,-3.7573,-3.698,-3.6554,-3.6384,-3.5782,-3.5504,-3.5504,-3.5504,-3.5504,-3.5504,-3.5504,-3.5504,-3.5504,-3.5504,-3.5504,-3.5504,-3.5504,-3.5504,-3.5504,-3.5504,-3.5504,-3.5504,-3.5504,-3.5504,-3.5504,-3.5504,-3.5504,-3.5504,-3.5504,-3.5504,-3.5504,-3.5504,-3.5504,-3.5504,-3.5504,-3.5504,-3.5504,-3.5504,-3.5504,-3.5504,-3.5504,-3.5504,-3.5504,-3.5504,-3.5504,-3.5504,-3.5504,-3.5213,-3.4491,-3.289,-3.1057,-2.9792,-2.9792,-2.9792,-2.9792,-2.9792,-2.9934,-3.0075,-3.0075,-3.1057,-3.1609,-3.1462,-3.2464,-3.338,-3.3959,-3.4177,-3.461,-3.5439,-3.5504,-3.5504,-3.5504,-3.5504,-3.5504,-3.5504,-3.5504,-3.5504,-3.5504,-3.5504,-3.5504,0.0,0.0,-2.2333,0.0,-2.7002,-2.7729,0.0,-2.8602,-2.8647,-2.8746,-2.9847,-3.1199,-3.2602,-3.2864,-3.3106,-3.3768,-3.3896,-3.3913,-3.3996,-3.4013,-3.427,-3.4919,-3.4981,-3.5253,-3.5896,-3.5943,-3.5957,-3.6053,-3.6581,-3.6918,-3.6918,-3.747,-3.7456,-3.6783,-3.6676,-3.6275,-3.5668,-3.5554,-3.5504,-3.5504,-3.5504,-3.5504,-3.5504,-3.5504,-3.5504,-3.5504,-3.5504,-3.5504,-3.5504,-3.5504,-3.5504,-3.5504,-3.5504,-3.5504,-3.5504,-3.5504,-3.5504,-3.5504,-3.5504,-3.5504,-3.5504,-3.5504,-3.5504,-3.5504,-3.5504,-3.5504,-3.5504,-3.5504,-3.5504,-3.5504,-3.5504,-3.5504,-3.5504,-3.5504,-3.5504,-3.5504,-3.5504,-3.5504,-3.5504,-3.5504,-3.4124,-3.289,-3.2664,-3.1057,-2.9792,-2.9792,-2.9792,-2.9792,-2.9792,-3.0482,-3.1044,-3.1044,-3.2593,-3.331,-3.2464,-3.4056,-3.4773,-3.4027,-3.4839,-3.5359,-3.5504,-3.5504,-3.5504,-3.5504,-3.5504,-3.5504,-3.5504,-3.5504,-3.5504,-3.5504,-3.5504,-3.5504,-1.7659,-1.9849,-2.2156,0.0,-2.5859,-2.6367,-2.7588,-2.7651,-2.752,-2.7905,-2.8448,-2.9375,-3.1133,-3.1433,-3.1842,-3.2882,-3.3045,-3.3192,-3.3534,-3.3618,-3.3566,-3.3534,-3.3504,-3.3637,-3.3921,-3.3937,-3.4118,-3.4454,-3.4747,-3.4976,-3.4976,-3.521,-3.5216,-3.4866,-3.4851,-3.4696,-3.4382,-3.4741,-3.513,-3.5504,-3.5504,-3.5504,-3.5504,-3.5504,-3.5504,-3.5504,-3.5504,-3.5504,-3.5504,-3.5504,-3.5504,-3.5504,-3.5504,-3.5504,-3.5504,-3.5504,-3.5504,-3.5504,-3.5504,-3.5504,-3.5504,-3.5504,-3.5504,-3.5504,-3.5504,-3.5504,-3.5504,-3.5504,-3.5504,-3.5504,-3.5504,-3.5504,-3.5504,-3.5504,-3.5504,-3.5504,-3.5504,-3.5504,-3.5504,-3.5504,-3.4327,-3.3241,-3.2678,-3.1476,-3.0419,-2.9869,-2.9792,-2.9792,-2.9792,-3.062,-3.118,-3.118,-3.289,-3.3808,-3.3449,-3.4691,-3.5294,-3.4839,-3.5279,-3.5504,-3.5504,-3.5504,-3.5504,-3.5504,-3.5504,-3.5504,-3.5504,-3.5504,-3.5504,-3.5504,-3.5504,-3.5504,0.0,0.0,-2.1086,-2.3456,-2.4419,-2.5062,0.0,-2.6512,-2.6547,-2.7184,-2.7375,-2.7861,-2.9454,-2.9947,-3.0451,-3.1663,-3.1974,-3.2264,-3.274,-3.2977,-3.2874,-3.2397,-3.2309,-3.2294,-3.2264,-3.2264,-3.2434,-3.2946,-3.3155,-3.3245,-3.3245,-3.341,-3.3499,-3.3499,-3.3499,-3.3499,-3.3499,-3.3978,-3.4562,-3.525,-3.525,-3.534,-3.5504,-3.5504,-3.5504,-3.5504,-3.5504,-3.5504,-3.5504,-3.5504,-3.5504,-3.5504,-3.5504,-3.5504,-3.5504,-3.5504,-3.5504,-3.5504,-3.5504,-3.5504,-3.5504,-3.5504,-3.5504,-3.5504,-3.5504,-3.5504,-3.5504,-3.5504,-3.5504,-3.5504,-3.5504,-3.5504,-3.5504,-3.5504,-3.5504,-3.5504,-3.5504,-3.5504,-3.5504,-3.5504,-3.4691,-3.3808,-3.3101,-3.2177,-3.1193,-3.0011,-2.9998,-3.0075,-2.9869,-3.062,-3.1315,-3.1536,-3.3031,-3.4095,-3.4394,-3.5067,-3.5504,-3.5504,-3.5504,-3.5504,-3.5504,-3.5504,-3.5504,-3.5504,-3.5504,-3.5504,-3.5504,-3.5504,-3.5504,-3.5504,-3.5504,-3.5504,0.0,-1.648,0.0,-2.0118,-2.2232,-2.3825,-2.4414,-2.5126,-2.5864,-2.6482,-2.6672,-2.6905,-2.764,-2.8263,-2.8905,-2.9654,-3.0268,-3.0615,-3.0644,-3.1187,-3.1599,-3.1569,-3.1569,-3.1569,-3.1569,-3.1569,-3.1584,-3.1571,-3.2213,-3.2557,-3.2557,-3.3155,-3.3499,-3.3499,-3.3499,-3.3499,-3.3499,-3.3529,-3.3873,-3.4532,-3.4532,-3.4876,-3.5504,-3.5504,-3.5504,-3.5504,-3.5504,-3.5504,-3.5504,-3.5504,-3.5504,-3.5504,-3.5504,-3.5504,-3.5504,-3.5504,-3.5504,-3.5504,-3.5504,-3.5504,-3.5504,-3.5504,-3.5504,-3.5504,-3.5504,-3.5504,-3.5504,-3.5504,-3.5504,-3.5504,-3.5504,-3.5504,-3.5504,-3.5504,-3.5504,-3.5504,-3.5504,-3.5504,-3.5504,-3.5504,-3.4691,-3.3959,-3.3945,-3.3171,-3.1901,-3.0075,-3.0558,-3.0833,-2.9934,-3.062,-3.1536,-3.2464,-3.338,-3.4394,-3.5359,-3.5439,-3.5504,-3.5504,-3.5504,-3.5504,-3.5504,-3.5504,-3.5504,-3.5504,-3.5504,-3.5504,-3.5504,-3.5504,-3.5504,-3.5504,-3.5504,-3.5504,0.0,0.0,0.0,-1.8969,-2.0421,-2.178,-2.3023,-2.3827,-2.4489,-2.5198,-2.5657,-2.6017,-2.6249,-2.7199,-2.8173,-2.8869,-2.913,-2.9436,-2.9855,-3.0104,-3.0454,-3.0791,-3.0878,-3.1025,-3.1452,-3.1482,-3.1482,-3.1482,-3.1691,-3.1884,-3.1884,-3.2108,-3.2243,-3.2243,-3.2243,-3.2437,-3.2856,-3.2871,-3.32,-3.3844,-3.3844,-3.3978,-3.4233,-3.4651,-3.4607,-3.4262,-3.513,-3.5504,-3.5504,-3.5504,-3.5504,-3.5504,-3.5504,-3.5504,-3.5504,-3.5504,-3.5504,-3.5504,-3.5504,-3.5504,-3.5504,-3.5504,-3.5504,-3.5504,-3.5504,-3.5504,-3.5504,-3.5504,-3.5504,-3.5504,-3.5504,-3.5504,-3.5504,-3.5504,-3.4868,-3.4356,-3.4476,-3.5052,-3.5504,-3.5504,-3.4691,-3.3808,-3.3241,-3.2321,-3.1254,-3.0011,-3.0075,-3.0216,-2.9856,-3.062,-3.1536,-3.2536,-3.3449,-3.4394,-3.5424,-3.5504,-3.5504,-3.5504,-3.5504,-3.5504,-3.5504,-3.5504,-3.5504,-3.5504,-3.5504,-3.5504,-3.5504,-3.5504,-3.5504,-3.5504,-3.5504,-3.5504,-1.3396,0.0,0.0,0.0,-1.8748,-1.9864,-2.162,-2.2349,-2.2938,-2.4048,-2.464,-2.5066,-2.5523,-2.6321,-2.7131,-2.7836,-2.8299,-2.8776,-2.9193,-2.9444,-2.9733,-3.0123,-3.0205,-3.0398,-3.0818,-3.0833,-3.0953,-3.1165,-3.118,-3.1228,-3.1467,-3.1482,-3.1482,-3.1482,-3.1482,-3.1676,-3.2183,-3.2183,-3.2512,-3.3155,-3.3155,-3.3275,-3.3514,-3.3948,-3.3903,-3.3544,-3.4442,-3.4831,-3.4861,-3.531,-3.537,-3.519,-3.5415,-3.5504,-3.5504,-3.5504,-3.5504,-3.5504,-3.5504,-3.5504,-3.5504,-3.5504,-3.5504,-3.5504,-3.5504,-3.5504,-3.5504,-3.5504,-3.5504,-3.5504,-3.5504,-3.5279,-3.492,-3.4624,-3.3851,-3.3339,-3.3463,-3.4041,-3.4558,-3.4558,-3.3973,-3.331,-3.2749,-3.2105,-3.1476,-3.0846,-3.0495,-3.0279,-3.0279,-3.0833,-3.1536,-3.2536,-3.3449,-3.4394,-3.5424,-3.5504,-3.5504,-3.5504,-3.5504,-3.5504,-3.5504,-3.5504,-3.5504,-3.5504,-3.5504,-3.5504,-3.5504,-3.5504,-3.5504,-3.5504,-3.5504,-3.5504,0.0,0.0,0.0,0.0,-1.7146,-1.8209,-2.0167,-2.0615,-2.1196,-2.3068,-2.352,-2.3919,-2.5259,-2.5543,-2.5771,-2.6416,-2.769,-2.8536,-2.8536,-2.9138,-2.955,-2.9566,-2.9591,-2.9597,-2.9577,-2.9614,-2.984,-3.0417,-3.0477,-3.0776,-3.1377,-3.1437,-3.1437,-3.1437,-3.1467,-3.1482,-3.1482,-3.1482,-3.1854,-3.2482,-3.2482,-3.2826,-3.344,-3.3455,-3.3455,-3.344,-3.3484,-3.3469,-3.3544,-3.4891,-3.5055,-3.4517,-3.519,-3.5444,-3.5444,-3.5444,-3.5444,-3.5444,-3.5474,-3.5474,-3.5474,-3.5489,-3.5504,-3.5504,-3.5504,-3.5504,-3.5504,-3.5504,-3.5504,-3.5504,-3.5439,-3.4758,-3.3739,-3.282,-3.2593,-3.2593,-3.2522,-3.2522,-3.2522,-3.2593,-3.2593,-3.2522,-3.2522,-3.2536,-3.2536,-3.2536,-3.1742,-3.118,-3.118,-3.118,-3.1536,-3.2536,-3.3449,-3.4394,-3.5424,-3.5504,-3.5504,-3.5504,-3.5504,-3.5504,-3.5504,-3.5504,-3.5504,-3.5504,-3.5504,-3.5504,-3.5504,-3.5504,-3.5504,-3.5504,-3.5504,-3.5504,-1.2211,0.0,0.0,0.0,0.0,0.0,-1.8282,-1.8894,-1.953,-2.0587,-2.1137,-2.1903,-2.3271,-2.3874,-2.4368,-2.5017,-2.6288,-2.7155,-2.7155,-2.775,-2.8314,-2.8804,-2.8906,-2.9101,-2.9567,-2.9612,-2.9648,-2.9819,-2.9834,-2.9924,-3.0118,-3.0552,-3.0791,-3.0791,-3.127,-3.1482,-3.1482,-3.1482,-3.1556,-3.1809,-3.1809,-3.1898,-3.2093,-3.2572,-3.2527,-3.2138,-3.308,-3.2961,-3.2183,-3.3499,-3.3933,-3.3784,-3.3978,-3.4053,-3.4053,-3.4053,-3.4053,-3.4113,-3.4592,-3.4756,-3.4846,-3.534,-3.5504,-3.5504,-3.5504,-3.5504,-3.5504,-3.5504,-3.5504,-3.5359,-3.461,-3.4177,-3.3739,-3.282,-3.2593,-3.2393,-3.1742,-3.1044,-3.0996,-3.2321,-3.2033,-3.1609,-3.1609,-3.1057,-3.057,-3.057,-3.0355,-3.0216,-3.0216,-3.0758,-3.1536,-3.2536,-3.3449,-3.4394,-3.5424,-3.5504,-3.5504,-3.5504,-3.5504,-3.5504,-3.5504,-3.5504,-3.5504,-3.5504,-3.5504,-3.5504,-3.5504,-3.5504,-3.5504,-3.5504,-3.5504,-3.5504,-1.2867,-1.3891,0.0,-1.5863,0.0,0.0,-1.8212,-1.8408,-1.8606,-1.9869,-2.0414,-2.1013,-2.2079,-2.2557,-2.3051,-2.3698,-2.4671,-2.5548,-2.6114,-2.6501,-2.7015,-2.7694,-2.7765,-2.8017,-2.8682,-2.8742,-2.8861,-2.9146,-2.9175,-2.928,-2.9564,-2.9924,-3.0118,-3.0118,-3.0761,-3.1106,-3.1106,-3.139,-3.1482,-3.1482,-3.1482,-3.1482,-3.1482,-3.1928,-3.1898,-3.1511,-3.2347,-3.2243,-3.1541,-3.2362,-3.2841,-3.311,-3.338,-3.3499,-3.3499,-3.3499,-3.3499,-3.3544,-3.3933,-3.4068,-3.4128,-3.4532,-3.4666,-3.4711,-3.4996,-3.507,-3.513,-3.5429,-3.5504,-3.5279,-3.4245,-3.3739,-3.3171,-3.2249,-3.1683,-3.1267,-3.0696,-3.0216,-3.0139,-3.1193,-3.0983,-3.0633,-3.0633,-3.0139,-3.0075,-3.0846,-3.0633,-3.0709,-3.1415,-3.2046,-3.2593,-3.3101,-3.4041,-3.4839,-3.5439,-3.5504,-3.5504,-3.5504,-3.5504,-3.5504,-3.5504,-3.5504,-3.5504,-3.5504,-3.5504,-3.5504,-3.5504,-3.5504,-3.5504,-3.5504,-3.5504,-3.5504,-1.4012,-1.4222,0.0,-1.697,-1.6697,0.0,-1.885,-1.844,-1.8092,-1.9906,-2.0266,-2.0497,-2.1327,-2.1476,-2.1698,-2.2463,-2.3093,-2.3993,-2.5318,-2.5546,-2.5813,-2.6402,-2.6519,-2.6737,-2.7395,-2.7505,-2.7754,-2.8442,-2.8487,-2.8742,-2.9325,-2.943,-2.9475,-2.9475,-3.0073,-3.0402,-3.0402,-3.1001,-3.1287,-3.1362,-3.1362,-3.1407,-3.1482,-3.1482,-3.1482,-3.1482,-3.1482,-3.1482,-3.1482,-3.1482,-3.1884,-3.2467,-3.3051,-3.3275,-3.3275,-3.3275,-3.3275,-3.329,-3.3365,-3.338,-3.3395,-3.3469,-3.3499,-3.3604,-3.4188,-3.4367,-3.4487,-3.5115,-3.526,-3.5029,-3.4143,-3.3338,-3.2522,-3.1609,-3.0696,-3.0075,-3.0075,-2.9998,-3.0011,-3.0075,-2.9934,-2.9792,-2.9792,-2.9869,-3.0495,-3.2177,-3.1815,-3.196,-3.3602,-3.3945,-3.4027,-3.4027,-3.4905,-3.5504,-3.5504,-3.5504,-3.5504,-3.5504,-3.5504,-3.5504,-3.5504,-3.5504,-3.5504,-3.5504,-3.5504,-3.5504,-3.5504,-3.5504,-3.5504,-3.5504,-3.5504,-3.5504,-1.423,-1.4922,-1.58,-1.6235,-1.6501,0.0,-1.7195,-1.7079,-1.7013,-1.7387,-1.7462,-1.8014,-1.9756,-2.0094,-2.0505,-2.1719,-2.2435,-2.3301,-2.4587,-2.5249,-2.5633,-2.5773,-2.5798,-2.6063,-2.6722,-2.6782,-2.7051,-2.7724,-2.7784,-2.7829,-2.7964,-2.8487,-2.8801,-2.8801,-2.943,-2.9759,-2.9759,-2.9894,-3.0208,-3.0717,-3.0717,-3.1001,-3.1482,-3.1482,-3.1482,-3.1482,-3.1482,-3.1482,-3.1482,-3.1482,-3.1556,-3.1676,-3.1869,-3.1913,-3.1913,-3.1913,-3.1913,-3.1988,-3.2527,-3.2706,-3.2796,-3.332,-3.3499,-3.3514,-3.3649,-3.3694,-3.3709,-3.3844,-3.3741,-3.3535,-3.3321,-3.3518,-3.3518,-3.2522,-3.2177,-3.2046,-3.2046,-3.1476,-3.1119,-3.1901,-3.0846,-2.9792,-2.9792,-3.0419,-3.1044,-3.1389,-3.196,-3.2464,-3.282,-3.3518,-3.4027,-3.4027,-3.4905,-3.5504,-3.5504,-3.5504,-3.5504,-3.5504,-3.5504,-3.5504,-3.5504,-3.5504,-3.5504,-3.5504,-3.5504,-3.5504,-3.5504,-3.5504,-3.5504,-3.5504,-3.5504,-3.5504,-1.538,-1.5802,-1.6428,-1.6943,-1.7002,0.0,0.0,-1.7545,-1.7467,-1.8071,-1.7954,-1.801,-1.9008,-1.9204,-1.9513,-2.0548,-2.1258,-2.2054,-2.3026,-2.3994,-2.4741,-2.5048,-2.5107,-2.5375,-2.6033,-2.6093,-2.6378,-2.7036,-2.7081,-2.723,-2.761,-2.7904,-2.8083,-2.8083,-2.8742,-2.9086,-2.9086,-2.9415,-2.9729,-3.0043,-3.0043,-3.0223,-3.0552,-3.0552,-3.0731,-3.1016,-3.1016,-3.121,-3.1482,-3.1482,-3.1482,-3.1482,-3.1482,-3.1482,-3.1482,-3.1482,-3.1482,-3.1526,-3.1855,-3.2018,-3.2078,-3.2407,-3.2512,-3.2572,-3.2901,-3.323,-3.3499,-3.3499,-3.3398,-3.3319,-3.3319,-3.3449,-3.3432,-3.2942,-3.2737,-3.2593,-3.2593,-3.2249,-3.2033,-3.2536,-3.1829,-3.1206,-3.1206,-3.1623,-3.2033,-3.2522,-3.3031,-3.3463,-3.3973,-3.4476,-3.4758,-3.4758,-3.5213,-3.5504,-3.5504,-3.5504,-3.5504,-3.5504,-3.5504,-3.5504,-3.5504,-3.5504,-3.5504,-3.5504,-3.5504,-3.5504,-3.5504,-3.5504,-3.5504,-3.5504,-3.5504,-3.5504,-1.667,-1.659,-1.6739,-1.7721,-1.7545,-1.7399,0.0,0.0,0.0,-1.8812,-1.8639,-1.8372,-1.8527,-1.8512,-1.8733,-1.9416,-2.0056,-2.071,-2.1258,-2.2445,-2.343,-2.3999,-2.4014,-2.4373,-2.5151,-2.5345,-2.5689,-2.6363,-2.6288,-2.6557,-2.7335,-2.738,-2.749,-2.7625,-2.8113,-2.8412,-2.8412,-2.8921,-2.9265,-2.94,-2.94,-2.946,-2.9579,-2.9579,-2.9864,-3.0328,-3.0447,-3.0821,-3.1287,-3.1422,-3.1482,-3.1482,-3.1482,-3.1482,-3.1482,-3.1482,-3.1482,-3.1482,-3.1482,-3.1482,-3.1482,-3.1482,-3.1482,-3.1571,-3.2153,-3.2706,-3.311,-3.311,-3.3215,-3.3305,-3.3305,-3.3269,-3.3187,-3.3303,-3.3007,-3.2751,-3.3087,-3.3031,-3.2961,-3.3115,-3.3185,-3.3031,-3.2664,-3.2749,-3.3101,-3.3876,-3.4177,-3.461,-3.5424,-3.5504,-3.5504,-3.5504,-3.5504,-3.5504,-3.5504,-3.5504,-3.5504,-3.5504,-3.5504,-3.5504,-3.5504,-3.5504,-3.5504,-3.5504,-3.5504,-3.5504,-3.5504,-3.5504,-3.5504,-3.5504,-3.5504,-3.5504,-1.72,-1.6845,-1.6615,-1.7256,-1.7333,-1.7271,-1.7326,0.0,-1.7072,-1.6603,0.0,-1.7306,-1.7893,0.0,0.0,-1.8692,-1.9371,-1.9852,-1.9906,-2.109,-2.1934,-2.2024,-2.2024,-2.2503,-2.3714,-2.4373,-2.5016,-2.5674,-2.5181,-2.539,-2.6632,-2.6692,-2.6976,-2.7595,-2.7649,-2.7679,-2.7679,-2.7805,-2.8113,-2.8712,-2.8712,-2.9011,-2.9579,-2.9579,-2.9624,-2.9714,-3.0268,-3.0552,-3.0672,-3.1228,-3.1482,-3.1482,-3.1482,-3.1482,-3.1482,-3.1482,-3.1482,-3.1482,-3.1482,-3.1482,-3.1482,-3.1482,-3.1482,-3.1482,-3.1556,-3.1704,-3.1764,-3.1764,-3.2183,-3.2617,-3.2617,-3.305,-3.3615,-3.4196,-3.3652,-3.346,-3.4868,-3.4476,-3.4095,-3.5001,-3.5148,-3.4624,-3.289,-3.331,-3.3876,-3.3959,-3.4758,-3.5359,-3.5504,-3.5504,-3.5504,-3.5504,-3.5504,-3.5504,-3.5504,-3.5504,-3.5504,-3.5504,-3.5504,-3.5504,-3.5504,-3.5504,-3.5504,-3.5504,-3.5504,-3.5504,-3.5504,-3.5504,-3.5504,-3.5504,-3.5504,-3.5504,-1.7447,-1.7132,-1.6956,-1.6845,-1.6832,-1.6901,-1.7145,-1.7201,-1.721,-1.7263,0.0,0.0,0.0,0.0,0.0,0.0,-1.796,-1.8275,-1.8512,-1.9031,-1.9959,-2.1515,-2.1695,-2.1904,-2.2443,-2.2757,-2.3206,-2.3864,-2.3984,-2.4448,-2.5405,-2.5809,-2.6318,-2.6976,-2.7006,-2.7186,-2.7625,-2.7625,-2.7724,-2.8008,-2.8008,-2.8158,-2.8464,-2.8464,-2.8637,-2.9026,-2.928,-2.9624,-2.9998,-3.0283,-3.0402,-3.0432,-3.0791,-3.118,-3.1482,-3.1482,-3.1482,-3.1482,-3.1482,-3.1482,-3.1482,-3.1482,-3.1482,-3.1482,-3.1482,-3.1482,-3.1482,-3.1482,-3.1676,-3.1943,-3.1943,-3.2437,-3.2991,-3.3275,-3.3654,-3.4085,-3.4767,-3.4916,-3.4986,-3.5439,-3.5504,-3.5213,-3.4409,-3.4624,-3.4839,-3.4839,-3.5213,-3.5504,-3.5504,-3.5504,-3.5504,-3.5504,-3.5504,-3.5504,-3.5504,-3.5504,-3.5504,-3.5504,-3.5504,-3.5504,-3.5504,-3.5504,-3.5504,-3.5504,-3.5504,-3.5504,-3.5504,-3.5504,-3.5504,-3.5504,-3.5504,-3.5504,-1.7935,-1.7505,-1.7188,-1.6615,-1.6522,-1.6547,-1.682,-1.6982,-1.72,-1.7583,-1.7364,0.0,0.0,0.0,-1.6564,0.0,0.0,-1.6946,-1.7096,-1.7368,-1.8357,-2.0617,-2.1201,-2.1425,-2.1425,-2.1425,-2.1695,-2.2368,-2.2652,-2.3266,-2.4298,-2.4807,-2.545,-2.6303,-2.6497,-2.6811,-2.7305,-2.7535,-2.7625,-2.7625,-2.7625,-2.7625,-2.7625,-2.7625,-2.7844,-2.8323,-2.8517,-2.8876,-2.9325,-2.9505,-2.9579,-2.9624,-3.0073,-3.0657,-3.127,-3.1407,-3.1482,-3.1482,-3.1482,-3.1482,-3.1482,-3.1482,-3.1482,-3.1482,-3.1482,-3.1482,-3.1482,-3.1482,-3.1482,-3.1482,-3.1482,-3.1884,-3.2287,-3.2482,-3.3245,-3.3978,-3.4173,-3.4607,-3.5011,-3.519,-3.522,-3.528,-3.5474,-3.5504,-3.5504,-3.5504,-3.5504,-3.5504,-3.5504,-3.5504,-3.5504,-3.5504,-3.5504,-3.5504,-3.5504,-3.5504,-3.5504,-3.5504,-3.5504,-3.5504,-3.5504,-3.5504,-3.5504,-3.5504,-3.5504,-3.5504,-3.5504,-3.5504,-3.5504,-3.5504,-3.5504,-3.5504,-1.8848,-1.8106,-1.7188,-1.6615,-1.6522,-1.6373,-1.5874,-1.6157,-1.6534,-1.6534,-1.6969,-1.7269,-1.7286,-1.7179,0.0,0.0,0.0,0.0,0.0,-1.645,-1.752,-1.8683,-1.9944,-2.0752,-2.0752,-2.0752,-2.1021,-2.168,-2.1156,-2.1635,-2.3535,-2.3655,-2.4268,-2.56,-2.6258,-2.6602,-2.6617,-2.726,-2.7625,-2.7625,-2.7625,-2.7625,-2.7625,-2.7625,-2.7625,-2.7685,-2.8308,-2.8607,-2.8682,-2.9325,-2.9579,-2.9579,-2.9609,-2.9983,-3.0612,-3.1285,-3.1482,-3.1482,-3.1482,-3.1482,-3.1482,-3.1482,-3.1482,-3.1482,-3.1482,-3.1482,-3.1482,-3.1482,-3.1482,-3.1482,-3.1482,-3.1497,-3.1676,-3.2362,-3.2542,-3.2751,-3.338,-3.3544,-3.3754,-3.4382,-3.4502,-3.4726,-3.5385,-3.5504,-3.5504,-3.5504,-3.5504,-3.5504,-3.5504,-3.5504,-3.5504,-3.5504,-3.5504,-3.5504,-3.5504,-3.5504,-3.5504,-3.5504,-3.5504,-3.5504,-3.5504,-3.5504,-3.5504,-3.5504,-3.5504,-3.5504,-3.5504,-3.5504,-3.5504,-3.5504,-3.5504,-3.5504,-1.8986,-1.8656,-1.8235,-1.7666,-1.7304,-1.6973,-1.6786,-1.6615,-1.6522,-1.6522,-1.6615,-1.6764,-1.6764,-1.6454,0.0,0.0,0.0,0.0,0.0,-1.5747,-1.6193,-1.6541,-1.8243,-1.9211,-1.8743,-1.9525,-1.9944,-1.9735,-2.0333,-2.1006,-2.165,-2.2517,-2.3385,-2.4253,-2.4941,-2.5495,-2.5929,-2.6587,-2.6916,-2.6916,-2.7415,-2.7625,-2.7625,-2.7625,-2.7625,-2.7625,-2.7814,-2.7919,-2.7934,-2.8158,-2.8299,-2.8344,-2.8742,-2.9056,-2.937,-3.0447,-3.115,-3.1482,-3.1482,-3.1482,-3.1482,-3.1482,-3.1482,-3.1482,-3.1482,-3.1482,-3.1482,-3.1482,-3.1482,-3.1482,-3.1482,-3.1482,-3.1541,-3.175,-3.2198,-3.2572,-3.2796,-3.3185,-3.3559,-3.3784,-3.3829,-3.3903,-3.4143,-3.3687,-3.3789,-3.529,-3.5504,-3.5504,-3.5504,-3.5504,-3.5504,-3.5504,-3.5504,-3.5504,-3.5504,-3.5504,-3.5504,-3.5504,-3.5504,-3.5504,-3.5504,-3.5504,-3.5504,-3.5504,-3.5504,-3.5504,-3.5504,-3.5504,-3.5504,-3.5504,-3.5504,-3.5504,-1.9292,-1.9051,-1.8775,-1.823,-1.7833,-1.7489,-1.7089,-1.6901,-1.6739,-1.6534,-1.6522,-1.6522,-1.6522,-1.6237,0.0,0.0,0.0,0.0,0.0,-1.4883,-1.4982,-1.5147,-1.6915,-1.8051,-1.7874,-1.8233,-1.856,-1.8756,-1.9205,-1.9775,-2.038,-2.1645,-2.2622,-2.3251,-2.4163,-2.4791,-2.5255,-2.5914,-2.6243,-2.6243,-2.6901,-2.7215,-2.723,-2.7505,-2.7625,-2.7625,-2.7625,-2.7625,-2.7625,-2.7625,-2.7625,-2.767,-2.8068,-2.8382,-2.8727,-2.9789,-3.0597,-3.1165,-3.1165,-3.133,-3.1482,-3.1482,-3.1482,-3.1482,-3.1482,-3.1482,-3.1482,-3.1482,-3.1482,-3.1482,-3.1482,-3.1482,-3.1482,-3.1482,-3.1854,-3.2035,-3.1782,-3.2047,-3.234,-3.2299,-3.228,-3.2353,-3.2572,-3.2141,-3.2436,-3.4353,-3.4369,-3.4228,-3.4461,-3.4491,-3.4491,-3.4491,-3.4491,-3.4491,-3.4491,-3.4773,-3.4986,-3.4986,-3.5279,-3.5504,-3.5504,-3.5504,-3.5504,-3.5504,-3.5504,-3.5504,-3.5504,-3.5504,-3.5504,-3.5504,-3.5504,-3.5504]}]]